[[{"header":{"parameterUnit":"m.s-1","parameterCategory":1,"la1":30.6,"la2":28.766,"lo1":-90.7593,"lo2":-88.6598,"dy":0.0162,"dx":0.0183,"nx":116,"ny":114,"refTime":"2024-05-09T12:00:00:Z","depth":0,"parameterNumber":2,"parameterNumberName":"U-component_of_WINDS"},"data":[0.0,0.0,0.0,0.0,0.0,0.0,0.0,0.0,0.0,0.0,0.0,0.0,0.0,0.0,0.0,0.0,0.0,0.0,0.0,0.0,0.0,0.0,0.0,0.0,0.0,0.0,0.0,0.0,0.0,0.0,0.0,0.0,0.0,0.0,0.0,0.0,0.0,0.0,0.0,0.0,0.0,0.0,0.0,0.0,0.0,0.0,0.0,0.0,0.0,0.0,0.0,0.0,0.0,0.0,0.0,0.0,0.0,0.0,0.0,0.0,0.0,0.0,0.0,0.0,0.0,0.0,0.0,0.0,0.0,0.0,0.0,0.0,0.0,0.0,0.0,0.0,0.0,0.0,0.0,0.0,0.0,0.0,0.0,0.0,0.0,0.0,0.0,0.0,0.0,0.0,0.0,0.0,0.0,0.0,0.0,0.0,0.0,0.0,0.0,0.0,0.0,0.0,0.0,0.0,0.0,0.0,0.0,0.0,0.0,0.0,0.0,0.0,0.0,0.0,0.0,0.0,0.0,0.0,0.0,0.0,0.0,0.0,0.0,0.0,0.0,0.0,0.0,0.0,0.0,0.0,0.0,0.0,0.0,0.0,0.0,0.0,0.0,0.0,0.0,0.0,0.0,0.0,0.0,0.0,0.0,0.0,0.0,0.0,0.0,0.0,0.0,0.0,0.0,0.0,0.0,0.0,0.0,0.0,0.0,0.0,0.0,0.0,0.0,0.0,0.0,0.0,0.0,0.0,0.0,0.0,0.0,0.0,0.0,0.0,0.0,0.0,0.0,0.0,0.0,0.0,0.0,0.0,0.0,0.0,0.0,0.0,0.0,0.0,0.0,0.0,0.0,0.0,0.0,0.0,0.0,0.0,0.0,0.0,0.0,0.0,0.0,0.0,0.0,0.0,0.0,0.0,0.0,0.0,0.0,0.0,0.0,0.0,0.0,0.0,0.0,0.0,0.0,0.0,0.0,0.0,0.0,0.0,0.0,0.0,0.0,0.0,0.0,0.0,0.0,0.0,0.0,0.0,0.0,0.0,0.0,0.0,0.0,0.0,0.0,0.0,0.0,0.0,0.0,0.0,0.0,0.0,0.0,0.0,0.0,0.0,0.0,0.0,0.0,0.0,0.0,0.0,0.0,0.0,0.0,0.0,0.0,0.0,0.0,0.0,0.0,0.0,0.0,0.0,0.0,0.0,0.0,0.0,0.0,0.0,0.0,0.0,0.0,0.0,0.0,0.0,0.0,0.0,0.0,0.0,0.0,0.0,0.0,0.0,0.0,0.0,0.0,0.0,0.0,0.0,0.0,0.0,0.0,0.0,0.0,0.0,0.0,0.0,0.0,0.0,0.0,0.0,0.0,0.0,0.0,0.0,0.0,0.0,0.0,0.0,0.0,0.0,0.0,0.0,0.0,0.0,0.0,0.0,0.0,0.0,0.0,0.0,0.0,0.0,0.0,0.0,0.0,0.0,0.0,0.0,0.0,0.0,0.0,0.0,0.0,0.0,0.0,0.0,0.0,0.0,0.0,0.0,0.0,0.0,0.0,0.0,0.0,0.0,0.0,0.0,0.0,0.0,0.0,0.0,0.0,0.0,0.0,0.0,0.0,0.0,0.0,0.0,0.0,0.0,0.0,0.0,0.0,0.0,0.0,0.0,0.0,0.0,0.0,0.0,0.0,0.0,0.0,0.0,0.0,0.0,0.0,0.0,0.0,0.0,0.0,0.0,0.0,0.0,0.0,0.0,0.0,0.0,0.0,0.0,0.0,0.0,0.0,0.0,0.0,0.0,0.0,0.0,0.0,0.0,0.0,0.0,0.0,0.0,0.0,0.0,0.0,0.0,0.0,0.0,0.0,0.0,0.0,0.0,0.0,0.0,0.0,0.0,0.0,0.0,0.0,0.0,0.0,0.0,0.0,0.0,0.0,0.0,0.0,0.0,0.0,0.0,0.0,0.0,0.0,0.0,0.0,0.0,0.0,0.0,0.0,0.0,0.0,0.0,0.0,0.0,0.0,0.0,0.0,0.0,0.0,0.0,0.0,0.0,0.0,0.0,0.0,0.0,0.0,0.0,0.0,0.0,0.0,0.0,0.0,0.0,0.0,0.0,0.0,0.0,0.0,0.0,0.0,0.0,0.0,0.0,0.0,0.0,0.0,0.0,0.0,0.0,0.0,0.0,0.0,0.0,0.0,0.0,0.0,0.0,0.0,0.0,0.0,0.0,0.0,0.0,0.0,0.0,0.0,0.0,0.0,0.0,0.0,0.0,0.0,0.0,0.0,0.0,0.0,0.0,0.0,0.0,0.0,0.0,0.0,0.0,0.0,0.0,0.0,0.0,0.0,0.0,0.0,0.0,0.0,0.0,0.0,0.0,0.0,0.0,0.0,0.0,0.0,0.0,0.0,0.0,0.0,0.0,0.0,0.0,0.0,0.0,0.0,0.0,0.0,0.0,0.0,0.0,0.0,0.0,0.0,0.0,0.0,0.0,0.0,0.0,0.0,0.0,0.0,0.0,0.0,0.0,0.0,0.0,0.0,0.0,0.0,0.0,0.0,0.0,0.0,0.0,0.0,0.0,0.0,0.0,0.0,0.0,0.0,0.0,0.0,0.0,0.0,0.0,0.0,0.0,0.0,0.0,0.0,0.0,0.0,0.0,0.0,0.0,0.0,0.0,0.0,0.0,0.0,0.0,0.0,0.0,0.0,0.0,0.0,0.0,0.0,0.0,0.0,0.0,0.0,0.0,0.0,0.0,0.0,0.0,0.0,0.0,0.0,0.0,0.0,0.0,0.0,0.0,0.0,0.0,0.0,0.0,0.0,0.0,0.0,0.0,0.0,0.0,0.0,0.0,0.0,0.0,0.0,0.0,0.0,0.0,0.0,0.0,0.0,0.0,0.0,0.0,0.0,0.0,0.0,0.0,0.0,0.0,0.0,0.0,0.0,0.0,0.0,0.0,0.0,0.0,0.0,0.0,0.0,0.0,0.0,0.0,0.0,0.0,0.0,0.0,0.0,0.0,0.0,0.0,0.0,0.0,0.0,0.0,0.0,0.0,0.0,0.0,0.0,0.0,0.0,0.0,0.0,0.0,0.0,0.0,0.0,0.0,0.0,0.0,0.0,0.0,0.0,0.0,0.0,0.0,0.0,0.0,0.0,0.0,0.0,0.0,0.0,0.0,0.0,0.0,0.0,0.0,0.0,0.0,0.0,0.0,0.0,0.0,0.0,0.0,0.0,0.0,0.0,0.0,0.0,0.0,0.0,0.0,0.0,0.0,0.0,0.0,0.0,0.0,0.0,0.0,0.0,0.0,0.0,0.0,0.0,0.0,0.0,0.0,0.0,0.0,0.0,0.0,0.0,0.0,0.0,0.0,0.0,0.0,0.0,0.0,0.0,0.0,0.0,0.0,0.0,0.0,0.0,0.0,0.0,0.0,0.0,0.0,0.0,0.0,0.0,0.0,0.0,0.0,0.0,0.0,0.0,0.0,0.0,0.0,0.0,0.0,0.0,0.0,0.0,0.0,0.0,0.0,0.0,0.0,0.0,0.0,0.0,0.0,0.0,0.0,0.0,0.0,0.0,0.0,0.0,0.0,0.0,0.0,0.0,0.0,0.0,0.0,0.0,0.0,0.0,0.0,0.0,0.0,0.0,0.0,0.0,0.0,0.0,0.0,0.0,0.0,0.0,0.0,0.0,0.0,0.0,0.0,0.0,0.0,0.0,0.0,0.0,0.0,0.0,0.0,0.0,0.0,0.0,0.0,0.0,0.0,0.0,0.0,0.0,0.0,0.0,0.0,0.0,0.0,0.0,0.0,0.0,0.0,0.0,0.0,0.0,0.0,0.0,0.0,0.0,0.0,0.0,0.0,0.0,0.0,0.0,0.0,0.0,0.0,0.0,0.0,0.0,0.0,0.0,0.0,0.0,0.0,0.0,0.0,0.0,0.0,0.0,0.0,0.0,0.0,0.0,0.0,0.0,0.0,0.0,0.0,0.0,0.0,0.0,0.0,0.0,0.0,0.0,0.0,0.0,0.0,0.0,0.0,0.0,0.0,0.0,0.0,0.0,0.0,0.0,0.0,0.0,0.0,0.0,0.0,0.0,0.0,0.0,0.0,0.0,0.0,0.0,0.0,0.0,0.0,0.0,0.0,0.0,0.0,0.0,0.0,0.0,0.0,0.0,0.0,0.0,0.0,0.0,0.0,0.0,0.0,0.0,0.0,0.0,0.0,0.0,0.0,0.0,0.0,0.0,0.0,0.0,0.0,0.0,0.0,0.0,0.0,0.0,0.0,0.0,0.0,0.0,0.0,0.0,0.0,0.0,0.0,0.0,0.0,0.0,0.0,0.0,0.0,0.0,0.0,0.0,0.0,0.0,0.0,0.0,0.0,0.0,0.0,0.0,0.0,0.0,0.0,0.0,0.0,0.0,0.0,0.0,0.0,0.0,0.0,0.0,0.0,0.0,0.0,0.0,0.0,0.0,0.0,0.0,0.0,0.0,0.0,0.0,0.0,0.0,0.0,0.0,0.0,0.0,0.0,0.0,0.0,0.0,0.0,0.0,0.0,0.0,0.0,0.0,0.0,0.0,0.0,0.0,0.0,0.0,0.0,0.0,0.0,0.0,0.0,0.0,0.0,0.0,0.0,0.0,0.0,0.0,0.0,0.0,0.0,0.0,0.0,0.0,0.0,0.0,0.0,0.0,0.0,0.0,0.0,0.0,0.0,0.0,0.0,0.0,0.0,0.0,0.0,0.0,0.0,0.0,0.0,0.0,0.0,0.0,0.0,0.0,0.0,0.0,0.0,0.0,0.0,0.0,0.0,0.0,0.0,0.0,0.0,0.0,0.0,0.0,0.0,0.0,0.0,0.0,0.0,0.0,0.0,0.0,0.0,0.0,0.0,0.0,0.0,0.0,0.0,0.0,0.0,0.0,0.0,0.0,0.0,0.0,0.0,0.0,0.0,0.0,0.0,0.0,0.0,0.0,0.0,0.0,0.0,0.0,0.0,0.0,0.0,0.0,0.0,0.0,0.0,0.0,0.0,0.0,0.0,0.0,0.0,0.0,0.0,0.0,0.0,0.0,0.0,0.0,0.0,0.0,0.0,0.0,0.0,0.0,0.0,0.0,0.0,0.0,0.0,0.0,0.0,0.0,0.0,0.0,0.0,0.0,0.0,0.0,0.0,0.0,0.0,0.0,0.0,0.0,0.0,0.0,0.0,0.0,0.0,0.0,0.0,0.0,0.0,0.0,0.0,0.0,0.0,0.0,0.0,0.0,0.0,0.0,0.0,0.0,0.0,0.0,0.0,0.0,0.0,0.0,0.0,0.0,0.0,0.0,0.0,0.0,0.0,0.0,0.0,0.0,0.0,0.0,0.0,0.0,0.0,0.0,0.0,0.0,0.0,0.0,0.0,0.0,0.0,0.0,0.0,0.0,0.0,0.0,0.0,0.0,0.0,0.0,0.0,0.0,0.0,0.0,0.0,0.0,0.0,0.0,0.0,0.0,0.0,0.0,0.0,0.0,0.0,0.0,0.0,0.0,0.0,0.0,0.0,0.0,0.0,0.0,0.0,0.0,0.0,0.0,0.0,0.0,0.0,0.0,0.0,0.0,0.0,0.0,0.0,0.0,0.0,0.0,0.0,0.0,0.0,0.0,0.0,0.0,0.0,0.0,0.0,0.0,0.0,0.0,0.0,0.0,0.0,0.0,0.0,0.0,0.0,0.0,0.0,0.0,0.0,0.0,0.0,0.0,0.0,0.0,0.0,0.0,0.0,0.0,0.0,0.0,0.0,0.0,0.0,0.0,0.0,0.0,0.0,0.0,0.0,0.0,0.0,0.0,0.0,0.0,0.0,0.0,0.0,0.0,0.0,0.0,0.0,0.0,0.0,0.0,0.0,0.0,0.0,0.0,0.0,0.0,0.0,0.0,0.0,0.0,0.0,0.0,0.0,0.0,0.0,0.0,0.0,0.0,0.0,0.0,0.0,0.0,0.0,0.0,0.0,0.0,0.0,0.0,0.0,0.0,0.0,0.0,0.0,0.0,0.0,0.0,0.0,0.0,0.0,0.0,0.0,0.0,0.0,0.0,0.0,0.0,0.0,-7.1862,0.0,0.0,0.0,0.0,0.0,0.0,0.0,0.0,0.0,0.0,0.0,0.0,0.0,0.0,0.0,0.0,0.0,0.0,0.0,0.0,0.0,0.0,0.0,0.0,-4.6544,-4.7201,-4.8099,-4.8211,-4.859,-4.9453,0.0,0.0,0.0,0.0,0.0,-5.0586,-5.1087,-5.1336,-5.1391,-5.2717,-5.4027,-5.5272,-5.4817,-5.4633,-5.4697,0.0,0.0,0.0,0.0,0.0,0.0,0.0,0.0,0.0,0.0,0.0,0.0,0.0,0.0,0.0,0.0,0.0,0.0,0.0,0.0,0.0,0.0,0.0,0.0,0.0,0.0,0.0,0.0,0.0,0.0,0.0,0.0,0.0,0.0,0.0,0.0,0.0,0.0,0.0,0.0,0.0,0.0,0.0,0.0,0.0,0.0,0.0,0.0,0.0,0.0,0.0,0.0,0.0,0.0,0.0,0.0,0.0,0.0,0.0,0.0,0.0,0.0,0.0,0.0,0.0,0.0,0.0,0.0,0.0,0.0,0.0,-7.3037,0.0,0.0,0.0,0.0,0.0,0.0,0.0,0.0,0.0,0.0,0.0,0.0,0.0,0.0,0.0,0.0,0.0,0.0,0.0,0.0,0.0,-4.6202,-4.6594,-4.7339,-4.8135,-4.9035,-4.9124,-4.9465,-5.0186,-5.0309,-5.0367,-5.0435,-5.0696,-5.0816,-5.0837,-5.178,-5.2346,-5.2541,-5.4452,-5.617,-5.7744,-5.7744,-5.7366,-5.667,-5.6515,0.0,0.0,0.0,0.0,0.0,0.0,0.0,0.0,0.0,0.0,0.0,0.0,0.0,0.0,0.0,0.0,0.0,0.0,0.0,0.0,0.0,0.0,0.0,0.0,0.0,0.0,0.0,0.0,0.0,0.0,0.0,0.0,0.0,0.0,0.0,0.0,0.0,0.0,0.0,0.0,0.0,0.0,0.0,0.0,0.0,0.0,0.0,0.0,0.0,0.0,0.0,0.0,0.0,0.0,0.0,0.0,0.0,0.0,0.0,0.0,0.0,0.0,0.0,-7.4268,-7.4629,-7.5349,-7.5349,-7.5766,-7.6449,-7.5084,-7.5198,-7.6221,-7.4819,0.0,0.0,0.0,0.0,0.0,0.0,0.0,0.0,0.0,0.0,0.0,0.0,0.0,0.0,0.0,0.0,0.0,0.0,0.0,-4.6821,-4.8289,-4.8703,-4.9205,-4.9959,-5.0071,-5.0206,-5.0379,-5.039,-5.0446,-5.0553,-5.1316,-5.1761,-5.1809,-5.275,-5.3576,-5.4366,-5.6845,-5.8604,-5.9571,-5.9571,-5.9493,-5.9339,-5.8604,-5.8228,-5.8095,0.0,0.0,0.0,0.0,0.0,0.0,0.0,0.0,0.0,0.0,0.0,0.0,0.0,0.0,0.0,0.0,0.0,0.0,0.0,0.0,0.0,0.0,0.0,0.0,0.0,0.0,0.0,0.0,0.0,0.0,0.0,0.0,0.0,0.0,0.0,0.0,0.0,0.0,0.0,0.0,0.0,-6.6063,-6.6178,0.0,0.0,0.0,0.0,0.0,0.0,0.0,0.0,0.0,0.0,0.0,0.0,0.0,-7.4023,-7.5615,-7.5615,-7.6069,-7.6903,-7.6903,-7.6979,-7.7055,-7.7055,-7.751,-7.8268,-7.804,0.0,-7.7207,-7.6979,0.0,0.0,0.0,0.0,0.0,0.0,0.0,0.0,0.0,0.0,0.0,0.0,0.0,0.0,0.0,0.0,0.0,0.0,0.0,0.0,0.0,-4.9469,-4.9962,-5.0209,-5.0765,-5.0876,-5.0439,-5.0922,-5.1265,-5.1326,-5.1751,-5.2241,-5.2789,-5.4146,-5.5766,-5.761,-5.8749,-5.9764,-6.0576,-6.0576,-6.0576,-6.0576,-6.019,-5.9427,-5.8452,-5.8046,0.0,0.0,0.0,0.0,0.0,0.0,0.0,0.0,0.0,0.0,0.0,0.0,0.0,0.0,0.0,0.0,0.0,0.0,0.0,0.0,0.0,0.0,0.0,0.0,0.0,0.0,0.0,0.0,0.0,0.0,0.0,0.0,0.0,0.0,0.0,0.0,0.0,0.0,0.0,-6.542,-6.6736,-6.6736,-6.7898,-6.851,0.0,0.0,0.0,0.0,0.0,0.0,0.0,0.0,0.0,-7.4288,-7.4781,-7.5615,-7.6828,-7.6828,-7.7244,-7.8078,-7.8078,-7.8344,-7.8798,-7.8798,-7.8988,-7.9329,-7.9329,-7.914,-7.8761,-7.8268,-7.7851,-7.7472,0.0,0.0,0.0,0.0,-7.6828,-7.6941,0.0,0.0,0.0,0.0,0.0,0.0,0.0,0.0,0.0,0.0,0.0,0.0,-4.9433,-5.003,-5.0412,-5.0367,-5.1167,-5.1354,-5.0506,-5.1554,-5.2145,-5.1963,-5.2462,-5.3095,-5.3756,-5.5668,-5.7744,-5.9898,-6.0149,-6.0574,-6.1155,-6.1137,-6.1137,-6.1137,-6.1118,-6.0364,-5.9167,-5.8877,-5.8364,-5.7734,0.0,0.0,0.0,0.0,0.0,0.0,0.0,0.0,0.0,0.0,0.0,0.0,0.0,0.0,0.0,0.0,0.0,0.0,0.0,0.0,0.0,0.0,0.0,0.0,0.0,0.0,0.0,0.0,0.0,0.0,0.0,0.0,0.0,0.0,0.0,0.0,0.0,-6.6689,-6.7882,-6.8089,-6.9391,-7.008,0.0,0.0,0.0,0.0,0.0,0.0,-7.346,-7.3781,-7.4422,-7.5501,-7.6107,-7.6828,-7.7699,-7.7699,-7.8116,-7.8912,-7.8912,-7.9253,-7.9898,-7.9898,-7.9898,-7.9898,-7.9898,-7.9898,-7.986,-7.9215,-7.8798,-7.8533,-7.7927,-7.7586,-7.7434,-7.7623,-7.7699,-7.7813,0.0,0.0,0.0,0.0,0.0,0.0,0.0,0.0,0.0,0.0,0.0,-4.9524,-5.0448,-5.0532,-5.05,-5.0489,-5.1212,-5.1371,-5.0644,-5.2202,-5.282,-5.2116,-5.367,-5.4615,-5.4744,-5.7262,-5.9022,-5.9904,-6.0807,-6.1259,-6.1289,-6.1208,-6.1182,-6.1182,-6.1137,-6.1041,-6.0915,-6.0094,-5.9659,-5.9415,-5.7744,0.0,0.0,0.0,0.0,0.0,0.0,0.0,0.0,0.0,0.0,0.0,0.0,0.0,0.0,0.0,0.0,0.0,0.0,0.0,0.0,0.0,0.0,0.0,0.0,0.0,0.0,0.0,0.0,0.0,0.0,0.0,0.0,0.0,0.0,0.0,0.0,0.0,0.0,-7.1613,-7.251,0.0,0.0,0.0,0.0,-7.3972,-7.3237,-7.3778,-7.6065,-7.5398,-7.564,-7.7207,-7.732,-7.7737,-7.8533,-7.8533,-7.8988,-7.9822,-7.9822,-7.986,-7.9898,-7.9898,-7.9898,-7.9898,-7.9898,-7.9898,-7.9898,-7.986,-7.9329,-7.8609,-7.8571,-7.8078,-7.7472,-7.8268,-7.8533,-7.8647,0.0,0.0,0.0,0.0,0.0,-4.7201,-4.7846,-4.8269,-4.8887,-4.9859,-5.0036,-5.024,-5.0557,-5.0584,-5.0553,-5.0553,-5.1841,-5.2315,-5.1559,-5.3156,-5.4087,-5.3868,-5.4467,-5.5622,-5.7265,-5.8777,-5.9964,-6.0809,-6.1136,-6.1299,-6.1299,-6.1297,-6.1272,-6.1272,-6.1182,-6.1164,-6.1155,-6.0732,-6.0258,-5.9698,-5.8988,-5.8049,0.0,0.0,0.0,0.0,0.0,0.0,0.0,0.0,0.0,0.0,0.0,0.0,0.0,0.0,0.0,0.0,0.0,0.0,0.0,0.0,0.0,0.0,0.0,0.0,0.0,0.0,0.0,0.0,0.0,0.0,0.0,0.0,0.0,0.0,0.0,0.0,0.0,-7.2091,-7.2899,0.0,-7.3298,-7.373,-7.4341,-7.5097,-7.5268,-7.5908,-7.7227,-7.7396,-7.7673,-7.8154,-7.8723,-7.914,-7.9443,-7.9443,-7.9594,-7.9898,-7.9898,-7.9898,-7.9898,-7.9898,-7.9898,-7.9898,-7.9898,-7.9898,-7.9898,-7.9898,-7.9708,-7.9443,-7.9443,-7.9253,-7.9026,-7.9329,-7.9443,-7.9481,0.0,0.0,0.0,-4.648,-4.7315,-4.8187,-4.8843,-4.9296,-4.9841,-5.049,-5.0654,-5.0692,-5.0701,-5.0645,-5.0769,-5.1077,-5.2406,-5.3032,-5.2536,-5.4169,-5.5078,-5.4839,-5.545,-5.6837,-5.9072,-5.976,-6.0487,-6.1381,-6.1356,-6.1356,-6.1381,-6.1329,-6.1337,-6.1322,-6.1217,-6.1182,-6.1182,-6.106,-6.0713,-6.0191,-5.9801,-5.8978,-5.7867,0.0,0.0,0.0,0.0,0.0,0.0,0.0,0.0,0.0,0.0,0.0,0.0,0.0,0.0,0.0,0.0,0.0,0.0,0.0,0.0,0.0,0.0,0.0,0.0,0.0,0.0,0.0,0.0,0.0,0.0,0.0,0.0,0.0,0.0,-7.1235,-7.2225,-7.3086,-7.3935,-7.4397,-7.4298,-7.5018,-7.5672,-7.613,-7.682,-7.7523,-7.8199,-7.8635,-7.8891,-7.9026,-7.9594,-7.9898,-7.9898,-7.9898,-7.9898,-7.9898,-7.9898,-7.9898,-7.9898,-7.9898,-7.9898,-7.9898,-7.9898,-7.9898,-7.9898,-7.9898,-7.9898,-7.9898,-7.9898,-7.9898,-7.9898,-7.9898,-7.9898,-7.9898,0.0,-4.6253,-4.6581,-4.7327,-4.8289,-4.8958,-4.9049,-4.9865,-5.0567,-5.0764,-5.0782,-5.0838,-5.088,-5.0803,-5.1094,-5.2009,-5.2863,-5.3391,-5.3522,-5.5157,-5.5777,-5.5002,-5.6634,-5.8344,-5.9978,-6.0164,-6.0678,-6.149,-6.1479,-6.1518,-6.1484,-6.1415,-6.1359,-6.1322,-6.1234,-6.1191,-6.1182,-6.1137,-6.1051,-6.0925,-6.0162,-5.9745,-5.9447,0.0,0.0,0.0,0.0,0.0,0.0,0.0,0.0,0.0,0.0,0.0,0.0,0.0,0.0,0.0,0.0,0.0,0.0,0.0,0.0,0.0,0.0,0.0,0.0,0.0,0.0,0.0,0.0,0.0,0.0,0.0,0.0,0.0,-7.2392,-7.3099,-7.4024,-7.4961,-7.5811,-7.6276,-7.6058,-7.691,-7.7367,-7.7122,-7.7818,-7.8488,-7.9133,-7.9018,-7.9219,-7.9881,-7.9898,-7.9898,-7.9898,-7.9898,-7.9898,-7.9898,-7.9898,-7.9898,-7.9898,-7.9898,-7.9898,-7.9898,-7.9898,-7.9898,-7.9898,-7.9898,-7.9898,-7.9898,-7.9898,-7.9898,-7.9898,-7.9898,-7.9898,-7.9898,-4.7037,-4.7606,-4.8124,-4.8428,-4.9274,-4.9939,-5.0068,-5.0462,-5.0747,-5.0855,-5.0863,-5.0872,-5.0919,-5.1404,-5.1837,-5.2166,-5.3544,-5.4405,-5.4502,-5.5617,-5.644,-5.6858,-5.8521,-5.9672,-6.0111,-6.0837,-6.1331,-6.156,-6.1552,-6.1564,-6.1518,-6.1415,-6.1401,-6.1359,-6.1314,-6.1281,-6.1272,-6.1155,-6.1109,-6.1051,-6.079,-6.0267,-5.9626,0.0,0.0,0.0,0.0,0.0,0.0,0.0,0.0,0.0,0.0,0.0,0.0,0.0,0.0,0.0,0.0,0.0,0.0,0.0,0.0,0.0,0.0,0.0,0.0,0.0,0.0,0.0,0.0,0.0,0.0,0.0,-7.3408,-7.4464,-7.4359,-7.464,-7.5167,-7.6059,-7.6912,-7.739,-7.7241,-7.7936,-7.8643,-7.9134,-7.9285,-7.9594,-8.0177,-8.003,-7.9908,-7.9919,-7.9898,-7.9898,-7.9898,-7.9898,-7.9898,-7.9898,-7.9898,-7.9898,-7.9898,-7.9898,-7.9898,-7.9898,-7.9898,-7.9898,-7.9898,-7.9898,-7.9898,-7.9898,-7.9898,-7.9898,-7.9898,-7.9898,-7.9898,-7.9898,-4.796,-4.8428,-4.891,-4.9352,-4.9954,-5.0418,-5.0547,-5.0729,-5.0863,-5.0897,-5.0905,-5.0913,-5.0937,-5.1679,-5.2369,-5.2785,-5.4079,-5.5052,-5.5488,-5.6368,-5.7403,-5.8649,-5.9698,-6.0395,-6.0781,-6.1335,-6.1629,-6.1637,-6.1621,-6.1591,-6.1539,-6.1484,-6.1466,-6.1401,-6.1376,-6.133,-6.1297,-6.1182,-6.1137,-6.1118,-6.1051,-6.0722,-6.0187,-5.9809,-5.9282,-5.8781,-5.8434,-5.8511,-5.8819,-5.8853,0.0,0.0,0.0,0.0,0.0,0.0,0.0,0.0,0.0,0.0,0.0,0.0,0.0,0.0,0.0,0.0,0.0,0.0,0.0,0.0,0.0,0.0,0.0,0.0,-7.4926,-7.602,-7.6349,-7.6125,-7.6251,-7.7105,-7.767,-7.803,-7.8281,-7.8998,-7.9635,-8.0035,-8.0285,-8.0462,-8.066,-8.043,-8.0197,-7.9946,-7.9919,-7.9898,-7.9898,-7.9898,-7.9898,-7.9898,-7.9898,-7.9898,-7.9898,-7.9898,-7.9898,0.0,-7.9898,-7.9898,-7.9898,-7.9898,-7.9898,0.0,0.0,0.0,0.0,0.0,-8.0087,-8.039,-4.8796,-4.8986,-4.9276,-5.0109,-5.0374,-5.0545,-5.0701,-5.0838,-5.0897,-5.0898,-5.0898,-5.096,-5.1121,-5.1911,-5.2813,-5.3766,-5.4602,-5.5482,-5.6464,-5.7409,-5.8582,-6.0139,-6.0346,-6.0824,-6.1566,-6.1688,-6.1705,-6.1711,-6.1705,-6.1686,-6.1605,-6.1599,-6.1539,-6.1415,-6.1401,-6.1383,-6.1314,-6.1208,-6.1164,-6.1127,-6.1118,-6.1051,-6.092,-6.0149,-5.9777,-5.9588,-5.8934,-5.9204,-5.9831,-5.9975,0.0,0.0,0.0,0.0,0.0,0.0,0.0,0.0,0.0,0.0,0.0,0.0,0.0,0.0,0.0,0.0,0.0,0.0,0.0,0.0,0.0,0.0,0.0,0.0,-7.6255,-7.7268,-7.8079,-7.7562,-7.74,-7.817,-7.8293,-7.8581,-7.9223,-8.0045,-8.0506,-8.0392,-8.0898,-8.1075,-8.0827,0.0,0.0,0.0,0.0,-7.9898,-7.9898,-7.9898,-7.9898,-7.9898,-7.9898,-7.9898,-7.9898,-7.9898,-7.9898,-7.9898,-7.9898,-7.9936,-8.0049,-8.0049,-8.0087,-8.0163,-7.9973,-7.9936,-8.0049,-8.0049,-8.0542,-8.1262,-4.9797,-4.9848,-4.9985,-5.0353,-5.0507,-5.0625,-5.0841,-5.0874,-5.089,-5.0898,-5.0898,-5.1192,-5.1981,-5.2852,-5.3806,-5.4666,-5.5539,-5.6425,-5.732,-5.8885,-5.9918,-6.0268,-6.0956,-6.1426,-6.161,-6.1673,-6.1718,-6.1718,-6.1717,-6.1669,-6.161,-6.1609,-6.156,-6.1466,-6.1427,-6.1401,-6.1383,-6.1234,-6.1182,-6.1173,-6.1127,-6.1051,-6.0987,-6.0804,-6.0652,-6.0627,-6.1177,-6.1485,-6.1716,-6.244,-6.2948,-6.3274,-6.3399,-6.3429,0.0,0.0,0.0,0.0,0.0,0.0,0.0,0.0,0.0,0.0,0.0,0.0,0.0,0.0,0.0,0.0,0.0,0.0,0.0,-7.5494,-7.6869,-7.8001,-7.8234,-7.8689,-7.9027,-7.9194,-7.9842,-8.0271,-8.0297,-8.1028,-8.1485,-8.1424,-8.1361,-8.12,-8.0885,-8.0611,-8.0315,-8.0013,-7.9924,-7.9898,-7.9898,-7.9898,-7.9898,-7.9898,0.0,0.0,-7.9898,-7.9898,-7.9898,-7.9898,-7.9898,-8.0277,-8.0883,-8.0883,-8.1262,-8.1755,-8.0428,-8.0277,-8.0883,-8.0883,-8.1414,-8.2134,-5.0163,-5.0188,-5.0271,-5.0507,-5.0587,-5.072,-5.0874,-5.0882,-5.0929,-5.0968,-5.0937,-5.1121,-5.1625,-5.2498,-5.3402,-5.4302,-5.5992,-5.7359,-5.8221,-5.9542,-6.0502,-6.0945,-6.1389,-6.1593,-6.1587,-6.1678,-6.1718,-6.1709,-6.1716,-6.1679,-6.1631,-6.1649,-6.1609,-6.1543,-6.1479,-6.1447,-6.1405,-6.1306,-6.1247,-6.1182,-6.1137,-6.107,-6.1,-6.1008,-6.0922,-6.0896,-6.1793,-6.237,-6.2832,-6.3785,-6.4409,-6.4773,-6.5006,-6.4742,-6.4316,0.0,0.0,0.0,0.0,0.0,0.0,0.0,0.0,0.0,0.0,0.0,0.0,0.0,0.0,-7.3588,-7.4554,0.0,-7.5797,-7.6767,-7.7657,-7.854,-7.9409,-7.9922,-8.0149,-8.013,-8.0539,-8.0939,-8.1252,-8.1679,-8.1878,-8.1852,-8.1613,-8.1401,-8.1151,-8.0795,-8.0448,-8.0177,-8.003,-7.9924,-7.9898,-7.9898,-7.9898,-7.9898,-7.9898,-7.9898,-7.9898,-7.9898,-8.0125,-8.0504,-8.0504,-8.0959,-8.1755,-8.1755,-8.1982,-8.2323,-8.1489,-8.1376,-8.1755,-8.1755,-8.2285,-8.3006,-5.0271,-5.0329,-5.0429,-5.0596,-5.0701,-5.0773,-5.0882,-5.0913,-5.0921,-5.0998,-5.1027,-5.1114,-5.1363,-5.2142,-5.3117,-5.4212,-5.6549,-5.8208,-5.8843,-5.9916,-6.0838,-6.1559,-6.1576,-6.159,-6.159,-6.1679,-6.1716,-6.1697,-6.1705,-6.1715,-6.1718,-6.1709,-6.1681,-6.1623,-6.1534,-6.1462,-6.1401,-6.1361,-6.1289,-6.1199,-6.1164,-6.107,-6.1051,-6.1214,-6.1197,-6.1189,-6.2024,-6.287,-6.3703,-6.4717,-6.5495,-6.6091,-6.6346,-6.5924,-6.5381,-6.5503,-6.5591,0.0,0.0,0.0,0.0,0.0,0.0,0.0,0.0,-7.1154,-7.2077,-7.3126,-7.4023,-7.488,-7.5611,-7.5832,-7.6378,-7.7975,-7.8384,-7.9065,-8.0578,-8.0935,-8.1052,-8.1052,-8.1065,-8.1318,-8.1941,-8.2022,-8.1999,-8.1999,-8.1757,-8.1541,-8.1424,-8.1,-8.0646,-8.0392,-8.0157,-8.0009,-7.9941,-7.9919,-7.9898,-7.9898,-7.9898,-7.9898,-7.9898,-8.0049,-8.0504,-8.111,-8.1452,-8.1982,-8.2627,-8.2816,-8.2892,-8.2892,-8.2892,-8.2892,-8.2854,-8.2702,-8.3157,-8.3839,-5.034,-5.0493,-5.0606,-5.0752,-5.0825,-5.088,-5.089,-5.0898,-5.0914,-5.0998,-5.105,-5.1402,-5.2246,-5.3117,-5.4316,-5.5957,-5.7784,-5.8851,-5.8915,-6.0461,-6.1417,-6.1495,-6.158,-6.1596,-6.1582,-6.1679,-6.1713,-6.1697,-6.1705,-6.171,-6.1712,-6.1717,-6.1702,-6.169,-6.163,-6.1568,-6.1473,-6.1415,-6.1361,-6.1289,-6.1289,-6.1191,-6.1186,-6.2006,-6.2171,-6.2044,-6.287,-6.3741,-6.4698,-6.5622,-6.6046,-6.6205,-6.6406,-6.6423,-6.6353,-6.6439,-6.6997,-6.7761,-6.8582,-6.9413,-7.0116,-7.0263,-6.9751,-6.9604,0.0,-7.2203,-7.3285,-7.4888,-7.5952,-7.6618,-7.6702,-7.6813,-7.7149,-7.8123,-7.8903,-7.9688,-8.0656,-8.1481,-8.1948,-8.1948,-8.1948,-8.1981,-8.2059,-8.2026,-8.2005,-8.2005,-8.1804,-8.1646,-8.1484,-8.1172,-8.0833,-8.0558,-8.0296,-8.0134,-7.9971,-7.9924,-7.9898,-7.9898,-7.9898,-7.9898,-7.9898,-8.0618,-8.0997,-8.1186,-8.2664,-8.3385,-8.3536,-8.4294,-8.4635,-8.4635,-8.4635,-8.4635,-8.4522,-8.3726,-8.3991,-8.4749,-5.0493,-5.0635,-5.0747,-5.0825,-5.0838,-5.0812,-5.0825,-5.0833,-5.0874,-5.0981,-5.1076,-5.127,-5.1731,-5.3018,-5.4164,-5.4866,-5.741,-5.8937,-5.8915,-6.0505,-6.1456,-6.1489,-6.156,-6.1615,-6.1619,-6.1677,-6.1717,-6.1705,-6.1708,-6.171,-6.1714,-6.1718,-6.1709,-6.1696,-6.1612,-6.1599,-6.1549,-6.1453,-6.1381,-6.1368,-6.1306,-6.1275,-6.132,-6.2236,-6.2796,-6.311,-6.3376,-6.372,0.0,-6.5151,-6.548,-6.5622,-6.632,-6.6555,-6.6672,-6.7264,-6.7999,-6.8948,-7.0317,-7.094,-7.1219,-7.1282,-7.1393,-7.1794,-7.299,-7.3957,-7.4931,-7.6125,-7.669,-7.6975,-7.6975,-7.7416,-7.8012,-7.887,-7.9727,-8.0545,-8.1442,-8.187,-8.2104,-8.2104,-8.2104,-8.2104,-8.2104,-8.2052,-8.2046,-8.2046,-8.192,-8.1757,-8.1677,-8.1337,-8.1069,-8.0817,-8.0578,-8.0315,-8.0134,-8.0009,-7.9924,-7.9898,-7.9898,-7.9898,-7.9936,-8.0731,-8.1641,-8.2627,-8.3839,-8.437,-8.437,-8.4749,-8.4901,-8.4901,-8.4901,-8.4901,-8.4863,-8.4484,-8.4597,-8.4901,-5.0537,-5.0692,-5.0764,-5.0821,-5.071,-5.0664,-5.0747,-5.0782,-5.085,-5.0974,-5.1076,-5.1247,-5.1603,-5.2987,-5.4004,-5.4195,-5.6874,-5.8637,-5.8859,-6.0242,-6.1187,-6.1468,-6.1534,-6.1595,-6.161,-6.1671,-6.1719,-6.1711,-6.1712,-6.1715,-6.1718,-6.1718,-6.1711,-6.1701,-6.1668,-6.163,-6.1586,-6.1512,-6.1447,-6.1394,-6.1373,-6.1366,-6.1483,-6.2578,-6.3208,-6.3502,-6.3583,-6.3797,-6.4068,-6.4545,-6.4721,-6.4924,-6.595,-6.6285,-6.6546,-6.794,-6.9099,-7.0164,-7.1209,-7.1627,-7.1856,-7.1897,-7.2511,-7.3347,-7.4194,-7.5051,-7.5947,-7.6804,-7.6999,-7.7077,-7.7311,-7.7857,-7.8636,-7.9688,-8.0383,-8.1091,-8.1987,-8.2104,-8.2104,-8.2104,-8.2104,-8.2104,-8.2104,-8.2104,-8.2104,-8.2104,-8.1975,-8.1887,-8.1833,-8.1546,-8.1283,-8.1084,-8.08,-8.056,-8.0296,-8.0116,-8.003,-7.9941,-7.9919,-7.9898,-7.9936,-8.0959,-8.2361,-8.3991,-8.4635,-8.4901,-8.4901,-8.4901,-8.4901,-8.4901,-8.4901,-8.4901,-8.4901,-8.4901,-8.4901,-8.4901,-5.0497,-5.0587,-5.0692,-5.0606,-5.0545,-5.0563,-5.0682,-5.0821,-5.0897,-5.0898,-5.1069,-5.1556,-5.2446,-5.3346,-5.4195,-5.4991,-5.6635,-5.8004,-5.8829,-5.9724,-6.0579,-6.1363,-6.151,-6.1584,-6.1582,-6.1668,-6.1718,-6.1716,-6.1718,-6.1719,-6.1719,-6.1714,-6.1709,-6.1708,-6.169,-6.1663,-6.1591,-6.1586,-6.1518,-6.1396,-6.1466,-6.1478,-6.1672,-6.3384,-6.3521,-6.2807,-6.346,-6.423,-6.4856,-6.4179,-6.398,-6.4175,-6.5124,-6.5445,-6.5933,-6.8495,-7.0449,-7.1668,-7.0832,-7.1265,-7.1889,-7.1889,-7.2535,-7.3407,-7.4238,-7.5051,-7.5947,-7.6804,-7.6999,-7.7272,-7.809,-7.8285,-7.8831,-8.05,-8.0773,-8.1091,-8.1987,-8.2104,-8.2104,-8.2104,-8.2104,-8.2104,-8.2104,-8.2104,-8.2104,-8.2104,-8.2036,-8.1967,-8.1887,-8.1685,-8.1502,-8.131,-8.1008,-8.0788,-8.0596,-8.0315,-8.0134,-7.9992,-7.9924,-7.9898,-7.9936,-8.1603,-8.3271,-8.4863,-8.4901,-8.4901,-8.4901,-8.4901,-8.4901,-8.4901,-8.4901,-8.4901,-8.4901,-8.4901,-8.4901,-8.4901,-5.0547,-5.0587,-5.0635,-5.0586,-5.0584,-5.0573,-5.0624,-5.0654,-5.0747,-5.0811,-5.1016,0.0,0.0,0.0,0.0,0.0,-5.6281,-5.7708,-5.8007,-5.9348,-6.0281,-6.0579,-6.1184,-6.1529,-6.1605,-6.1605,-6.1669,-6.1718,-6.1718,-6.1717,-6.1714,-6.1701,-6.1688,-6.1642,-6.1624,-6.1634,-6.1591,-6.1559,-6.1518,-6.1466,-6.1478,-6.1495,-6.1634,-6.2802,-6.3001,-6.2704,0.0,-6.3208,-6.3441,-6.3249,-6.3202,-6.3458,-6.5004,-6.548,-6.5979,-6.8565,-7.0126,-7.1105,-7.1402,-7.1698,-7.2028,-7.263,-7.3383,-7.4205,-7.5051,-7.5947,-7.6649,-7.696,-7.6999,-7.7077,-7.7389,-7.8363,-7.9298,-7.9844,-8.0896,-8.1753,-8.2065,-8.2104,-8.2104,-8.2104,-8.2104,-8.2104,-8.2104,-8.2104,0.0,-8.2104,-8.2036,-8.1983,-8.1967,-8.1786,-8.1624,-8.1502,-8.1267,-8.107,-8.0805,-8.0485,-8.0276,-8.0134,-7.9946,-8.0466,-8.1565,-8.2134,-8.3309,-8.4901,-8.4901,-8.4901,-8.4901,-8.4901,-8.4901,-8.4901,-8.4901,-8.4901,-8.4901,-8.4901,-8.4901,-8.4901,0.0,-5.0596,-5.0576,-5.0532,-5.0521,0.0,0.0,0.0,0.0,0.0,0.0,0.0,0.0,0.0,0.0,0.0,0.0,-5.6887,-5.7509,-5.859,-5.9335,-5.9704,-6.0254,-6.0594,-6.0629,-6.0672,-6.0707,-6.073,-6.104,-6.1192,-6.1223,-6.1512,-6.1651,-6.1602,-6.1584,-6.1547,-6.1539,-6.1473,-6.1277,-6.0968,-6.0999,-6.1034,-6.1144,-6.2001,-6.2274,0.0,-6.2517,-6.2424,-6.2228,-6.2264,-6.2535,-6.3072,-6.456,-6.5897,-6.7142,-6.8464,-6.9912,-7.1129,-7.1413,-7.1667,-7.2106,-7.2977,-7.3802,-7.4622,-7.5519,-7.6376,-7.6999,-7.6999,-7.6999,-7.7116,-7.7428,-7.8597,-7.961,-7.9916,-8.1169,-8.2104,-8.2104,-8.2104,-8.2104,-8.2104,-8.2104,-8.2104,-8.2104,-8.2104,-8.2104,-8.2104,-8.2036,-8.1991,-8.1991,-8.1815,-8.168,-8.1635,-8.144,-8.1234,-8.0984,-8.0681,-8.0373,-8.0134,-7.9946,-8.0618,-8.1944,-8.1944,-8.2854,-8.4446,-8.4446,-8.4597,-8.4901,-8.4901,-8.4901,-8.4901,-8.4901,-8.4901,-8.4901,-8.4901,-8.4901,-8.4901,0.0,0.0,-5.0532,0.0,0.0,0.0,0.0,0.0,0.0,0.0,0.0,0.0,0.0,0.0,0.0,0.0,0.0,0.0,-5.7254,-5.7521,-5.7923,-5.87,-5.8842,-5.8893,-5.888,-5.8952,-5.8991,-5.9006,-5.9811,-6.023,-6.0269,-6.1062,-6.1478,-6.1478,-6.1378,-6.1334,-6.1277,-6.1246,-6.0766,-5.9932,-6.0074,-6.0133,-6.0277,-6.1095,-6.1406,-6.1493,-6.2237,-6.1974,-6.1329,-6.1369,-6.2107,-6.3136,-6.4031,-6.6616,-6.9188,-6.8433,-6.9923,-7.1693,-7.0948,-7.1363,-7.2162,-7.3059,-7.388,-7.47,-7.5558,-7.6415,-7.6999,-7.6999,-7.6999,-7.7233,-7.809,-7.8909,-7.9727,-8.0539,-8.1442,-8.2026,-8.2026,-8.2065,-8.2104,-8.2104,-8.2104,-8.2104,-8.2104,-8.2104,-8.2104,-8.2104,0.0,-8.1991,-8.1991,-8.1815,-8.1691,-8.1691,-8.1516,-8.1294,-8.1113,-8.0849,-8.0485,-7.9992,-7.9924,-8.0315,-8.111,-8.111,-8.1982,-8.3536,-8.3574,-8.4067,-8.4863,-8.4901,-8.4901,-8.4901,-8.4901,-8.4901,-8.4901,-8.4901,-8.4901,-8.4901,0.0,0.0,0.0,0.0,0.0,0.0,0.0,0.0,0.0,0.0,0.0,0.0,0.0,0.0,0.0,0.0,0.0,0.0,-5.5546,-5.6795,-5.7631,-5.7884,-5.8487,-5.8835,-5.8893,-5.8934,-5.8936,-5.9014,-5.9201,-5.935,-5.9334,-5.9518,-5.9605,-5.9583,-5.9515,-5.9458,-5.9389,-5.9381,-5.9235,-5.8955,-5.9056,-5.9449,-6.0067,-6.03,-6.0755,-6.1242,-6.1387,-6.1319,-6.1242,-6.1281,-6.2458,-6.4134,-6.5649,-6.718,-6.8622,-6.9712,-7.0495,-7.1081,-7.1498,-7.2221,-7.3055,-7.3895,-7.4728,-7.5596,-7.6454,-7.6843,-7.6999,-7.6999,-7.6999,-7.7077,-7.7272,-7.8012,-7.8675,-7.8909,-8.0156,-8.113,-8.113,-8.1675,-8.2104,-8.2104,-8.2104,-8.2104,-8.2104,-8.2104,-8.2104,0.0,-8.2036,-8.1991,-8.1991,-8.1815,-8.1691,-8.1691,-8.1553,-8.1427,-8.1308,-8.0914,-8.0522,-8.0154,-8.0051,-8.0363,-8.111,-8.111,-8.1679,-8.2763,-8.3369,-8.3726,-8.3991,-8.4635,-8.4901,-8.4901,-8.4901,-8.4901,-8.4901,-8.4901,-8.4901,-8.4901,0.0,0.0,0.0,0.0,0.0,0.0,0.0,0.0,0.0,0.0,0.0,0.0,0.0,0.0,0.0,0.0,0.0,0.0,0.0,-5.6146,-5.695,-5.6971,-5.745,-5.7703,-5.7728,-5.772,-5.7748,-5.777,-5.8159,-5.8348,-5.8332,-5.8668,-5.8817,-5.8775,-5.8738,-5.8676,-5.8553,-5.8553,-5.8333,0.0,0.0,-5.859,-5.9343,-5.9367,-6.0085,-6.1118,-6.0992,-6.106,-6.132,-6.221,-6.3258,-6.457,-6.6709,-6.7966,-6.8942,-7.0309,-7.0967,-7.1312,-7.1771,-7.2526,-7.3393,-7.4197,-7.5073,-7.583,-7.6337,-7.6727,-7.6882,-7.6493,-7.6727,-7.6999,-7.6999,-7.7701,-7.8441,-7.8753,-7.9961,-8.0935,-8.1325,-8.1792,-8.2104,-8.2104,-8.2104,-8.2104,-8.2104,-8.2104,-8.2104,-8.2104,-8.2036,-8.1991,-8.1991,-8.1815,-8.1691,-8.1691,-8.1565,-8.144,-8.1267,-8.0898,-8.0558,-8.0334,-8.0096,-8.0216,-8.0629,-8.0602,-8.1035,-8.1831,0.0,-8.2702,-8.3119,-8.3991,-8.4332,-8.437,-8.4749,-8.4901,-8.4901,-8.4901,-8.4901,-8.4901,0.0,0.0,0.0,0.0,0.0,0.0,0.0,0.0,0.0,0.0,-5.0702,-5.071,-5.0764,-5.0846,0.0,0.0,0.0,0.0,0.0,0.0,-5.6068,-5.6192,-5.6265,-5.6265,-5.6192,-5.6265,-5.6265,-5.6192,-5.6968,-5.7324,-5.7324,-5.801,-5.8319,-5.8239,-5.8264,-5.8153,-5.8065,-5.8065,-5.76,-5.6942,-5.7052,-5.7648,-5.847,0.0,-5.96,-6.0972,-6.0931,-6.1003,-6.1469,-6.3346,-6.4169,-6.484,-6.7448,-6.8859,-6.9717,-7.0618,-7.1348,-7.1881,-7.1916,-7.2591,-7.3529,-7.4231,-7.5146,-7.583,-7.5713,-7.6376,-7.6765,-7.5869,-7.6376,-7.6999,-7.6999,-7.7701,-7.848,-7.9065,-8.0,-8.0896,-8.1636,-8.1831,-8.1948,-8.2104,-8.2104,-8.2104,-8.2104,-8.2104,-8.2104,-8.2104,-8.2036,-8.1991,-8.1991,-8.1815,-8.1691,-8.1669,-8.1565,-8.1362,-8.1128,-8.0898,-8.0664,-8.0505,-8.0197,-8.0013,-7.9992,-7.9924,-8.0277,-8.0959,0.0,0.0,-8.2285,-8.3081,-8.3422,-8.3536,-8.4408,-8.4749,-8.4749,-8.4863,-8.4901,-8.4901,0.0,0.0,0.0,0.0,0.0,0.0,0.0,0.0,0.0,0.0,-5.0712,-5.0702,0.0,0.0,0.0,0.0,0.0,0.0,0.0,0.0,0.0,-5.6187,-5.6194,-5.6194,-5.6187,-5.6194,-5.6194,-5.6187,-5.635,-5.6427,-5.642,-5.6458,-5.6455,-5.6446,-5.6395,-5.6319,-5.6231,-5.6231,-5.6123,-5.5955,-5.6038,-5.6955,-5.8343,-5.8394,0.0,0.0,-6.0899,-6.1002,-6.1414,-6.326,-6.4532,-6.5714,-6.8366,-6.9731,-7.0544,-7.1455,-7.1799,-7.1893,-7.1915,-7.3032,-7.4226,-7.4361,-7.5602,-7.661,-7.5869,-7.6376,-7.6765,-7.5869,-7.6376,-7.6999,-7.6999,-7.7701,-7.8129,-7.7545,-7.8714,-7.9766,-7.9922,-8.0584,-8.1286,-8.2026,-8.2104,-8.2104,-8.2104,-8.2104,-8.2104,0.0,-8.2036,-8.1991,-8.1991,-8.1815,-8.1646,-8.1541,-8.1516,-8.1453,-8.136,-8.1152,-8.0914,-8.0664,-8.0373,-8.0177,-7.9992,-7.9924,-7.9973,-8.0163,-8.0807,0.0,-8.1376,-8.2248,-8.2589,-8.2664,-8.3498,-8.3839,-8.3915,-8.4635,-8.4901,-8.4901,0.0,0.0,0.0,0.0,0.0,0.0,0.0,-5.0673,-5.0712,-5.0712,-5.0712,-5.0683,-5.0692,-5.072,-5.0803,0.0,0.0,0.0,0.0,0.0,0.0,-5.611,-5.6164,-5.6172,-5.6149,-5.6149,-5.6133,-5.6109,0.0,-5.6115,-5.6076,-5.6007,-5.5923,-5.5895,-5.5847,-5.5797,-5.5745,-5.5745,-5.5735,-5.5714,-5.5735,-5.6477,-5.7681,-5.8165,0.0,0.0,-6.0816,-6.0899,-6.1341,-6.3183,-6.4513,-6.5772,-6.8031,-6.96,-7.0688,-7.1086,-7.1542,-7.1989,-7.2447,-7.3485,-7.4522,-7.4979,-7.6064,-7.6649,-7.5324,-7.6064,-7.661,-7.5285,-7.6064,-7.6999,-7.6999,-7.7701,-7.8168,-7.774,-7.8714,-7.9649,-8.0111,-8.0539,-8.113,-8.1987,-8.2104,-8.2104,-8.2104,-8.2104,-8.2104,-8.2104,-8.2036,-8.1991,-8.1991,-8.1815,-8.1635,-8.1504,-8.1491,-8.1466,-8.14,-8.121,-8.1008,-8.0849,-8.0467,-8.0257,-8.0157,-7.9967,-7.9898,-7.9898,-8.0315,0.0,-8.0542,-8.1376,-8.1717,-8.1793,-8.2627,-8.299,-8.3006,-8.3422,-8.3839,-8.4218,0.0,0.0,0.0,0.0,0.0,0.0,-5.0553,-5.0663,-5.0712,-5.0712,-5.0712,-5.0683,-5.0682,-5.0692,-5.0729,0.0,0.0,0.0,0.0,0.0,0.0,0.0,0.0,0.0,-5.6076,0.0,0.0,-5.5977,-5.598,0.0,0.0,0.0,0.0,0.0,-5.5776,-5.5745,-5.5703,-5.5703,-5.5703,0.0,0.0,-5.6214,0.0,0.0,0.0,0.0,0.0,-6.0893,-6.1474,-6.311,-6.4496,-6.5842,-6.7511,-6.9103,-7.0399,-7.0754,-7.1243,-7.1848,-7.2901,-7.3782,-7.4622,-7.548,-7.6376,-7.6532,-7.4817,-7.5596,-7.6298,-7.4739,-7.5635,-7.6765,-7.696,-7.7701,-7.8246,-7.8051,-7.8714,-7.9532,-8.0383,-8.05,-8.0896,-8.1948,-8.2104,-8.2104,-8.2104,-8.2104,-8.2104,-8.2104,-8.2036,0.0,-8.1934,-8.1786,-8.1635,-8.1504,-8.1491,-8.1466,-8.1414,-8.1253,-8.1137,-8.1031,-8.0593,-8.0335,-8.0315,-8.0051,-7.9919,-7.9898,-7.9898,0.0,0.0,-8.058,-8.0845,-8.0921,-8.1793,-8.2096,-8.2134,-8.2323,-8.2778,-8.3347,0.0,0.0,0.0,0.0,0.0,0.0,-5.0511,-5.0604,-5.0712,-5.0712,-5.0712,-5.0712,-5.0712,-5.0712,-5.0701,0.0,0.0,0.0,0.0,0.0,0.0,0.0,0.0,0.0,0.0,0.0,0.0,-5.5914,-5.5905,0.0,0.0,0.0,0.0,0.0,0.0,-5.5714,-5.5703,-5.5703,0.0,0.0,0.0,0.0,0.0,0.0,0.0,0.0,0.0,-6.1146,-6.2071,-6.3134,-6.4763,-6.6493,-6.758,-6.8627,-6.9728,-7.1307,-7.1297,-7.1082,-7.2679,-7.3726,-7.4622,-7.548,-7.6376,-7.6532,-7.4817,-7.5129,-7.5558,-7.4583,-7.5168,-7.6064,-7.6843,-7.7701,-7.8051,-7.7233,-7.7857,-7.8675,-7.9493,-7.961,-8.0234,-8.1909,-8.2104,-8.2104,-8.2104,-8.2104,-8.2104,-8.2104,-8.2036,0.0,-8.1734,-8.1702,-8.1635,-8.1504,-8.1491,-8.1491,-8.1491,-8.1414,-8.1267,-8.1084,-8.0817,-8.054,-8.0277,-8.0075,-7.9967,-7.9898,-7.9898,0.0,0.0,-7.9973,-8.0011,-8.0087,-8.0883,-8.1224,-8.13,-8.2096,-8.2437,-8.2513,0.0,0.0,0.0,0.0,0.0,0.0,-5.05,-5.0604,-5.0712,-5.0712,-5.0712,-5.0712,-5.0712,-5.0683,-5.0712,-5.0692,-5.072,0.0,0.0,0.0,0.0,0.0,0.0,0.0,0.0,0.0,-5.5895,-5.5895,-5.5875,0.0,0.0,0.0,0.0,0.0,0.0,-5.5703,-5.5703,-5.5703,0.0,0.0,0.0,0.0,0.0,0.0,0.0,0.0,0.0,0.0,-6.2091,-6.3102,-6.4426,-6.5887,-6.7384,-6.8131,-6.8855,-7.0624,-7.0853,-7.1076,-7.3297,-7.4155,-7.4739,-7.6142,-7.6727,-7.6532,-7.4817,-7.5051,-7.5441,-7.4583,-7.509,-7.5986,-7.6843,-7.7701,-7.8012,-7.7155,-7.774,-7.8597,-7.9376,-7.9493,-8.0156,-8.187,-8.2104,-8.2104,-8.2104,0.0,-8.2098,-8.2033,0.0,0.0,-8.1767,-8.1734,-8.1658,-8.1565,-8.1516,-8.1491,-8.1491,-8.1427,-8.136,-8.1267,-8.0984,-8.0681,-8.0486,-8.0217,-8.003,-7.9898,-7.9898,0.0,0.0,-7.9898,-7.9898,-7.9936,-8.0239,-8.039,-8.0428,-8.0769,-8.1186,-8.1603,0.0,0.0,0.0,0.0,0.0,-5.05,-5.05,-5.0604,-5.0712,-5.0712,-5.0712,-5.0712,-5.0712,-5.0712,-5.0683,-5.0712,-5.0721,0.0,0.0,0.0,0.0,0.0,0.0,0.0,0.0,0.0,-5.5855,-5.5855,-5.5787,-5.5766,0.0,0.0,-5.5703,-5.5703,0.0,0.0,0.0,0.0,0.0,0.0,0.0,0.0,0.0,0.0,0.0,0.0,0.0,0.0,0.0,0.0,0.0,-6.5746,-6.7308,-6.7878,-6.8349,-7.0102,-7.0609,-7.1154,-7.3726,-7.4388,-7.4817,-7.6571,-7.6804,-7.622,-7.4739,-7.4661,-7.4778,-7.4155,-7.47,-7.5596,-7.6454,-7.735,-7.7701,-7.7116,-7.774,-7.8597,-7.9376,-7.9727,-8.035,-8.1558,-8.1948,-8.1987,-8.1753,-8.1948,-8.2052,0.0,0.0,0.0,-8.1842,-8.1765,-8.1669,-8.1612,-8.1541,-8.1491,-8.1491,-8.1453,-8.1414,-8.1387,-8.1092,-8.0855,-8.0611,-8.0354,-8.0134,-7.9903,0.0,0.0,0.0,-7.9898,-7.9898,-7.9898,-7.9898,-7.9898,-7.9898,-7.9898,-8.0239,-8.0731,0.0,0.0,0.0,0.0,0.0,-5.05,-5.05,-5.0604,-5.0712,-5.0712,-5.0712,-5.0712,-5.0712,-5.0712,-5.0712,-5.0712,-5.0712,0.0,0.0,0.0,0.0,0.0,0.0,0.0,-5.5665,-5.5703,-5.5703,-5.5703,-5.5703,-5.5703,-5.5703,-5.5703,-5.5703,-5.5703,0.0,0.0,0.0,0.0,0.0,0.0,0.0,0.0,0.0,0.0,0.0,0.0,0.0,0.0,0.0,0.0,0.0,0.0,0.0,-6.7898,-6.8349,-7.0102,-7.0609,-7.1154,-7.3726,-7.4388,-7.4817,-7.6571,-7.6337,-7.548,-7.4583,-7.3726,-7.3103,-7.3103,-7.3804,-7.4661,-7.5558,-7.6415,-7.6999,-7.6999,-7.774,-7.8597,-7.9376,-8.0227,-8.0773,-8.0812,-8.1558,-8.1753,-8.0896,-8.1597,-8.2052,0.0,0.0,0.0,0.0,-8.1786,-8.1669,-8.1612,-8.1541,-8.1491,-8.1491,-8.1491,-8.1466,-8.14,-8.121,-8.0962,-8.0698,-8.0411,-8.0197,0.0,0.0,0.0,0.0,-7.9898,-7.9898,-7.9898,-7.9898,-7.9898,-7.9898,-7.9898,-7.9898,-7.9898,0.0,0.0,0.0,0.0,0.0,0.0,-5.0423,-5.0604,-5.0712,-5.0712,-5.0712,-5.0712,-5.0712,-5.0712,-5.0712,-5.0712,-5.0712,0.0,0.0,0.0,0.0,0.0,0.0,0.0,-5.5665,-5.5703,-5.5703,-5.5703,-5.5703,-5.5703,-5.5703,-5.5703,-5.5703,-5.5703,-5.5703,-5.5703,0.0,0.0,0.0,0.0,0.0,0.0,0.0,0.0,0.0,0.0,0.0,0.0,0.0,0.0,0.0,0.0,0.0,0.0,0.0,-6.9562,-7.0146,-7.1037,-7.2986,-7.3492,-7.3921,-7.5674,-7.548,-7.4739,-7.4466,-7.3726,-7.3103,-7.3103,-7.3804,-7.4661,-7.5558,-7.6415,-7.7194,-7.7779,-7.8129,-7.8792,-8.0188,-8.0617,-8.0812,-8.0812,-8.1052,-8.1325,0.0,0.0,0.0,0.0,0.0,0.0,0.0,-8.1835,-8.1723,-8.1669,-8.1565,-8.1491,-8.1491,-8.1491,-8.1491,-8.1466,-8.1319,-8.1092,-8.0762,-8.056,0.0,0.0,0.0,0.0,0.0,-7.9898,-7.9898,-7.9898,-7.9898,-7.9898,-7.9898,-7.9898,-7.9898,-7.9898,0.0,0.0,0.0,0.0,0.0,0.0,-4.9935,-5.0412,-5.0712,-5.0712,-5.0712,-5.0712,-5.0712,-5.0712,-5.0712,-5.0712,-5.0712,0.0,0.0,0.0,0.0,0.0,0.0,0.0,-5.5241,-5.5549,-5.5703,-5.5703,-5.5703,-5.5703,-5.5703,-5.5703,-5.5703,-5.5703,-5.5703,-5.5703,0.0,0.0,0.0,0.0,0.0,0.0,-5.8233,0.0,0.0,0.0,0.0,0.0,0.0,0.0,0.0,0.0,0.0,0.0,0.0,0.0,-7.0146,-7.1349,-7.2713,-7.3103,-7.3453,-7.4856,-7.4544,-7.3921,-7.3921,-7.3258,-7.2596,-7.2596,-7.357,-7.4583,-7.5129,-7.6181,-7.7194,-7.774,-7.8324,-7.9104,-8.0149,-8.0896,-8.1286,-8.1286,-8.0701,0.0,0.0,0.0,0.0,0.0,0.0,0.0,0.0,-8.1881,-8.1775,-8.1702,-8.16,-8.1528,-8.1491,-8.1491,-8.1491,-8.1491,-8.136,-8.1137,-8.0882,-8.0614,0.0,0.0,0.0,0.0,0.0,-7.9898,-7.9898,-7.9898,-7.9898,-7.9898,-7.9898,-7.9898,-7.9898,-7.9898,0.0,0.0,0.0,0.0,0.0,0.0,0.0,-5.0066,-5.0712,-5.0712,-5.0712,-5.0712,-5.0712,-5.0712,-5.0712,-5.0712,-5.0712,0.0,0.0,0.0,0.0,0.0,0.0,-5.3626,-5.4472,-5.528,-5.5703,-5.5703,-5.5703,-5.5703,-5.5703,-5.5703,-5.5703,-5.5703,-5.5703,-5.5703,-5.5703,-5.5703,-5.5742,-5.5923,-5.7547,-5.8179,0.0,0.0,0.0,0.0,0.0,0.0,0.0,0.0,0.0,0.0,0.0,0.0,0.0,0.0,0.0,0.0,0.0,-7.3025,-7.3219,-7.4077,-7.3648,-7.3025,-7.3103,-7.244,0.0,-7.1817,-7.3181,-7.4388,-7.4388,-7.583,-7.7038,-7.7077,-7.8441,-7.9532,-7.9571,-8.0974,-8.2026,0.0,-8.0623,0.0,-8.1948,0.0,0.0,0.0,0.0,0.0,0.0,-8.1869,-8.1776,-8.1702,-8.1646,-8.1577,-8.1504,-8.1491,-8.1491,-8.1491,-8.136,-8.1205,-8.1,-8.065,0.0,0.0,0.0,0.0,0.0,-7.9898,-7.9898,-7.9898,-7.9898,-7.9898,-7.9898,-7.9898,-7.9898,-7.9898,0.0,0.0,0.0,0.0,0.0,0.0,0.0,0.0,0.0,0.0,-5.0712,-5.0712,-5.0712,-5.0712,-5.0712,0.0,0.0,0.0,0.0,0.0,0.0,0.0,-5.2731,-5.3626,-5.4472,-5.528,-5.5703,-5.5703,-5.5703,-5.5703,-5.5703,-5.5703,-5.5703,-5.5703,-5.5703,-5.5703,-5.5703,-5.5703,-5.6066,-5.6702,-5.7719,-5.8451,0.0,0.0,0.0,0.0,-6.2122,-6.2897,0.0,0.0,0.0,0.0,0.0,0.0,0.0,0.0,-7.0492,-7.1856,-7.205,0.0,-7.2323,-7.3181,-7.2752,-7.2284,0.0,-7.244,-7.1817,-7.1817,-7.3181,-7.4388,-7.4388,-7.583,-7.7233,-7.7896,-7.8831,-7.9727,-8.0383,-8.0857,-8.1364,-8.2026,-8.1169,-8.0935,0.0,0.0,0.0,0.0,0.0,0.0,0.0,-8.1943,-8.1805,-8.1702,-8.168,-8.1624,-8.1504,-8.1491,-8.1491,-8.1491,-8.136,-8.1205,-8.1,-8.065,0.0,0.0,0.0,0.0,-7.9898,-7.9898,-7.9898,-7.9898,-7.9898,-7.9898,-7.9898,-7.9898,-7.9898,-7.9898,0.0,0.0,0.0,0.0,0.0,0.0,0.0,0.0,0.0,0.0,-5.0712,-5.0712,-5.0712,-5.0712,-5.0712,0.0,0.0,0.0,0.0,0.0,0.0,-5.1318,-5.2549,-5.3433,-5.3895,-5.5088,-5.5703,-5.5703,-5.5703,-5.5703,-5.5703,-5.5703,-5.5703,-5.5703,-5.5703,-5.5703,-5.5703,-5.5703,-5.617,-5.6986,-5.7772,0.0,0.0,0.0,0.0,0.0,-6.2536,-6.3412,0.0,-6.5577,-6.6235,-6.6446,0.0,0.0,0.0,0.0,-7.0492,-7.1817,-7.1817,-7.1817,-7.1895,-7.2401,-7.2167,-7.1934,-7.2401,-7.2128,-7.1817,-7.1817,-7.2869,-7.3804,-7.3804,-7.5246,-7.6571,-7.7038,-7.8129,-7.9376,-8.0617,-8.0461,-8.0545,-8.1403,-8.074,0.0,0.0,0.0,0.0,0.0,0.0,0.0,0.0,-8.1967,-8.1881,-8.1702,-8.1691,-8.1635,-8.1504,-8.1491,-8.1491,-8.1491,-8.136,-8.1205,-8.1,-8.065,-8.0392,0.0,0.0,0.0,-7.9898,-7.9898,-7.9898,-7.9898,-7.9898,-7.9898,-7.9898,-7.9898,-7.9898,-7.9898,0.0,0.0,0.0,0.0,0.0,0.0,0.0,0.0,0.0,0.0,0.0,0.0,0.0,0.0,0.0,0.0,0.0,0.0,0.0,0.0,-5.0712,-5.0712,-5.2318,-5.3203,-5.3203,-5.4857,-5.5703,-5.5703,-5.5703,-5.5703,-5.5703,-5.5703,-5.5703,-5.5703,-5.5703,-5.5703,-5.5703,-5.5808,-5.634,-5.7167,-5.7951,0.0,0.0,0.0,0.0,0.0,0.0,0.0,0.0,-6.5842,-6.6311,-6.6531,-6.6535,0.0,0.0,0.0,0.0,0.0,-7.1817,-7.1817,-7.1817,-7.1817,-7.1817,-7.1817,-7.1817,-7.1817,-7.1817,-7.1817,-7.2479,-7.3103,-7.3103,-7.4505,-7.5713,-7.5713,-7.7272,-7.9065,-8.0779,-8.035,-8.0156,-8.0896,-8.035,0.0,0.0,0.0,0.0,0.0,0.0,0.0,0.0,-8.1967,-8.1881,-8.1691,-8.1669,-8.1612,-8.1478,-8.1491,-8.1491,-8.1478,-8.1347,-8.1137,-8.093,-8.0614,-8.0373,0.0,0.0,0.0,-7.9898,-7.9898,-7.9898,-7.9898,-7.9898,-7.9898,-7.9898,-7.9898,-7.9898,-7.9898,0.0,0.0,0.0,0.0,0.0,0.0,0.0,0.0,0.0,0.0,0.0,0.0,0.0,0.0,0.0,0.0,0.0,0.0,0.0,-5.0712,-5.0712,-5.0712,-5.2318,-5.3203,-5.3203,-5.4857,-5.5703,-5.5703,-5.5703,-5.5703,-5.5703,-5.5703,-5.5703,-5.5703,-5.5703,-5.5703,-5.5742,-5.6417,-5.7167,-5.7977,-5.8719,0.0,0.0,0.0,0.0,0.0,0.0,0.0,0.0,-6.601,-6.6462,-6.6575,-6.6645,0.0,0.0,0.0,0.0,0.0,-7.1817,-7.1817,-7.1817,-7.1817,-7.1817,-7.1817,-7.1817,-7.1817,-7.1817,-7.1817,-7.2479,-7.3103,-7.3103,-7.4505,-7.5713,-7.5713,-7.774,-7.9922,0.0,0.0,-8.1753,-8.187,0.0,0.0,0.0,0.0,0.0,0.0,0.0,0.0,0.0,-8.1796,-8.1716,-8.1624,-8.1565,-8.1491,-8.1414,-8.1466,-8.1466,-8.1414,-8.1224,-8.0993,-8.075,-8.0448,-8.0217,0.0,0.0,-7.9898,-7.9898,-7.9898,-7.9898,-7.9898,-7.9898,-7.9898,-7.9898,-7.9898,-7.9898,-7.9898,0.0,0.0,0.0,0.0,0.0,0.0,0.0,0.0,0.0,0.0,0.0,0.0,0.0,0.0,0.0,0.0,0.0,0.0,-5.0712,-5.0712,-5.0712,-5.0712,-5.2318,-5.3203,-5.3203,-5.4857,-5.5703,-5.5703,-5.5703,-5.5703,-5.5703,-5.5703,-5.5703,-5.5703,-5.5703,-5.5951,-5.6379,-5.6729,-5.758,-5.8719,0.0,0.0,0.0,0.0,0.0,0.0,0.0,0.0,0.0,0.0,-6.6542,-6.6729,-6.7214,0.0,0.0,0.0,0.0,0.0,-7.1817,-7.1817,-7.1817,-7.1817,-7.1817,-7.1817,-7.1817,-7.1817,-7.1817,-7.1817,-7.2128,-7.2401,-7.2401,-7.3804,-7.5324,-7.6259,-7.7779,-7.9298,-8.0506,-8.1091,-8.1403,0.0,0.0,0.0,0.0,0.0,0.0,0.0,0.0,0.0,0.0,0.0,-8.1558,-8.1504,-8.1388,-8.1308,-8.1239,-8.1157,-8.1157,-8.1239,-8.1077,-8.0849,-8.0629,-8.0373,-8.0157,-7.9992,0.0,-7.9898,-7.9898,-7.9898,-7.9898,-7.9898,-7.9898,-7.9898,-7.9898,-7.9898,-7.9898,-7.9898,0.0,0.0,0.0,0.0,0.0,0.0,0.0,0.0,0.0,0.0,0.0,0.0,0.0,0.0,0.0,0.0,0.0,-5.0712,-5.0712,-5.0712,-5.0789,-5.0971,-5.2395,-5.3203,-5.3203,-5.4857,-5.5703,-5.5703,-5.5703,-5.5703,-5.5703,-5.5703,-5.5703,-5.5703,-5.5885,-5.6302,-5.691,-5.7297,-5.8106,-5.9203,0.0,0.0,0.0,0.0,0.0,0.0,0.0,0.0,0.0,0.0,0.0,0.0,0.0,0.0,0.0,-7.0341,-7.1154,-7.1817,-7.1817,-7.1817,-7.1817,-7.1817,-7.1817,-7.1817,-7.1817,-7.1817,-7.1817,-7.1817,-7.1817,-7.1817,-7.1817,-7.3219,-7.4973,-7.6727,-7.774,-7.8636,-7.9649,-8.0383,0.0,0.0,0.0,0.0,0.0,0.0,0.0,0.0,0.0,0.0,0.0,0.0,-8.1298,-8.1253,-8.1128,-8.1039,-8.0977,-8.0795,-8.0811,-8.1008,-8.0833,-8.0702,-8.0505,-8.0237,-8.0093,-7.995,-7.9903,-7.9898,-7.9898,-7.9898,-7.9898,-7.9898,-7.9898,-7.9898,-7.9898,-7.9898,-7.9898,-7.9898,0.0,0.0,0.0,0.0,0.0,0.0,0.0,0.0,0.0,0.0,0.0,0.0,0.0,0.0,0.0,0.0,-5.0712,-5.0712,-5.0712,-5.0712,-5.101,-5.1769,-5.2702,-5.3203,-5.3203,-5.4857,-5.5703,-5.5703,-5.5703,-5.5703,-5.5703,-5.5703,-5.5703,-5.5742,-5.6483,-5.6844,-5.6975,-5.8426,-5.9102,-5.928,-6.0097,0.0,0.0,0.0,0.0,0.0,0.0,0.0,0.0,0.0,0.0,0.0,0.0,0.0,-6.9484,-7.0341,-7.1154,-7.1817,-7.1817,-7.1817,-7.1817,-7.1817,-7.1817,-7.1817,-7.1817,-7.1817,-7.1817,-7.1817,-7.1817,-7.1817,-7.1817,-7.3219,-7.4973,-7.6727,-7.774,-7.887,-8.0461,0.0,0.0,0.0,0.0,0.0,0.0,0.0,0.0,0.0,0.0,0.0,0.0,0.0,0.0,-8.0844,-8.0716,-8.0629,-8.065,-8.056,-8.0596,-8.0733,-8.0519,-8.0354,-8.0235,-8.0075,-7.9988,-7.9919,-7.9898,-7.9898,-7.9898,-7.9898,-7.9898,-7.9898,-7.9898,-7.9898,-7.9898,-7.9898,-7.9898,-7.9898,0.0,0.0,0.0,0.0,0.0,0.0,0.0,0.0,0.0,0.0,0.0,0.0,0.0,0.0,0.0,0.0,-5.0712,-5.0712,-5.0712,-5.0712,-5.1048,-5.1846,-5.2731,-5.3433,-5.401,-5.5126,-5.5703,-5.5703,-5.5703,-5.5703,-5.5703,-5.5703,-5.5703,-5.5742,-5.656,-5.7155,-5.7733,-5.8796,-5.9549,-6.002,-6.047,-6.0635,0.0,0.0,0.0,0.0,0.0,0.0,0.0,0.0,-6.6702,-6.6946,-6.8349,-6.9011,-6.9562,-7.092,-7.1544,-7.1817,-7.1817,-7.1817,-7.1817,-7.1817,-7.1817,-7.1934,-7.2479,-7.2596,-7.2752,-7.3297,-7.2986,-7.2596,-7.2596,-7.357,-7.4778,-7.5986,-7.7389,-7.8519,0.0,0.0,0.0,0.0,0.0,0.0,0.0,0.0,0.0,0.0,0.0,0.0,0.0,0.0,0.0,-8.0681,-8.0596,-8.0486,-8.0392,-8.0257,-8.0217,-8.0258,-8.0276,-8.0197,-8.0055,-7.9988,-7.9903,-7.9898,-7.9898,-7.9898,-7.9898,-7.9898,-7.9898,-7.9898,-7.9898,-7.9898,-7.9898,-7.9898,-7.9898,-7.9898,0.0,0.0,0.0,0.0,0.0,0.0,0.0,0.0,0.0,0.0,0.0,0.0,0.0,0.0,0.0,0.0,-5.0702,-5.0712,-5.0712,-5.0933,-5.1433,-5.2269,-5.3164,-5.401,-5.4857,-5.5434,-5.5703,-5.5703,-5.5703,-5.5703,-5.5703,-5.5703,-5.5846,-5.6094,-5.691,-5.7745,-5.8552,-5.9345,-6.0035,-6.0559,-6.0695,-6.0943,0.0,0.0,0.0,0.0,0.0,0.0,0.0,0.0,-6.6712,-6.6985,-6.8738,-6.9289,-6.964,-7.131,-7.1817,-7.1817,-7.1817,-7.1817,-7.1817,-7.1817,-7.1817,-7.2089,-7.3258,-7.3297,-7.3336,-7.4233,-7.3921,-7.3414,-7.3142,-7.3804,-7.47,0.0,-7.6688,0.0,0.0,0.0,0.0,0.0,0.0,0.0,0.0,0.0,0.0,0.0,0.0,0.0,0.0,0.0,0.0,0.0,-8.0373,-8.0276,-8.0177,-8.0051,-7.9988,-7.9988,-8.0051,-8.0051,-7.9967,-7.9903,-7.9898,-7.9898,-7.9898,-7.9898,-7.9898,-7.9898,-7.9898,-7.9898,-7.9898,-7.9898,-7.9898,-7.9898,-7.9898,-7.9898,0.0,0.0,0.0,0.0,0.0,0.0,0.0,0.0,-5.0424,-5.0489,-5.05,0.0,0.0,0.0,0.0,0.0,-5.0673,-5.0712,-5.0712,-5.1471,-5.2269,-5.3164,-5.4049,-5.4895,-5.5665,-5.5703,-5.5703,-5.5703,-5.5703,-5.5703,-5.5703,-5.5703,-5.6132,-5.6948,-5.7733,-5.8552,-5.9345,-6.024,-6.0622,-6.0716,-6.0839,-6.1466,-6.2413,0.0,0.0,0.0,0.0,0.0,0.0,0.0,-6.6712,-6.7024,-6.8738,-6.9328,-6.964,-7.131,-7.1817,-7.1817,-7.1817,-7.1817,-7.1817,-7.1817,-7.1817,-7.2245,-7.3999,-7.3726,-7.3375,-7.4233,-7.4427,-7.4155,-7.3258,-7.3804,-7.47,-7.5558,-7.5713,0.0,0.0,0.0,0.0,0.0,0.0,0.0,0.0,0.0,0.0,0.0,0.0,0.0,0.0,0.0,0.0,0.0,-8.0055,-7.9988,-7.9898,-7.9898,-7.9898,-7.9898,-7.9898,-7.9898,-7.9898,-7.9898,-7.9898,-7.9898,-7.9898,-7.9898,-7.9898,-7.9898,-7.9898,-7.9898,-7.9898,-7.9898,-7.9898,-7.9898,-7.9898,-7.9898,0.0,0.0,0.0,0.0,0.0,0.0,0.0,0.0,-5.0412,-5.0435,-5.0478,0.0,0.0,0.0,0.0,0.0,0.0,0.0,-5.146,-5.1749,-5.2538,-5.4049,-5.4357,-5.4895,-5.5665,-5.5703,-5.5703,-5.5703,-5.5703,-5.5724,-5.5766,-5.6382,-5.6795,-5.711,-5.8523,-5.9258,-5.9492,-6.0431,-6.0867,-6.098,-6.1717,-6.2211,-6.268,0.0,0.0,0.0,0.0,0.0,0.0,0.0,0.0,0.0,-6.8933,-6.9718,-7.0414,-7.1505,-7.1817,-7.1817,-7.1817,-7.1817,-7.1817,-7.1817,-7.1817,-7.2245,-7.3999,-7.4194,-7.4272,-7.5129,-7.5324,-7.5051,-7.4194,-7.4739,-7.5402,-7.5674,0.0,0.0,0.0,0.0,0.0,0.0,0.0,0.0,0.0,0.0,0.0,0.0,0.0,0.0,0.0,0.0,0.0,0.0,-8.0175,-8.0051,-7.9898,-7.9898,-7.9898,-7.9898,-7.9898,-7.9898,-7.9898,-7.9898,-7.9898,-7.9898,-7.9898,-7.9898,-7.9898,-7.9898,-7.9898,-7.9898,-7.9898,-7.9898,-7.9898,-7.9898,-7.9898,-7.9898,0.0,0.0,0.0,0.0,0.0,0.0,0.0,0.0,-5.0367,-5.0367,-5.0412,-5.0435,0.0,0.0,0.0,0.0,0.0,0.0,-5.1806,-5.251,-5.3387,-5.4465,-5.4821,-5.5235,-5.5703,-5.5703,-5.5714,-5.5745,-5.5745,-5.5766,-5.5865,-5.6734,-5.7302,-5.7667,-5.9037,-5.9787,-6.0102,-6.074,-6.1215,-6.1676,-6.2307,-6.3019,-6.3826,0.0,0.0,0.0,0.0,0.0,0.0,0.0,0.0,0.0,-6.9011,-6.9913,-7.0765,-7.1544,-7.1817,-7.1817,-7.1817,-7.1817,-7.1817,-7.1817,-7.1817,-7.2245,-7.3999,-7.4934,-7.548,-7.5674,-7.5986,-7.5947,-7.509,-7.5363,0.0,0.0,0.0,0.0,0.0,0.0,0.0,0.0,0.0,0.0,0.0,0.0,0.0,0.0,0.0,0.0,0.0,0.0,0.0,0.0,-8.0215,-8.0113,-7.9924,-7.9919,-7.9898,-7.9898,-7.9898,-7.9898,-7.9898,-7.9898,-7.9898,-7.9898,-7.9898,-7.9898,-7.9898,-7.9898,-7.9898,-7.9898,-7.9898,-7.9898,-7.9898,-7.9898,-7.9898,-7.9898,0.0,0.0,-4.8181,-4.8945,0.0,0.0,0.0,0.0,-5.0283,-5.0283,-5.0283,-5.0283,0.0,0.0,0.0,0.0,0.0,0.0,-5.2135,-5.3609,-5.4525,-5.4612,-5.5373,-5.5766,-5.5714,-5.5714,-5.5745,-5.5797,-5.5797,-5.5875,-5.6049,-5.6916,-5.7757,-5.8558,-5.9466,-6.0278,-6.0933,-6.1086,-6.1693,-6.2633,-6.2782,-6.3857,-6.5389,-6.5506,0.0,0.0,0.0,0.0,0.0,0.0,0.0,0.0,-6.9128,-7.0029,-7.0842,-7.1583,-7.1817,-7.1817,-7.1817,-7.1817,-7.1817,-7.1817,-7.1934,-7.244,-7.4038,-7.5752,-7.6765,-7.5986,-7.6454,-7.6765,-7.5947,-7.583,-7.6064,0.0,0.0,0.0,0.0,0.0,0.0,0.0,0.0,0.0,0.0,0.0,0.0,0.0,0.0,0.0,0.0,0.0,0.0,0.0,-8.0217,-8.0154,-7.9992,-7.9924,-7.9898,0.0,-7.9898,-7.9898,-7.9898,-7.9898,-7.9898,-7.9898,-7.9898,-7.9898,-7.9898,-7.9898,-7.9898,-7.9898,-7.9898,-7.9898,-7.9898,-7.9898,-7.9898,-7.9898,0.0,0.0,-4.8869,-4.9071,0.0,0.0,0.0,0.0,0.0,-5.0283,-5.0283,0.0,0.0,0.0,0.0,0.0,0.0,0.0,0.0,-5.4323,-5.4872,-5.5557,-5.5721,-5.5787,-5.5776,-5.5776,-5.5807,-5.5895,-5.5895,-5.627,-5.7013,-5.7946,-5.8831,-5.9708,-6.0608,-6.1105,-6.122,-6.1313,-6.1881,-6.2815,-6.3519,-6.4454,-6.5455,-6.6156,-6.6551,0.0,0.0,0.0,0.0,0.0,0.0,0.0,-7.0063,-7.0881,-7.1583,-7.1739,-7.1817,-7.1817,-7.1817,-7.1817,-7.1817,-7.1817,-7.283,-7.3921,-7.4311,-7.5752,-7.696,-7.6765,-7.6882,-7.696,-7.6765,-7.6727,0.0,0.0,0.0,0.0,0.0,0.0,0.0,0.0,0.0,0.0,0.0,0.0,0.0,0.0,0.0,0.0,0.0,0.0,0.0,-7.9381,-7.9912,-8.0154,-7.9992,-7.9924,-7.9898,0.0,-7.9898,-7.9898,-7.9898,-7.9898,-7.9898,-7.9898,-7.9898,-7.9898,-7.9898,-7.9898,-7.9898,-7.9898,-7.9898,-7.9898,-7.9898,-7.9898,-7.9898,-7.9898,0.0,0.0,0.0,0.0,0.0,0.0,0.0,0.0,0.0,0.0,0.0,0.0,0.0,0.0,0.0,0.0,-5.2553,0.0,0.0,-5.5061,-5.5522,-5.5965,-5.5913,-5.5866,-5.5866,-5.5866,-5.5885,-5.5941,-5.6437,-5.693,-5.7428,-5.8746,-5.9597,-6.0099,-6.1033,-6.1415,-6.1381,-6.1842,-6.2585,-6.3498,-6.4382,-6.5255,-6.6088,-6.6517,-6.6712,-6.6712,-6.6712,0.0,0.0,0.0,0.0,0.0,0.0,0.0,-7.1817,-7.1817,-7.1817,-7.1817,-7.1817,-7.1817,-7.1817,-7.1817,-7.2791,-7.3882,-7.4311,-7.5441,-7.6493,-7.6921,-7.6999,-7.6999,-7.6999,-7.6999,0.0,0.0,0.0,0.0,0.0,0.0,0.0,0.0,0.0,0.0,0.0,0.0,0.0,0.0,0.0,0.0,0.0,-7.7793,-7.8195,-7.856,-7.9305,-7.9606,-7.9467,-7.9782,-7.9924,-7.9898,-7.9898,-7.9898,-7.9898,-7.9898,-7.9898,-7.9898,-7.9898,-7.9898,-7.9898,-7.9898,-7.9898,-7.9898,-7.9898,-7.9898,-7.9898,-7.9898,-7.9898,-7.9898,0.0,0.0,0.0,0.0,0.0,0.0,0.0,0.0,0.0,0.0,0.0,0.0,0.0,0.0,-5.2,0.0,0.0,0.0,0.0,0.0,0.0,-5.611,-5.5982,-5.5929,-5.5929,-5.5929,-5.6025,-5.6278,-5.7249,-5.7818,-5.7994,-5.9458,-6.0223,-6.0371,-6.1178,-6.1562,-6.1699,-6.2491,-6.3408,-6.4382,-6.5104,-6.5933,-6.6712,-6.6712,-6.6712,-6.6712,-6.6712,-6.679,-6.7063,-6.792,0.0,0.0,0.0,0.0,-7.1817,-7.1817,-7.1817,-7.1817,-7.1817,-7.1817,-7.1817,-7.1817,-7.244,-7.3336,-7.4194,-7.5051,-7.5947,-7.6804,-7.6999,-7.6999,-7.6999,0.0,0.0,0.0,0.0,0.0,0.0,0.0,0.0,0.0,0.0,0.0,0.0,0.0,0.0,0.0,0.0,0.0,-7.6456,-7.6609,-7.7029,-7.7755,-7.8503,-7.8904,-7.8941,-7.9523,-7.9836,-7.9941,-7.9919,-7.9898,-7.9898,-7.9898,-7.9898,-7.9898,-7.9898,-7.9898,-7.9898,-7.9898,-7.9898,-7.9898,-7.9898,-7.9898,-7.9898,-7.9898,-7.9898,-7.9898,0.0,0.0,0.0,0.0,0.0,0.0,0.0,0.0,0.0,0.0,-5.0971,-5.1441,0.0,0.0,0.0,-5.4051,-5.4446,-5.5048,-5.5938,0.0,0.0,-5.6194,-5.6117,-5.6079,-5.6079,-5.6078,-5.649,-5.7303,-5.8175,-5.9056,-5.9916,-6.015,-6.0672,-6.1398,-6.152,-6.1987,-6.2723,-6.2844,-6.3784,-6.5226,-6.5343,-6.5933,-6.6712,-6.6712,-6.6712,-6.6712,-6.6712,-6.7174,-6.7959,-6.8816,-6.9712,0.0,0.0,0.0,-7.1817,-7.1817,-7.1817,-7.1817,-7.1817,-7.1817,-7.1817,-7.1817,-7.244,-7.3336,-7.4194,-7.5051,-7.5947,-7.6804,-7.6999,-7.6999,0.0,0.0,0.0,0.0,0.0,0.0,0.0,0.0,0.0,0.0,0.0,0.0,0.0,0.0,0.0,0.0,0.0,0.0,-7.5653,-7.6303,-7.6761,-7.6876,-7.7569,-7.8332,-7.9076,-7.8993,-7.9309,-8.0009,-7.9941,-7.9898,-7.9898,-7.9898,-7.9898,-7.9898,-7.9898,-7.9898,-7.9898,-7.9898,-7.9898,-7.9898,-7.9898,-7.9898,-7.9898,-7.9898,-7.9898,-7.9898,0.0,0.0,0.0,0.0,0.0,0.0,0.0,0.0,0.0,0.0,0.0,-5.1867,0.0,0.0,0.0,-5.4562,-5.5164,-5.5751,-5.6284,-5.6331,-5.6342,-5.6314,-5.6265,-5.6201,-5.6201,-5.6219,-5.666,-5.7548,-5.8453,-5.9394,-6.0326,-6.0809,-6.1247,-6.1607,-6.1607,-6.2075,-6.2932,-6.34,-6.4296,-6.5426,-6.5933,-6.6361,-6.6712,-6.6712,-6.6712,-6.6712,-6.6712,-6.7252,-6.8115,-6.9011,-6.9874,-7.0726,-7.1544,0.0,0.0,0.0,-7.1817,-7.1817,-7.1817,-7.1817,-7.1817,-7.1817,-7.2089,-7.2713,-7.4077,-7.47,-7.5363,-7.6727,-7.6999,0.0,0.0,0.0,0.0,0.0,0.0,0.0,0.0,0.0,0.0,0.0,0.0,0.0,0.0,0.0,0.0,0.0,0.0,-7.5518,-7.5518,-7.5844,-7.6036,-7.6036,-7.6802,-7.7358,-7.7684,-7.8444,-7.9236,-7.9946,-7.9919,-7.9898,-7.9898,-7.9898,-7.9898,-7.9898,-7.9924,-7.9967,-7.9967,-8.003,-8.0009,-7.9967,-7.9967,-7.9924,-7.9898,-7.9898,-7.9898,-7.9898,0.0,0.0,0.0,0.0,0.0,0.0,0.0,0.0,0.0,0.0,0.0,0.0,0.0,0.0,0.0,0.0,-5.579,-5.6284,-5.6407,-5.6427,-5.6432,-5.6412,-5.6342,-5.6447,-5.6642,-5.6631,-5.7175,-5.8276,-5.8982,-5.9781,-6.0648,-6.1286,-6.1607,-6.1607,-6.1841,-6.2426,-6.3244,-6.4062,-6.4919,-6.5777,-6.6439,-6.6712,-6.6712,-6.6712,-6.6824,-6.7019,-6.7019,-6.7725,-6.8777,-6.9401,-7.0185,-7.0998,-7.1622,-7.1817,0.0,0.0,0.0,-7.1817,-7.1817,-7.1817,-7.1817,-7.1817,-7.1817,-7.2245,-7.3999,-7.4388,-7.4895,0.0,0.0,0.0,0.0,0.0,0.0,0.0,0.0,0.0,0.0,0.0,0.0,0.0,0.0,0.0,0.0,0.0,0.0,0.0,0.0,-7.5518,-7.5518,-7.5518,-7.5518,-7.5518,-7.6074,-7.6458,-7.6615,-7.8122,-7.9143,-7.9556,-7.9784,-7.9898,-7.9898,-7.9898,-7.9919,-7.9903,-7.9988,-8.0013,-8.0034,-8.0175,-8.0154,-8.0034,-8.0034,-8.003,-7.9984,-7.9962,-7.9941,-7.9903,0.0,0.0,0.0,0.0,0.0,0.0,0.0,0.0,0.0,0.0,0.0,-5.429,-5.4428,-5.5302,-5.5986,-5.6107,-5.6212,-5.6368,-5.6498,-5.6503,-5.6503,-5.6503,-5.6441,0.0,-5.7595,-5.757,-5.8387,-6.0165,-6.0204,-6.0687,-6.1529,-6.1568,-6.1607,-6.1646,-6.2465,-6.3283,-6.4101,-6.4958,-6.5855,-6.6634,-6.6673,-6.6712,-6.6712,-6.6712,-6.7213,-6.7915,-6.7915,-6.9011,-7.0453,-7.0531,-7.1076,-7.1739,-7.1778,-7.1817,-7.1817,0.0,0.0,0.0,-7.1817,-7.1817,-7.1817,-7.1817,-7.1817,-7.2245,-7.3999,-7.4388,-7.4895,-7.6649,0.0,0.0,0.0,0.0,0.0,0.0,0.0,0.0,0.0,0.0,0.0,0.0,0.0,0.0,0.0,0.0,0.0,0.0,0.0,-7.5518,-7.5518,-7.5518,-7.5518,-7.5518,-7.5556,-7.5921,-7.6685,-7.8161,-7.8838,-7.8685,-7.9519,-7.9898,-7.9898,-7.9898,-7.9924,-7.9992,-7.9992,-8.0055,-8.0195,-8.0195,-8.0195,-8.0195,-8.0195,-8.0195,-8.0175,-8.0034,-7.9992,-8.0009,0.0,0.0,0.0,0.0,0.0,0.0,0.0,0.0,0.0,0.0,0.0,0.0,0.0,-5.5901,-5.616,-5.6251,-5.6368,-5.645,-5.6507,-5.6507,-5.6741,-5.7247,-5.7238,-5.7624,-5.852,-5.851,-5.9095,-6.0312,-6.0312,-6.0741,-6.1607,-6.1607,-6.188,-6.2465,-6.2776,-6.3361,-6.4179,-6.5036,-6.5894,-6.6712,-6.6712,-6.6712,-6.6746,-6.733,-6.772,-6.8071,-6.8621,-6.9596,-7.0609,-7.0609,-7.1115,-7.1817,-7.1817,-7.1817,-7.1817,-7.1817,-7.1817,-7.1817,-7.1817,-7.1817,-7.1817,-7.1817,-7.1817,-7.2089,-7.3297,-7.357,-7.3915,-7.5105,0.0,0.0,0.0,0.0,0.0,0.0,0.0,0.0,0.0,0.0,0.0,0.0,0.0,0.0,0.0,0.0,0.0,0.0,0.0,0.0,-7.5518,-7.5518,-7.5518,-7.5518,-7.5518,-7.5829,-7.6484,-7.6997,-7.7693,-7.8609,-7.8912,-7.9367,-7.9898,-7.9946,-8.003,-8.0134,-8.0215,-8.0275,-8.0353,-8.0373,-8.0354,-8.0333,-8.0333,-8.0255,-8.0195,-8.0154,-8.0055,-7.9992,0.0,0.0,0.0,0.0,0.0,-5.0932,-5.1493,-5.215,-5.3019,-5.4233,0.0,0.0,0.0,0.0,-5.629,-5.6373,-5.645,-5.6624,-5.6896,-5.6896,-5.7286,-5.81,-5.8139,-5.8529,-5.9425,-5.9425,-5.9854,-6.075,-6.075,-6.1023,-6.1607,-6.1607,-6.2075,-6.2893,-6.3166,-6.375,-6.4608,-6.5465,-6.6166,-6.6712,-6.6712,-6.6712,-6.6746,-6.733,-6.792,-6.8504,-6.9089,-7.0029,-7.0998,-7.0998,-7.1349,-7.1817,-7.1817,-7.1817,-7.1817,-7.1817,-7.1817,-7.1817,-7.1817,-7.1817,-7.1817,-7.1817,-7.1817,-7.2011,-7.2908,-7.3097,-7.3358,0.0,0.0,0.0,0.0,0.0,0.0,0.0,0.0,0.0,0.0,0.0,0.0,0.0,0.0,0.0,0.0,0.0,0.0,0.0,0.0,0.0,-7.5518,-7.5518,-7.5501,-7.5427,-7.5427,-7.5586,-7.5912,-7.6196,-7.6779,-7.7775,-7.8344,-7.8912,-7.9481,-7.9836,-8.0055,-8.0215,-8.0353,-8.0411,-8.045,-8.0487,-8.0468,-8.045,-8.045,-8.0373,-8.0295,-8.0275,-8.0175,-8.0034,0.0,0.0,-5.0321,-5.0321,-5.1047,-5.162,-5.1658,-5.3154,-5.433,-5.4436,0.0,0.0,0.0,0.0,0.0,-5.6503,-5.6507,-5.6858,-5.7637,-5.7715,-5.8144,-5.8996,-5.9035,-5.9464,-6.0321,-6.0321,-6.075,-6.1607,-6.1607,-6.1607,-6.1607,-6.1646,-6.2114,-6.2971,-6.3789,-6.4608,-6.5504,-6.6361,-6.6712,-6.6712,-6.6712,-6.6712,-6.6712,-6.6751,-6.7842,-6.9328,-6.9367,-7.0414,-7.1817,-7.1817,-7.1817,-7.1817,-7.1817,-7.1817,-7.1817,-7.1817,-7.1817,-7.1817,0.0,0.0,0.0,-7.1817,-7.1817,-7.2011,-7.2869,-7.308,-7.3328,0.0,0.0,0.0,0.0,0.0,0.0,0.0,0.0,0.0,0.0,0.0,0.0,0.0,0.0,0.0,0.0,0.0,0.0,0.0,0.0,-7.5518,-7.5518,-7.5501,-7.5427,-7.5281,-7.5281,-7.5189,-7.4979,-7.5852,-7.621,-7.6107,-7.7737,-7.8533,-7.8609,-7.9571,-8.0055,-8.0215,-8.0353,-8.045,-8.0506,-8.0506,-8.0506,-8.0506,-8.0506,-8.0506,-8.0487,-8.043,-8.0333,-8.0195,0.0,-5.0283,-5.0512,-5.1123,-5.1429,-5.2014,-5.3286,-5.3989,-5.4622,0.0,0.0,0.0,-5.6253,-5.6397,-5.6494,-5.6507,-5.7013,-5.7481,-5.7676,-5.8295,-5.9035,-5.9893,-5.9932,-6.036,-6.1218,-6.1257,-6.1373,-6.1607,-6.1607,-6.1607,-6.1607,-6.2231,-6.2971,-6.3828,-6.4647,-6.5504,-6.6361,-6.6595,-6.6712,-6.6712,-6.6712,-6.6712,-6.6829,-6.8115,-6.8894,-6.9445,-7.0687,-7.1427,-7.1817,-7.1817,-7.1817,-7.1817,-7.1817,-7.1817,-7.1817,-7.1817,-7.1817,-7.1817,-7.1817,0.0,0.0,0.0,0.0,0.0,-7.2094,-7.2614,-7.3087,0.0,0.0,0.0,0.0,0.0,0.0,0.0,0.0,0.0,0.0,0.0,0.0,0.0,0.0,0.0,0.0,0.0,0.0,0.0,-7.5553,-7.5518,-7.5518,-7.5409,-7.5356,-7.532,-7.5133,-7.5075,-7.5017,-7.5203,-7.5559,-7.6107,-7.6562,-7.7434,-7.8609,-7.9008,-7.9566,-8.0215,-8.0392,-8.0487,-8.0506,-8.0506,-8.0506,-8.0506,-8.0506,-8.0506,-8.0506,-8.0468,-8.0411,-8.0333,-5.0283,-5.0588,-5.1009,-5.1493,-5.2193,-5.2982,-5.4049,-5.461,-5.5147,0.0,0.0,0.0,-5.6331,-5.6748,-5.7013,-5.7013,-5.7754,-5.8412,-5.8763,-5.9269,-5.9932,-6.0789,-6.0828,-6.1062,-6.1607,-6.1607,-6.1607,-6.1607,-6.1607,-6.1802,-6.2153,-6.2659,-6.3517,-6.4647,-6.5153,-6.5894,-6.6712,-6.6712,-6.6712,-6.6712,-6.6712,-6.6902,-6.7335,-6.8388,-6.9206,-6.999,-7.0959,-7.1505,-7.1817,-7.1817,-7.1817,-7.1817,-7.1817,-7.1817,-7.1817,-7.1817,-7.1817,-7.1817,-7.1817,-7.1817,-7.1817,-7.1817,0.0,0.0,-7.1809,-7.2432,-7.3013,0.0,0.0,0.0,0.0,0.0,0.0,0.0,0.0,0.0,0.0,0.0,0.0,0.0,0.0,0.0,0.0,0.0,0.0,-7.5566,-7.5535,-7.5483,-7.5409,-7.5356,-7.5245,-7.519,-7.5037,-7.4997,-7.4957,-7.4915,-7.516,-7.5615,-7.5956,-7.66,-7.7586,-7.8116,-7.8863,-7.9682,-7.9896,-8.02,-8.0506,-8.0506,-8.0506,-8.0506,-8.0506,-8.0506,-8.0506,-8.0506,-8.045,-8.0372,0.0,-5.1085,-5.1658,-5.1849,-5.311,-5.4179,-5.4329,-5.5116,-5.5748,0.0,-5.6087,-5.631,-5.6539,-5.7229,-5.7754,-5.7832,-5.8646,-5.9464,-6.0243,-6.0399,-6.0789,-6.1568,-6.1607,-6.1607,-6.1607,-6.1607,-6.1607,-6.1607,-6.1685,-6.2153,-6.2893,-6.3088,-6.3984,-6.5387,-6.5504,-6.5972,-6.6712,-6.6712,-6.6751,-6.6824,-6.6824,-6.7374,-6.8154,-6.8271,-6.9245,-7.0609,-7.0687,-7.1193,-7.1817,-7.1817,-7.1817,-7.1817,-7.1817,-7.1817,-7.1817,-7.1817,-7.1817,-7.1817,-7.1934,-7.1856,-7.1817,-7.1934,-7.1866,0.0,-7.1803,-7.2412,-7.2975,-7.2975,0.0,0.0,0.0,0.0,0.0,0.0,0.0,0.0,0.0,0.0,0.0,0.0,0.0,0.0,0.0,-7.5803,-7.5628,-7.5518,-7.5483,-7.5392,-7.5301,-7.5245,-7.5171,-7.5017,-7.4997,-7.4957,-7.4895,-7.4895,-7.4895,-7.4932,-7.5615,-7.6032,-7.6145,-7.709,-7.7987,-7.8807,-7.9133,-7.9704,-8.0353,-8.0468,-8.0506,-8.0506,-8.0506,-8.0506,-8.0506,-8.0506,-8.045,-8.0392,-5.12,-5.1467,-5.2028,-5.3378,-5.3924,-5.4456,-5.5224,-5.5581,-5.5836,-5.604,-5.6226,-5.6641,-5.7362,-5.758,-5.7988,-5.8685,-5.9542,-6.0126,-6.0282,-6.0945,-6.1412,-6.1607,-6.1607,-6.1607,-6.1607,-6.1607,-6.1607,-6.1607,-6.2309,-6.2737,-6.2932,-6.4296,-6.5075,-6.5426,-6.6127,-6.6556,-6.6712,-6.6712,-6.7096,-6.7759,-6.7759,-6.8271,-6.9128,-6.9829,-7.0297,-7.0687,-7.131,-7.1661,-7.1817,-7.1817,-7.1817,-7.1817,-7.1817,-7.1817,-7.1817,-7.1817,-7.1817,-7.1934,-7.2674,-7.2323,-7.1973,-7.2674,-7.2283,0.0,-7.1725,-7.2329,-7.2927,0.0,0.0,0.0,0.0,0.0,0.0,0.0,0.0,0.0,0.0,0.0,0.0,0.0,0.0,0.0,0.0,-7.5894,-7.5692,-7.5497,-7.5358,-7.5247,-7.5228,-7.5114,-7.5018,-7.4979,-7.4975,-7.4915,-7.4895,-7.4895,-7.4895,-7.4895,-7.5084,-7.5463,-7.6107,-7.6482,-7.7112,-7.8007,-7.8904,-7.9378,-7.9589,-8.0238,-8.0506,-8.0506,-8.0506,-8.0506,-8.0506,-8.0506,-8.0487,-8.045,-5.1493,-5.227,-5.311,-5.3951,-5.4473,-5.4968,-5.547,-5.5668,-5.5864,-5.6079,-5.6664,-5.7229,-5.7658,-5.8485,-5.9152,-5.962,-6.0438,-6.0945,-6.0945,-6.1373,-6.1607,-6.1607,-6.1607,-6.1607,-6.1607,-6.2036,-6.2231,-6.2231,-6.3088,-6.3711,-6.4179,-6.4997,-6.5621,-6.6088,-6.6517,-6.6712,-6.6712,-6.6712,-6.7452,-6.8621,-6.8154,-6.8777,-6.999,-7.0414,-7.0842,-7.1232,-7.1661,-7.1817,-7.1817,-7.1817,-7.1817,-7.1817,-7.1817,-7.1817,-7.1817,-7.1817,-7.1817,-7.1895,-7.2323,-7.2128,-7.1895,-7.2323,-7.2094,0.0,0.0,-7.2358,-7.2944,-7.2944,0.0,0.0,0.0,0.0,0.0,0.0,0.0,0.0,0.0,0.0,0.0,0.0,0.0,0.0,0.0,-7.5991,-7.5794,-7.5535,-7.5338,-7.519,-7.5095,-7.5036,-7.4997,-7.4937,-7.4915,-7.4895,-7.4895,-7.4895,-7.4895,-7.4895,-7.4895,-7.5122,-7.5501,-7.5721,-7.6275,-7.7093,-7.772,-7.8252,-7.8672,-7.9092,-7.9245,-7.936,-8.0162,-8.0506,-8.0506,-8.0506,-8.0506,-8.0487,-5.2066,-5.3187,-5.4142,-5.4333,-5.4919,-5.544,-5.5535,-5.5717,-5.5977,-5.6357,-5.7314,-5.8027,-5.8178,-5.9464,-6.036,-6.0555,-6.1179,-6.1607,-6.1607,-6.1607,-6.1685,-6.1841,-6.1685,-6.1763,-6.2075,-6.262,-6.2971,-6.3127,-6.3945,-6.4725,-6.5387,-6.5582,-6.605,-6.6712,-6.6712,-6.6712,-6.6712,-6.6863,-6.7842,-6.925,-6.8738,-6.944,-7.0842,-7.0842,-7.1232,-7.1817,-7.1817,-7.1817,-7.1817,-7.1817,-7.1817,-7.1817,-7.1817,-7.1817,-7.1817,-7.1817,-7.1817,-7.1856,-7.2011,-7.1934,0.0,0.0,0.0,-7.1803,0.0,0.0,0.0,0.0,0.0,0.0,0.0,0.0,0.0,0.0,0.0,0.0,0.0,0.0,0.0,0.0,0.0,0.0,0.0,-7.588,-7.5611,-7.5285,-7.5107,-7.4942,-7.477,-7.4883,-7.4937,-7.4895,-7.4895,-7.4895,-7.4895,-7.4895,-7.4895,-7.4895,-7.4895,-7.4895,-7.4895,-7.5113,-7.5552,-7.618,-7.6557,-7.7105,-7.7755,-7.7946,-7.8022,-7.8137,-7.9474,-8.0009,-8.0009,-8.0009,-8.0009,-7.9972,-5.3836,-5.3951,-5.4333,-5.5135,-5.5389,-5.5547,-5.5671,-5.5866,-5.6319,-5.7319,-5.8257,-5.9152,-5.9932,-6.0165,-6.0594,-6.1373,-6.1529,-6.1607,-6.1607,-6.1607,-6.1958,-6.2737,-6.1997,-6.2309,-6.3789,-6.3205,-6.3244,-6.3945,-6.4842,-6.5309,-6.5426,-6.6205,-6.6595,-6.6712,-6.6712,-6.6712,-6.6751,-6.7525,-6.8427,-6.9367,-7.0024,-7.0842,-7.1661,-7.1661,-7.17,-7.1817,-7.1817,-7.1817,-7.1817,-7.1817,-7.1817,-7.1817,-7.1817,-7.1817,-7.1817,-7.1817,0.0,0.0,0.0,0.0,0.0,0.0,-7.2378,0.0,0.0,0.0,-7.1835,-7.1835,0.0,0.0,0.0,0.0,0.0,0.0,0.0,0.0,0.0,0.0,0.0,0.0,0.0,0.0,0.0,0.0,-7.4681,-7.4451,-7.4193,-7.403,-7.3915,-7.4538,-7.4895,-7.4895,-7.4895,-7.4895,-7.4895,-7.4895,-7.4895,-7.4895,-7.4895,-7.4895,-7.4895,-7.5113,-7.5247,-7.5399,-7.629,-7.6761,-7.6914,-7.7678,-7.8022,-7.8022,-7.8213,-7.829,-7.829,-7.829,-7.829,-7.8253,-5.4218,-5.4524,-5.4982,-5.5326,-5.544,-5.5473,-5.5638,-5.6298,-5.7194,-5.8237,-5.9163,-5.9893,-6.0243,-6.075,-6.1218,-6.1568,-6.2075,-6.2348,-6.2348,-6.2776,-6.3205,-6.3595,-6.3244,-6.34,-6.4062,-6.4257,-6.453,-6.4842,-6.5738,-6.6166,-6.6166,-6.6517,-6.6712,-6.6712,-6.6712,-6.698,-6.7486,-6.7837,-6.8816,-7.0107,-7.0453,-7.1076,-7.1817,-7.1817,-7.1817,-7.1817,-7.1817,-7.1817,-7.1817,0.0,-7.1817,0.0,0.0,0.0,0.0,-7.1817,0.0,0.0,0.0,0.0,0.0,0.0,0.0,0.0,-7.18,0.0,-7.1776,0.0,0.0,0.0,0.0,0.0,0.0,0.0,-7.2503,0.0,0.0,0.0,0.0,0.0,0.0,0.0,0.0,0.0,0.0,0.0,0.0,-7.4061,-7.3859,-7.4541,-7.4955,-7.4895,-7.4895,-7.4895,-7.4895,-7.4895,-7.4895,-7.4895,-7.4895,-7.4895,-7.4895,-7.5113,-7.5209,-7.5209,-7.5755,-7.5997,-7.6036,-7.6379,-7.6532,-7.6532,-7.6532,-7.7144,-7.8022,-7.8022,-7.8022,-7.7966,-5.46,-5.4982,-5.5403,-5.5403,-5.5619,-5.5907,-5.6329,-5.7392,-5.8428,-5.9176,-6.0054,-6.0672,-6.0672,-6.1218,-6.1685,-6.1958,-6.2542,-6.2971,-6.3205,-6.3789,-6.4218,-6.4452,-6.4218,-6.4335,-6.4803,-6.5192,-6.5504,-6.5777,-6.64,-6.6712,-6.6712,-6.6712,-6.6712,-6.6712,-6.6712,-6.7057,-6.7681,-6.8154,-6.9089,-7.0258,-7.0726,-7.1271,-7.1817,-7.1817,-7.1817,-7.1817,-7.1817,-7.1817,-7.1817,-7.1817,-7.1817,0.0,-7.1817,0.0,-7.2167,0.0,0.0,0.0,-7.2518,0.0,0.0,0.0,0.0,0.0,0.0,0.0,0.0,0.0,0.0,0.0,0.0,0.0,-7.1806,-7.1809,0.0,-7.2731,0.0,0.0,0.0,0.0,0.0,0.0,0.0,0.0,0.0,-7.3149,-7.3729,-7.3861,-7.3357,-7.4448,-7.4922,-7.4594,-7.4821,-7.4915,-7.4895,-7.4895,-7.4895,-7.4895,-7.4895,-7.4915,-7.4935,-7.5113,-7.5209,-7.5247,-7.543,-7.5518,-7.5518,-7.5518,-7.5518,-7.5518,-7.5518,-7.6227,-7.7296,-7.7296,-7.7296,-7.7278,-5.5365,-5.5403,-5.5403,-5.5403,-5.6167,-5.7147,-5.8239,-5.9336,-6.0048,-6.0155,-6.0993,-6.1568,-6.1568,-6.1568,-6.1958,-6.2776,-6.2893,-6.3244,-6.4023,-6.4101,-6.4491,-6.5309,-6.4569,-6.488,-6.6595,-6.5816,-6.5816,-6.6673,-6.6673,-6.6712,-6.6712,-6.6712,-6.6712,-6.6712,-6.6712,-6.6712,-6.6868,-6.8543,-6.9289,-6.9484,-7.1115,-7.1778,-7.1817,0.0,-7.1817,-7.1817,-7.1817,0.0,0.0,-7.1817,-7.1817,0.0,0.0,0.0,0.0,0.0,0.0,0.0,0.0,0.0,0.0,-7.3064,0.0,0.0,0.0,0.0,-7.1817,0.0,0.0,0.0,0.0,-7.1817,-7.1806,-7.1809,-7.1809,0.0,0.0,0.0,0.0,0.0,0.0,0.0,0.0,0.0,0.0,-7.2553,-7.3085,-7.2961,-7.1909,-7.4035,-7.4846,-7.3877,-7.4599,-7.4957,-7.4895,-7.4895,-7.4895,-7.4895,-7.4895,-7.4955,-7.5017,-7.5152,-7.5265,-7.532,-7.5427,-7.5518,-7.5518,-7.5518,-7.5518,-7.5518,-7.5518,-7.5556,-7.5594,-7.5594,-7.5594,-7.5577,-5.6091,-5.6205,-5.6205,-5.6205,-5.6473,-5.7309,-5.905,-5.9719,-6.0257,-6.0896,-6.1312,-6.1783,-6.2387,-6.2465,-6.2776,-6.3634,-6.4218,-6.4686,-6.4958,-6.5504,-6.5933,-6.6244,-6.5972,-6.6088,-6.6673,-6.64,-6.64,-6.6712,-6.6712,-6.6712,-6.6712,-6.6712,-6.6712,-6.6712,-6.6712,-6.7335,-6.8465,-6.9055,-6.9952,-7.0998,-7.1583,-7.1817,-7.1817,0.0,-7.1817,-7.1817,-7.1817,-7.1817,0.0,-7.1817,-7.1817,-7.1817,-7.1817,-7.2401,-7.3103,-7.3103,-7.3726,0.0,0.0,0.0,-7.3103,-7.3103,0.0,0.0,0.0,0.0,0.0,0.0,0.0,0.0,0.0,-7.2674,-7.2479,-7.1883,-7.18,-7.18,0.0,0.0,0.0,0.0,0.0,0.0,0.0,0.0,0.0,-7.1788,-7.2375,-7.275,0.0,-7.4002,-7.4715,-7.477,-7.5,-7.5056,-7.4957,-7.4935,-7.4895,-7.4895,-7.4895,-7.4955,-7.4979,-7.5152,-7.5227,-7.532,-7.5427,-7.5518,-7.5518,-7.5518,-7.5518,-7.5518,-7.5518,-7.5518,-7.5518,-7.5518,-7.5518,-7.5483,-5.6969,-5.7046,-5.7046,-5.7046,-5.7379,-5.8203,-5.9886,-6.0294,-6.0647,-6.1305,-6.1729,-6.2206,-6.281,-6.3166,-6.3672,-6.4491,-6.5075,-6.5543,-6.5855,-6.64,-6.6712,-6.6712,-6.6712,-6.6712,-6.6712,-6.6712,-6.6712,-6.6712,-6.6712,-6.6712,-6.6712,-6.6712,-6.6712,-6.6712,-6.7019,-6.7803,-6.8894,-6.9479,-7.0375,-7.1388,-7.1661,-7.1817,0.0,0.0,-7.1817,-7.1817,0.0,-7.1817,-7.1817,-7.1817,-7.1817,-7.1856,-7.2167,-7.2869,-7.3609,-7.3921,-7.4622,-7.5324,-7.5324,-7.47,0.0,-7.4038,-7.3375,0.0,-7.2713,0.0,0.0,0.0,0.0,0.0,0.0,-7.283,-7.244,-7.1895,-7.1817,-7.1817,0.0,-7.1817,0.0,0.0,0.0,0.0,0.0,0.0,0.0,-7.1475,-7.2098,-7.2479,0.0,0.0,-7.4082,-7.4104,-7.4305,-7.4484,-7.4619,-7.454,-7.4632,-7.4895,-7.4895,-7.4975,-7.5075,-7.5171,-7.5246,-7.5374,-7.5445,-7.5518,-7.5518,-7.5518,-7.5518,-7.5518,-7.5518,-7.5518,-7.5518,-7.5518,-7.5483,-7.5392,-5.7963,-5.8001,-5.8001,-5.8001,-5.8821,-5.9784,-6.0723,-6.105,-6.126,-6.1415,-6.2229,-6.2863,-6.3005,-6.3711,-6.453,-6.5387,-6.5465,-6.5816,-6.6634,-6.6712,-6.6712,-6.6712,-6.6712,-6.6712,-6.6712,-6.6712,-6.6712,-6.6712,-6.6712,-6.6712,-6.6712,-6.6712,-6.6712,-6.6751,-6.7603,-6.8032,-6.8193,-6.9868,-7.0609,-7.0726,-7.1505,-7.1817,-7.1817,-7.1817,-7.1817,-7.1817,-7.1817,-7.1817,-7.1817,-7.1817,-7.1817,-7.1934,-7.283,-7.3687,-7.4583,-7.5441,-7.6337,-7.6999,-7.6999,-7.6376,-7.5713,-7.5713,0.0,0.0,0.0,0.0,-7.4427,0.0,0.0,0.0,0.0,0.0,-7.1856,-7.1817,-7.1817,-7.1817,-7.1817,-7.1817,0.0,0.0,0.0,0.0,0.0,0.0,-7.162,-7.1607,-7.2173,-7.2186,0.0,0.0,-7.299,-7.2003,-7.2678,-7.3301,-7.3895,-7.3878,-7.418,-7.4895,-7.4895,-7.4995,-7.5209,-7.5209,-7.5321,-7.5518,-7.5518,-7.5518,-7.5518,-7.5518,-7.5518,-7.5518,-7.5518,-7.5518,-7.5518,-7.5518,-7.5409,-7.5301,-5.8689,-5.93,-5.9759,-5.9759,-6.0007,-6.0355,-6.0707,-6.0888,-6.1273,-6.2097,-6.2489,-6.3235,-6.461,-6.4943,-6.5426,-6.6283,-6.6361,-6.6478,-6.6673,-6.6712,-6.6712,-6.6712,-6.6712,-6.6712,-6.6712,-6.6712,-6.6712,-6.6712,-6.6712,-6.6712,-6.6712,-6.6712,-6.6712,-6.6751,-6.7603,-6.8349,-6.905,-7.0141,-7.0959,-7.1505,-7.17,-7.1817,-7.1817,0.0,-7.1817,-7.1817,-7.1817,-7.1817,-7.1817,-7.1817,-7.1817,-7.1934,-7.283,-7.3687,-7.4583,-7.5441,-7.6337,-7.6999,-7.6999,-7.6376,-7.5713,-7.5713,-7.5051,-7.4388,0.0,0.0,0.0,0.0,0.0,0.0,0.0,0.0,0.0,-7.1895,-7.18,-7.1821,-7.1821,0.0,0.0,-7.1732,0.0,0.0,0.0,-7.1622,-7.162,-7.1607,-7.1774,-7.1989,0.0,0.0,0.0,-7.3162,-7.3255,-7.3599,-7.418,-7.4023,-7.4315,-7.4977,-7.4935,-7.4995,-7.5209,-7.5209,-7.5321,-7.5518,-7.5518,-7.5518,-7.5518,-7.5518,-7.5518,-7.5518,-7.5518,-7.5518,-7.5518,-7.5518,-7.5394,-7.5228,-5.9568,-6.0064,-6.0422,-6.0422,-6.0717,-6.0914,-6.075,-6.1142,-6.1756,-6.237,-6.3231,-6.4284,-6.5739,-6.6205,-6.6807,-6.7663,-6.7765,-6.7782,-6.7782,-6.7831,-6.7686,-6.7291,-6.7252,-6.7096,-6.6712,-6.6712,-6.6712,-6.6712,-6.6712,-6.6712,-6.6712,-6.6712,-6.6902,-6.7291,-6.8193,-6.905,-6.9913,-7.0765,-7.1388,-7.1817,-7.1817,-7.1817,0.0,-7.1817,-7.1817,-7.1817,-7.1817,-7.1817,-7.1817,-7.1817,-7.1817,-7.2011,-7.3258,-7.3999,-7.4661,-7.5908,-7.661,-7.6999,-7.6999,-7.6649,-7.6259,-7.6259,-7.5908,-7.5558,-7.5558,-7.5558,-7.5674,0.0,0.0,0.0,0.0,0.0,0.0,-7.2477,-7.1991,-7.1745,-7.1745,0.0,0.0,0.0,-7.2025,0.0,0.0,-7.1614,-7.1589,-7.1603,-7.1616,0.0,0.0,0.0,0.0,-7.316,-7.3022,-7.3269,-7.3859,-7.3729,-7.3771,-7.4048,-7.4353,-7.4581,-7.4732,-7.5075,-7.532,-7.5518,-7.5518,-7.5518,-7.5518,-7.5518,-7.5518,-7.5518,-7.5518,-7.5518,-7.5518,-7.5518,-7.5376,-7.5209,-6.0422,-6.0422,-6.0422,-6.0422,-6.1072,-6.1447,-6.0917,-6.1758,-6.2509,-6.2703,-6.4197,-6.5583,-6.6555,-6.7425,-6.8271,-6.9009,-6.9156,-6.9194,-6.9194,-6.9268,-6.8972,-6.8193,-6.8154,-6.7803,-6.7063,-6.6946,-6.6863,-6.6863,-6.6751,-6.6712,-6.6712,-6.6712,-6.7174,-6.8032,-6.8894,-6.9835,-7.0804,-7.1505,-7.1817,-7.1817,-7.1817,-7.1817,-7.1817,-7.1817,-7.1817,-7.1817,-7.1817,-7.1817,-7.1817,-7.1817,-7.1817,-7.2089,-7.3843,-7.4388,-7.4739,-7.6493,-7.6999,-7.6999,-7.6999,-7.6999,-7.6999,-7.6999,-7.6999,-7.6999,-7.6999,-7.6999,-7.6999,-7.6999,-7.6298,-7.5713,0.0,0.0,0.0,-7.332,0.0,0.0,0.0,0.0,0.0,0.0,0.0,0.0,0.0,0.0,-7.1598,-7.1598,-7.1603,0.0,0.0,0.0,0.0,-7.259,-7.2488,0.0,-7.3327,0.0,-7.3137,-7.2838,-7.3659,-7.4079,-7.4135,-7.4956,-7.5392,-7.5535,-7.5518,-7.5518,-7.5518,-7.5518,-7.5518,-7.5518,-7.5518,-7.5518,-7.5518,-7.5518,-7.5376,-7.5209,-6.0422,-6.0422,-6.0422,-6.0422,-6.1114,-6.168,-6.171,-6.2464,-6.3356,-6.4271,-6.5314,-6.6341,-6.7277,-6.8217,-6.8863,-6.9087,-6.9156,-6.9194,-6.9194,-6.9268,-6.925,-6.9089,-6.905,-6.9011,-6.8855,-6.8154,-6.7759,-6.7759,-6.7057,-6.6712,-6.6712,-6.6712,-6.7174,-6.8032,-6.8894,-7.0141,-7.1583,-7.1739,0.0,-7.1817,-7.1817,-7.1817,-7.1817,-7.1817,-7.1817,-7.1817,-7.1817,-7.1817,-7.1817,-7.1817,-7.1817,-7.2089,-7.3843,-7.4388,-7.4739,-7.6493,-7.6999,-7.6999,-7.6999,-7.6999,-7.6999,-7.6999,-7.6999,-7.6999,-7.6999,-7.6999,-7.6999,-7.6999,-7.6298,-7.5663,-7.5638,0.0,0.0,0.0,0.0,0.0,0.0,0.0,0.0,0.0,0.0,-7.3079,0.0,0.0,0.0,0.0,0.0,0.0,0.0,0.0,0.0,0.0,-7.2644,0.0,0.0,0.0,-7.3399,-7.316,-7.3882,-7.4231,-7.427,-7.5098,-7.5497,-7.5566,-7.5497,-7.5518,-7.5518,-7.5518,-7.5518,-7.5518,-7.5518,-7.5518,-7.5518,-7.5518,-7.5376,-7.5209,-6.0422,-6.0422,-6.0537,-6.0943,-6.1736,-6.2505,0.0,-6.4238,-6.5139,-6.5305,-6.6144,-6.7227,-6.8558,-6.9108,-6.9653,-7.0195,-7.0346,-7.0424,-7.0505,-7.0557,-7.0397,-6.9985,-6.999,-6.9757,-6.9328,-6.8894,-6.866,-6.866,-6.8232,-6.7803,-6.7369,-6.7842,-6.8271,-6.8738,-7.0024,-7.1037,0.0,0.0,0.0,-7.1817,-7.1817,-7.1817,-7.1817,-7.1817,-7.1817,-7.1817,-7.1817,-7.1817,-7.1817,-7.1817,-7.1817,-7.2089,-7.3843,-7.4388,-7.4739,-7.6493,-7.6999,-7.6999,-7.6999,-7.6999,-7.6999,-7.6999,-7.6999,-7.6999,-7.6999,-7.6999,-7.6999,-7.6999,-7.6637,-7.6294,-7.6239,-7.5494,0.0,0.0,0.0,0.0,0.0,0.0,-7.2502,0.0,0.0,0.0,0.0,0.0,0.0,0.0,0.0,0.0,0.0,0.0,0.0,0.0,0.0,0.0,0.0,0.0,0.0,-7.3468,-7.4273,-7.4639,-7.4589,-7.5357,-7.5676,-7.5666,-7.5583,-7.5514,-7.5518,-7.5518,-7.5518,-7.5518,-7.5518,-7.5518,-7.5518,-7.5518,-7.5376,-7.5209,-6.0599,-6.0637,-6.0905,-6.1745,-6.2586,-6.3494,-6.4408,-6.5839,-6.6639,-6.6089,-6.7,-6.8167,-6.9554,-6.9887,-7.0397,-7.1231,-7.1388,-7.1508,-7.1614,-7.1697,-7.1479,-7.0853,-7.0814,-7.0509,-6.9813,-6.9657,-6.954,-6.9551,-6.9356,-6.8928,-6.831,-6.8972,-6.9406,-6.964,0.0,0.0,0.0,0.0,-7.1817,-7.1817,-7.1817,-7.1817,-7.1817,-7.1817,-7.1817,-7.1817,-7.1817,-7.1817,-7.1817,-7.1817,-7.1817,-7.2089,-7.3843,-7.4388,-7.4739,-7.6493,-7.6999,-7.6999,-7.6999,-7.6999,-7.6999,-7.6999,-7.6999,-7.6999,-7.6999,-7.6999,-7.6993,-7.6987,-7.6917,-7.6862,-7.6793,-7.616,0.0,0.0,0.0,0.0,0.0,0.0,0.0,0.0,0.0,0.0,-7.3159,0.0,0.0,0.0,0.0,-7.1598,-7.1598,-7.1594,0.0,0.0,0.0,-7.3113,-7.3915,0.0,-7.3883,0.0,-7.4622,-7.4987,-7.4886,-7.5614,-7.5885,-7.5772,-7.5682,-7.5566,-7.5518,-7.5518,-7.5518,-7.5518,-7.5518,-7.5518,-7.5501,-7.5483,-7.5358,-7.519,-6.1325,-6.1478,-6.1745,0.0,0.0,-6.4373,-6.5264,-6.6183,-6.6787,-6.6811,-6.8206,-6.9299,-6.9577,-7.0349,-7.0953,-7.1201,-7.1327,-7.1426,-7.1436,-7.1564,-7.1599,-7.1598,-7.1598,-7.1573,-7.1491,-7.0752,-7.0376,0.0,-6.9589,-6.9217,0.0,-6.925,-6.9718,0.0,0.0,0.0,0.0,-7.1817,-7.1817,-7.1817,-7.1817,-7.1817,-7.1817,-7.1817,-7.1817,-7.1817,-7.1817,-7.1817,-7.1817,-7.1817,-7.1817,-7.2089,-7.3843,-7.4388,-7.4739,-7.6493,-7.6999,-7.6999,-7.6999,-7.6999,-7.6999,-7.6999,-7.6999,-7.6999,-7.6999,-7.6999,-7.6987,-7.6917,-7.6855,-7.6793,-7.6734,-7.6651,-7.6526,0.0,0.0,0.0,0.0,0.0,-7.4087,-7.4872,0.0,0.0,0.0,-7.3974,0.0,0.0,0.0,-7.1598,-7.1598,-7.1594,-7.1956,-7.2771,0.0,-7.317,-7.3966,-7.4053,0.0,-7.3883,-7.4826,-7.5221,-7.5098,-7.5837,-7.6121,-7.6048,-7.5787,-7.5633,-7.5518,-7.5518,-7.5518,-7.5518,-7.5518,-7.5518,-7.5501,-7.5374,-7.5264,-7.519,0.0,0.0,0.0,0.0,0.0,0.0,0.0,-6.737,-6.8265,-6.8296,-6.8916,-6.9551,-7.0147,-7.0522,-7.0801,-7.0952,-7.1067,-7.1186,-7.1225,-7.1339,-7.1454,-7.1499,-7.1499,-7.1525,-7.1575,-7.1264,-7.1125,0.0,0.0,0.0,0.0,0.0,0.0,0.0,0.0,-7.1817,-7.1817,-7.1817,-7.1817,-7.1817,-7.1817,-7.1817,-7.1817,-7.1817,-7.1817,-7.1817,-7.1817,-7.1817,-7.1817,-7.1817,-7.1817,-7.2089,-7.3843,-7.4388,-7.4739,-7.6493,-7.6999,-7.6999,-7.6999,-7.6999,-7.6999,-7.6999,-7.6999,-7.6993,-7.6936,-7.693,-7.6917,-7.6922,-7.6809,-7.6734,-7.669,-7.6614,-7.6397,0.0,0.0,0.0,0.0,0.0,0.0,-7.4386,0.0,-7.4169,0.0,0.0,0.0,0.0,0.0,0.0,-7.1598,-7.1581,0.0,-7.2077,0.0,-7.2729,-7.4109,-7.4166,-7.4679,-7.5641,-7.6009,-7.6185,-7.6148,-7.633,-7.6285,-7.5967,-7.5724,-7.5583,-7.5518,-7.5518,-7.5518,-7.5518,-7.5518,-7.5518,-7.5501,-7.5356,-7.5246,-7.519,-6.3121,0.0,-6.3618,0.0,-6.5413,-6.6178,-6.7286,-6.8432,-6.9273,-6.9502,-6.9588,-6.9865,-7.0531,-7.0623,-7.0632,-7.0743,-7.0871,-7.0953,-7.1004,-7.1112,-7.1192,-7.1296,-7.1296,0.0,-7.1407,-7.1407,-7.1436,-7.1499,-7.1581,0.0,0.0,0.0,0.0,0.0,-7.1817,-7.1817,-7.1817,-7.1817,-7.1817,-7.1817,-7.1817,-7.1817,-7.1817,-7.1817,-7.1817,-7.1817,-7.1817,-7.1817,-7.1817,-7.1817,-7.1817,-7.2089,-7.3843,-7.4388,-7.4739,-7.6493,-7.6999,-7.6999,-7.6999,-7.6999,-7.6993,-7.6987,-7.6981,-7.6975,-7.6904,-7.689,-7.6876,-7.6832,-7.676,-7.6681,-7.6662,-7.6542,-7.6284,-7.5653,0.0,0.0,0.0,0.0,0.0,0.0,-7.4157,-7.3859,-7.2568,0.0,0.0,0.0,0.0,0.0,0.0,0.0,0.0,0.0,0.0,0.0,0.0,-7.4084,-7.4964,-7.6404,-7.6692,-7.6809,-7.6809,-7.6651,-7.6366,-7.5995,-7.574,-7.5616,-7.5553,-7.5518,-7.5518,-7.5518,-7.5518,-7.5501,-7.5409,-7.532,-7.5209,-7.5114,-6.4,-6.4167,-6.4688,-6.6369,-6.6674,-6.7247,-6.8929,-6.9196,-6.9502,-7.0304,-7.0381,-7.0451,-7.0569,-7.0623,-7.0616,-7.0708,-7.0743,-7.0801,-7.0801,-7.0871,-7.0939,0.0,0.0,-7.1068,-7.1213,-7.1213,-7.1231,-7.1299,0.0,0.0,-7.1606,0.0,-7.1788,-7.1817,-7.1817,-7.1817,-7.1817,-7.1817,-7.1817,-7.1817,-7.1817,-7.1817,-7.1817,-7.1817,-7.1817,-7.1817,-7.1817,-7.1817,-7.1817,-7.1817,-7.1817,-7.2089,-7.3843,-7.4388,-7.4739,-7.6493,-7.6999,-7.6999,-7.6999,-7.6999,-7.6987,-7.6917,-7.691,-7.6897,-7.6908,-7.6894,-7.6871,-7.6743,-7.669,-7.6662,-7.6549,-7.6488,-7.6466,-7.6409,0.0,0.0,0.0,0.0,0.0,0.0,-7.4668,-7.4245,-7.1861,0.0,0.0,0.0,0.0,0.0,0.0,0.0,0.0,-7.1598,-7.1598,0.0,-7.2918,-7.3773,-7.4653,-7.5549,-7.6451,-7.6894,-7.6894,-7.6632,-7.6405,-7.6185,-7.5908,-7.5708,-7.5583,-7.5535,-7.5518,-7.5518,-7.5518,-7.5409,-7.5301,-7.5247,-7.5095,-7.4997,-6.484,-6.549,-6.6063,-6.6598,-6.7668,-6.8585,-6.912,-6.9655,-7.0113,-7.0381,-7.0419,-7.0419,-7.0451,-7.0451,-7.0467,0.0,-7.0616,-7.0662,0.0,-7.0737,-7.0758,-7.0787,-7.0787,-7.0829,-7.0925,-7.0979,-7.1043,-7.1091,0.0,0.0,0.0,-7.1704,-7.1764,-7.1817,-7.1817,-7.1817,-7.1817,-7.1817,-7.1817,-7.1817,-7.1817,-7.1817,-7.1817,-7.1817,-7.1817,-7.1817,-7.1817,-7.1817,-7.1817,-7.1817,-7.1817,-7.2089,-7.3843,-7.4388,-7.4739,-7.6493,-7.6999,-7.6993,-7.693,-7.6923,-7.6917,-7.6922,-7.6915,-7.6901,-7.6825,-7.6807,-7.6747,-7.6643,-7.6583,-7.6531,-7.6488,-7.6455,-7.6421,-7.6409,-7.6397,0.0,0.0,0.0,0.0,0.0,-7.4217,-7.3859,0.0,-7.3225,0.0,0.0,0.0,0.0,0.0,0.0,0.0,0.0,-7.1598,0.0,-7.288,-7.3767,-7.4655,-7.5595,-7.6487,-7.689,-7.689,-7.6713,-7.6545,-7.6308,-7.6093,-7.5864,-7.5644,-7.5599,-7.5532,-7.5518,-7.5518,-7.5409,-7.5301,-7.5247,-7.5095,-7.4997,-6.5719,-6.633,-6.6904,-6.7515,-6.8508,-6.9311,-6.9616,-7.0075,-7.0419,-7.0419,-7.0419,-7.0419,-7.0419,-7.0419,0.0,-7.0419,-7.0467,-7.0522,-7.0522,-7.0547,-7.0578,-7.0578,-7.0578,-7.0624,-7.0737,0.0,0.0,-7.0925,-7.1178,-7.1426,-7.1676,-7.169,-7.1758,-7.1817,-7.1817,-7.1817,-7.1817,-7.1817,-7.1817,-7.1817,-7.1817,-7.1817,-7.1817,-7.1817,-7.1817,-7.1817,-7.1817,-7.1817,-7.1817,-7.1817,-7.1811,-7.2034,-7.3475,-7.4131,-7.4703,-7.643,-7.6969,-7.6956,-7.6897,-7.689,-7.6883,-7.6879,-7.6825,-7.6793,-7.6734,-7.6671,-7.6652,-7.6591,-7.651,-7.6477,-7.6455,-7.6421,-7.6397,-7.6397,-7.6397,-7.6397,-7.6397,0.0,0.0,0.0,0.0,0.0,0.0,-7.3604,0.0,0.0,0.0,0.0,0.0,0.0,0.0,-7.2569,-7.2569,0.0,-7.3371,-7.425,-7.4996,-7.5592,-7.6521,-7.6917,-7.6904,-7.6778,-7.6621,-7.6465,-7.6248,-7.6052,-7.5833,-7.5715,-7.5599,-7.5514,-7.5445,-7.5356,-7.5246,-7.5152,-7.5036,-7.4937,-6.6522,-6.6751,0.0,0.0,-6.9234,0.0,-7.0304,-7.0419,-7.0419,-7.0419,-7.0419,-7.0419,-7.0419,-7.0419,-7.0419,-7.0419,0.0,0.0,0.0,-7.0419,-7.0419,-7.0419,-7.0419,-7.0451,-7.0569,-7.0662,-7.0752,-7.0801,-7.1142,-7.1396,-7.1589,-7.1675,-7.1751,-7.1817,-7.1817,-7.1817,-7.1817,-7.1817,-7.1817,-7.1817,-7.1817,-7.1817,-7.1817,-7.1817,-7.1817,-7.1817,-7.1817,-7.1817,-7.1817,-7.1817,-7.18,-7.1971,-7.2828,-7.3652,-7.4598,-7.6306,-7.6844,-7.6894,-7.6894,-7.6886,-7.6879,-7.6793,-7.6752,-7.669,-7.6594,-7.6602,-7.6553,-7.6488,-7.6477,-7.6466,-7.6409,-7.6397,-7.6397,-7.6397,-7.6397,-7.6397,-7.6397,0.0,0.0,0.0,0.0,0.0,0.0,-7.3743,-7.4276,0.0,0.0,0.0,0.0,0.0,-7.3424,-7.417,-7.4209,-7.4195,-7.4196,-7.5051,-7.5556,-7.571,-7.6598,-7.6981,-7.691,-7.6837,-7.6754,-7.6584,-7.6422,-7.6224,-7.609,-7.5818,-7.5644,-7.5566,-7.5392,-7.5246,-7.5171,-7.5056,-7.4937,-7.4895,0.0,0.0,-6.7935,-6.9005,-6.9731,-7.019,-7.0381,-7.0419,-7.0419,-7.0419,-7.0419,-7.0419,-7.0419,-7.0419,-7.0419,-7.0419,-7.0419,-7.0419,-7.0419,-7.0419,-7.0419,-7.0419,-7.0419,-7.0419,-7.0435,-7.0593,-7.0772,-7.0952,-7.1142,-7.1285,-7.1454,-7.1589,-7.169,-7.1815,-7.1815,-7.1794,-7.1817,-7.1817,-7.1817,-7.1817,-7.1817,-7.1817,-7.1817,-7.1817,-7.1817,-7.1817,-7.1817,-7.1817,-7.1817,-7.1817,-7.1794,-7.1965,-7.2822,-7.3639,-7.4444,-7.5571,-7.6395,-7.6886,-7.6856,-7.6785,-7.6743,-7.6738,-7.6652,-7.6594,-7.6521,-7.651,-7.6488,-7.6432,-7.6421,-7.6421,-7.6409,-7.6397,-7.6397,-7.6397,-7.6397,-7.6397,-7.6397,-7.5662,0.0,0.0,-7.49,-7.4823,-7.4651,-7.5518,-7.6051,0.0,0.0,0.0,0.0,-7.5322,-7.4693,-7.4296,-7.4296,-7.4265,-7.4272,-7.5118,-7.5937,-7.6676,-7.6876,-7.6993,-7.6987,-7.691,-7.683,-7.6723,-7.6546,-7.6355,-7.616,-7.587,-7.5699,-7.5497,-7.5374,-7.5209,-7.5056,-7.5036,-7.4937,-7.4895,-6.7095,-6.7935,-6.8738,-6.9616,-7.0113,-7.0419,-7.0419,-7.0419,-7.0419,-7.0419,-7.0419,-7.0419,-7.0419,-7.0419,-7.0419,-7.0419,-7.0419,-7.0419,-7.0419,-7.0419,-7.0419,-7.0419,-7.0419,-7.0419,-7.0419,-7.0585,-7.0752,-7.0912,-7.1043,-7.1163,-7.1268,-7.1436,-7.1598,-7.1697,-7.1732,-7.1764,-7.18,-7.1811,-7.1817,-7.1817,-7.1817,-7.1817,-7.1817,-7.1817,-7.1817,-7.1817,-7.1817,-7.1817,-7.1817,-7.1806,-7.1776,-7.1862,-7.2315,-7.3224,-7.4248,-7.4778,-7.5797,-7.6799,-7.6717,-7.6681,-7.6643,-7.6632,-7.6591,-7.656,-7.6466,-7.6444,-7.6444,-7.6409,-7.6397,-7.6397,-7.6397,-7.6397,-7.6397,-7.6397,-7.6397,-7.6397,-7.6397,-7.5662,0.0,-7.5166,-7.5166,-7.5166,-7.5166,-7.6028,-7.6622,-7.6612,0.0,0.0,-7.6713,-7.635,-7.5945,-7.5463,-7.5485,-7.55,-7.5475,-7.5982,-7.6514,-7.6999,-7.6999,-7.6999,-7.6999,-7.6981,-7.691,-7.683,-7.6678,-7.6475,-7.6285,-7.5943,-7.5692,-7.5514,-7.5283,-7.5114,-7.5017,-7.4957,-7.4935,-7.4895,-6.7897,-6.8699,-6.9464,-7.0266,-7.0419,-7.0419,-7.0419,-7.0419,-7.0419,-7.0419,-7.0419,-7.0419,-7.0419,-7.0419,-7.0419,-7.0419,-7.0419,-7.0419,-7.0419,-7.0419,-7.0419,-7.0419,-7.0419,-7.0419,-7.0419,-7.0538,-7.0662,-7.0772,-7.0912,-7.1005,-7.1089,-7.1257,-7.1426,-7.1573,-7.1661,-7.1718,-7.1809,-7.18,-7.1811,-7.1817,-7.1817,-7.1817,-7.1817,-7.1817,-7.1817,-7.1817,-7.1817,-7.1817,-7.1806,-7.1782,-7.1745,-7.1704,-7.1699,-7.2802,-7.4082,-7.4063,-7.5304,-7.6662,-7.6622,-7.6602,-7.6581,-7.6488,-7.6477,-7.6455,-7.6409,-7.6397,-7.6397,-7.6397,-7.6397,-7.6397,-7.6397,-7.6397,-7.6397,-7.6397,-7.6281,-7.6243,-7.6359,0.0,-7.516,-7.5276,-7.5314,-7.5314,-7.5314,-7.6029,-7.651,-7.6591,-7.6662,-7.6734,0.0,-7.6855,-7.6869,-7.6801,-7.6886,-7.6929,-7.6917,-7.6981,-7.6999,-7.6999,-7.6999,-7.6999,-7.6999,-7.6999,-7.6981,-7.691,-7.6746,-7.6604,-7.6389,-7.5985,-7.5708,-7.5549,-7.5133,-7.5017,-7.4977,-7.4915,-7.4895,-7.4895,-6.8699,-6.912,-6.9464,-7.0266,-7.0419,-7.0419,-7.0419,-7.0419,-7.0419,-7.0419,-7.0419,-7.0419,-7.0419,-7.0419,-7.0419,-7.0419,-7.0419,-7.0419,-7.0419,-7.0419,-7.0419,-7.0419,-7.0419,-7.0419,-7.0419,-7.0538,-7.0632,-7.0737,-7.0787,-7.0871,-7.0914,-7.1093,-7.122,-7.1339,-7.1482,-7.1591,-7.1725,-7.1764,-7.1794,-7.1817,-7.1817,-7.1817,-7.1817,-7.1817,-7.1817,-7.1817,-7.1817,-7.18,-7.1815,-7.1815,-7.1771,-7.1699,-7.1622,-7.2777,-7.4072,-7.3974,-7.5154,-7.6521,-7.6602,-7.6581,-7.6488,-7.6432,-7.6421,-7.6409,-7.6409,-7.6397,-7.6397,-7.6397,-7.6397,-7.6397,-7.6397,-7.6397,-7.6397,-7.6397,-7.5779,-7.5546,-7.6281,0.0,-7.5392,-7.6127,-7.6204,-7.6204,-7.6204,-7.6377,-7.6488,-7.6499,-7.6642,-7.671,-7.6719,-7.684,-7.6901,-7.6886,-7.6949,-7.6987,-7.6993,-7.6993,-7.6999,-7.6999,-7.6999,-7.6999,-7.6999,-7.6999,-7.6993,-7.6981,-7.6801,-7.6623,-7.6454,-7.5999,-7.5638,-7.5386,-7.5114,-7.4957,-7.4915,-7.4895,-7.4895,-7.4895,-6.9043,-6.954,-6.996,-7.0342,-7.0419,-7.0419,-7.0419,-7.0419,-7.0419,-7.0419,-7.0419,-7.0419,-7.0419,-7.0419,-7.0419,-7.0419,-7.0419,-7.0419,-7.0419,-7.0419,-7.0419,-7.0419,-7.0419,-7.0419,-7.0419,-7.0451,-7.0499,-7.0531,-7.0662,-7.0708,-7.0752,-7.0871,-7.0992,-7.1151,-7.1268,-7.1415,-7.1591,-7.169,-7.1784,-7.1788,-7.1788,-7.18,-7.1817,-7.1817,-7.1806,-7.1788,-7.1788,-7.177,-7.1738,-7.1757,-7.1714,-7.1622,-7.1611,-7.2705,-7.3994,-7.3943,-7.51,-7.6444,-7.6477,-7.6466,-7.6432,-7.6409,-7.6397,-7.6397,-7.6397,-7.6397,-7.6397,-7.6397,-7.6397,-7.6397,-7.6397,-7.6397,-7.6397,-7.6397,-7.6049,0.0,0.0,-7.6049,-7.5933,-7.6359,-7.6397,-7.6397,-7.6397,-7.6421,-7.6455,-7.6477,-7.6602,-7.6662,-7.6691,-7.6832,-7.6894,-7.6894,-7.6962,-7.6999,-7.6999,-7.6999,-7.6999,-7.6999,-7.6999,-7.6999,-7.6999,-7.6999,-7.6987,-7.6923,-7.6754,-7.6614,-7.6411,-7.5904,-7.5589,-7.5351,-7.5075,-7.4935,-7.4895,-7.4895,-7.4895,-7.4895,-6.9425,-6.9999,-7.0419,-7.0419,-7.0419,-7.0419,-7.0419,-7.0419,-7.0419,-7.0419,-7.0419,-7.0419,-7.0419,-7.0419,-7.0419,-7.0419,-7.061,-7.0686,-7.0686,-7.0877,-7.0839,-7.0419,-7.0419,-7.0419,-7.0419,-7.0419,-7.0419,-7.0419,-7.0522,-7.0554,-7.0554,-7.0708,-7.0801,-7.0939,-7.1104,-7.1246,-7.1436,-7.1573,-7.1661,-7.1732,-7.179,-7.177,-7.18,-7.1806,-7.1788,-7.1797,-7.1797,-7.1732,-7.1697,-7.1699,-7.1661,-7.1573,-7.155,-7.2483,-7.365,-7.3833,-7.5078,-7.6397,-7.6397,-7.6397,-7.6397,-7.6397,-7.6397,-7.6397,-7.6397,-7.6397,-7.6397,-7.6397,-7.6397,-7.6397,-7.6397,-7.6397,-7.6397,-7.6397,0.0,0.0,0.0,-7.6243,-7.6165,-7.6359,-7.6397,-7.6397,-7.6397,-7.6397,-7.6421,-7.6466,-7.6531,-7.6632,-7.6672,-7.6816,-7.6886,-7.6908,-7.6969,-7.6999,-7.6999,-7.6999,-7.6999,-7.6999,-7.6999,-7.6993,-7.6987,-7.6987,-7.6969,-7.689,-7.673,-7.6546,-7.6355,-7.5808,-7.5501,-7.5315,-7.5017,-7.4895,-7.4895,-7.4895,-7.4895,-7.4895,-7.019,-7.0381,-7.0419,-7.0419,-7.0419,-7.0419,-7.0419,-7.0419,-7.0419,-7.0419,-7.0419,-7.0419,-7.0419,-7.0419,-7.0419,-7.0419,-7.1145,-7.1603,-7.1603,-7.2367,-7.21,-7.0495,-7.0419,-7.0419,-7.0419,-7.0419,-7.0419,-7.0419,-7.0419,-7.0419,-7.0419,-7.0554,-7.0647,-7.0714,-7.0939,-7.1067,-7.1131,-7.1329,-7.149,-7.1622,-7.169,-7.1718,-7.1725,-7.1797,-7.1751,-7.1718,-7.1718,-7.1697,-7.1699,-7.1622,-7.1611,-7.1589,-7.1455,-7.2035,-7.2915,-7.3673,-7.5082,-7.6397,-7.6397,-7.6397,-7.6397,-7.6397,-7.6397,-7.6397,-7.6397,-7.6397,-7.6397,-7.6397,-7.6397,-7.6397,-7.6397,-7.6397,-7.6397,-7.6397,0.0,0.0,-7.6281,-7.5701,-7.5508,-7.6281,-7.6397,-7.6397,-7.6397,-7.6397,-7.6409,-7.6409,-7.651,-7.6612,-7.6622,-7.6726,-7.6832,-7.6904,-7.6981,-7.6999,-7.6999,-7.6999,-7.6999,-7.6999,-7.6999,-7.6981,-7.691,-7.691,-7.689,-7.6894,-7.6687,-7.6496,-7.6258,-7.5778,-7.5468,-7.5301,-7.5015,-7.4895,-7.4895,-7.4895,-7.4895,-7.4895,-7.0342,-7.0419,-7.0419,-7.0419,-7.0419,-7.0419,-7.0419,-7.0419,-7.0419,-7.0419,-7.0419,-7.0419,-7.0419,-7.0419,-7.061,-7.1145,-7.1489,-7.1909,-7.2482,-7.2826,-7.2711,-7.2024,-7.1489,-7.1221,-7.1221,-7.0686,-7.0419,-7.0419,-7.0419,-7.0419,-7.0419,-7.0451,-7.0554,-7.0632,-7.0743,-7.0885,-7.0992,-7.1139,-7.1317,-7.1482,-7.1542,-7.1614,-7.1718,-7.1732,-7.1711,-7.1683,-7.1653,-7.1661,-7.1611,-7.1568,-7.1513,-7.1465,-7.1425,-7.1975,-7.291,-7.4231,-7.5469,-7.6397,-7.6397,-7.6397,-7.6397,-7.6397,-7.6397,-7.6397,-7.6397,-7.6397,-7.6397,-7.6397,-7.6397,-7.6397,-7.6397,-7.6397,-7.6397,-7.6397,0.0,-7.6011,-7.6359,-7.6127,-7.6011,-7.6359,-7.6397,-7.6397,-7.6397,-7.6397,-7.6397,-7.6397,-7.6477,-7.657,-7.6612,-7.6717,-7.6817,-7.6915,-7.6929,-7.6956,-7.6999,-7.6999,-7.6999,-7.6999,-7.6975,-7.6923,-7.6904,-7.6883,-7.6894,-7.6809,-7.6669,-7.6465,-7.6197,-7.5763,-7.5489,-7.5245,-7.5015,-7.4895,-7.4895,-7.4895,-7.4895,-7.4895,-7.0419,-7.0419,-7.0419,-7.0419,-7.0419,-7.0419,-7.0419,-7.0419,-7.0419,-7.0419,-7.0419,-7.0419,-7.0419,-7.0648,-7.1068,-7.1642,-7.2176,-7.275,-7.3323,-7.3628,-7.3552,-7.3017,-7.2406,-7.21,-7.21,-7.1527,-7.1221,-7.1221,-7.1221,-7.1221,-7.1221,-7.1221,-7.1292,-7.1341,-7.1436,-7.1505,-7.1608,-7.1747,-7.1902,-7.2059,-7.2191,-7.2305,-7.2399,-7.2423,-7.2454,-7.2413,-7.238,-7.2189,-7.1959,-7.1872,-7.1678,-7.1415,-7.1394,-7.2137,-7.3226,-7.4386,-7.5508,-7.6397,-7.6397,-7.6397,-7.6397,-7.6397,-7.6397,-7.6397,-7.6397,-7.6397,-7.6397,-7.6397,-7.6397,-7.6397,-7.6397,-7.6397,-7.6397,-7.6397,-7.6397,-7.6397,-7.6397,-7.6397,-7.6397,-7.6397,-7.6397,-7.6397,-7.6397,-7.6397,-7.6397,-7.6397,-7.6455,-7.651,-7.6612,-7.669,-7.6777,-7.6856,-7.6871,-7.6908,-7.6969,-7.6969,-7.6969,-7.6969,-7.6904,-7.6883,-7.6869,-7.6832,-7.6793,-7.6743,-7.6594,-7.6366,-7.6056,-7.5726,-7.5438,-7.5209,-7.4995,-7.4895,-7.4895,-7.4895,-7.4895,-7.4895,-7.0419,-7.0419,-7.0419,-7.0419,-7.0419,-7.0419,-7.0419,-7.0419,-7.0419,-7.0419,-7.0419,-7.0419,-7.0419,-7.1183,-7.1735,-7.1735,-7.3246,-7.4201,-7.4201,-7.5004,-7.4736,-7.3093,-7.3017,-7.3017,-7.3017,-7.2979,-7.2979,-7.2979,-7.2979,-7.2979,-7.2979,-7.2979,-7.2979,-7.2979,-7.3062,-7.3111,-7.3111,-7.3231,-7.3356,-7.3509,-7.3712,-7.3828,-7.3893,-7.4044,-7.4053,-7.4014,-7.4014,-7.3423,-7.2715,-7.2703,-7.2151,-7.1405,-7.1313,-7.2491,-7.3883,-7.3883,-7.5082,-7.6397,-7.6397,-7.6397,-7.6397,-7.6397,-7.6397,-7.6397,-7.6397,-7.6397,-7.6397,-7.6397,-7.6397,-7.6397,-7.6397,-7.6397,-7.6397,-7.6397,-7.6397,-7.6397,-7.6397,-7.6397,-7.6397,-7.6397,-7.6397,-7.6397,-7.6397,-7.6397,-7.6397,-7.6397,-7.6455,-7.651,-7.6612,-7.6662,-7.6719,-7.6717,-7.6768,-7.6809,-7.6894,-7.6894,-7.6894,-7.6894,-7.6894,-7.6871,-7.6793,-7.6743,-7.6699,-7.6682,-7.6477,-7.6212,-7.587,-7.5622,-7.5297,-7.4997,-7.4935,-7.4895,-7.4895,-7.4895,-7.4895,-7.4895,-7.0419,-7.0419,-7.0419,-7.0419,-7.0419,-7.0419,-7.0419,-7.0419,-7.0419,-7.0419,-7.0419,-7.0648,-7.1259,-7.1527,-7.2176,-7.3361,-7.3896,-7.4469,-7.508,-7.5348,-7.5271,-7.4775,-7.4163,-7.3858,-7.3858,-7.3284,-7.2979,-7.2979,-7.2979,-7.2979,-7.2979,-7.2979,-7.2979,-7.3017,-7.2928,-7.2872,-7.2872,-7.2924,-7.3051,-7.323,-7.3455,-7.3639,-7.3828,-7.3943,-7.3994,-7.4004,-7.3964,-7.376,-7.3555,-7.3541,-7.3364,-7.3054,-7.2424,-7.2568,-7.3109,-7.3728,-7.4657,-7.5624,-7.6243,-7.6397,-7.6397,-7.6397,-7.6397,-7.6397,-7.6397,-7.6397,-7.6397,-7.6397,-7.6397,-7.6397,-7.6397,-7.6397,-7.6397,-7.6397,-7.6397,-7.6397,-7.6397,-7.6397,-7.6397,-7.6397,-7.6397,-7.6397,-7.6397,-7.6397,-7.6397,-7.6397,-7.6455,-7.6488,-7.651,-7.6612,-7.6642,-7.6623,-7.6633,-7.6652,-7.671,-7.684,-7.6894,-7.6894,-7.6864,-7.6785,-7.6743,-7.6699,-7.6662,-7.6531,-7.6397,-7.6133,-7.581,-7.554,-7.5243,-7.4997,-7.4935,-7.4895,-7.4895,-7.4895,-7.4895,-7.4895,-7.0419,-7.0419,-7.0419,-7.0419,-7.0419,-7.0419,-7.0419,-7.0419,-7.0419,-7.0419,-7.0419,-7.0724,-7.1603,-7.1985,-7.275,-7.4087,-7.4507,-7.4927,-7.548,-7.5518,-7.5518,-7.5518,-7.5004,-7.4698,-7.4698,-7.424,-7.3972,-7.3972,-7.3938,-7.392,-7.392,-7.3885,-7.385,-7.385,-7.3796,-7.376,-7.376,-7.376,-7.3847,-7.3959,-7.4143,-7.4332,-7.4617,-7.4717,-7.48,-7.4917,-7.4906,-7.4663,-7.4392,-7.4359,-7.4154,-7.3806,-7.3264,-7.3342,-7.369,-7.4231,-7.4966,-7.574,-7.6243,-7.6397,-7.6397,-7.6397,-7.6397,-7.6397,-7.6397,-7.6397,-7.6397,-7.6397,-7.6397,-7.6397,-7.6397,-7.6397,-7.6397,-7.6397,-7.6397,-7.6397,-7.6397,-7.6397,-7.6397,-7.6397,-7.6397,-7.6397,-7.6397,-7.6397,-7.6397,-7.6397,-7.6432,-7.6455,-7.6455,-7.651,-7.6581,-7.6581,-7.6602,-7.6612,-7.6612,-7.6738,-7.6799,-7.6799,-7.6726,-7.6699,-7.6662,-7.6614,-7.6542,-7.6444,-7.6225,-7.5957,-7.567,-7.5424,-7.519,-7.4937,-7.4915,-7.4895,-7.4895,-7.4895,-7.4895,-7.4895,-7.0419,-7.0419,-7.0419,-7.0419,-7.0419,-7.0419,-7.0419,-7.0419,-7.0419,-7.0419,-7.0419,-7.0724,-7.1603,-7.2482,-7.3323,-7.4125,-7.5004,-7.5501,-7.5483,-7.5483,-7.5483,-7.5483,-7.5483,-7.5483,-7.5483,-7.5501,-7.5501,-7.5483,-7.5356,-7.5301,-7.5301,-7.5247,-7.5209,-7.5209,-7.519,-7.519,-7.519,-7.5171,-7.519,-7.5263,-7.5371,-7.5523,-7.5818,-7.5943,-7.6133,-7.6313,-7.6374,-7.5895,-7.5237,-7.5237,-7.4695,-7.3999,-7.3999,-7.4463,-7.5005,-7.5071,-7.5662,-7.6281,-7.6359,-7.6397,-7.6397,-7.6397,-7.6397,-7.6397,-7.6397,-7.6397,-7.6397,-7.6397,-7.6397,-7.6397,-7.6397,-7.6397,-7.6397,-7.6397,-7.6397,-7.6397,-7.6397,-7.6397,-7.6397,-7.6397,-7.6397,-7.6397,-7.6397,-7.6397,-7.6397,-7.6397,-7.6397,-7.6397,-7.6397,-7.6455,-7.6477,-7.6477,-7.6531,-7.6602,-7.6602,-7.6602,-7.6602,-7.6612,-7.6612,-7.6612,-7.6602,-7.651,-7.6444,-7.6362,-7.6052,-7.5733,-7.5472,-7.5264,-7.5074,-7.4895,-7.4895,-7.4895,-7.4895,-7.4895,-7.4895,-7.4895,-7.0419,-7.0419,-7.0419,-7.0419,-7.0419,-7.0419,-7.0419,-7.0419,-7.0419,-7.0419,-7.0419,-7.0724,-7.1603,-7.2482,-7.3323,-7.4125,-7.4895,-7.532,-7.5284,-7.5265,-7.5265,-7.5265,-7.5265,-7.5265,-7.5265,-7.532,-7.532,-7.5265,-7.5247,-7.5228,-7.5228,-7.5209,-7.5209,-7.519,-7.5075,-7.5056,-7.5036,-7.4995,-7.4977,-7.5095,-7.519,-7.5445,-7.574,-7.587,-7.6093,-7.6313,-7.6374,-7.6281,-7.6127,-7.6127,-7.5546,-7.4839,-7.4839,-7.4541,-7.427,-7.4928,-7.5237,-7.5546,-7.6204,-7.6397,-7.6397,-7.6397,-7.6397,-7.6397,-7.6397,-7.6397,-7.6397,-7.6397,-7.6397,-7.6397,-7.6397,-7.6397,-7.6397,-7.6397,-7.6397,-7.6397,-7.6397,-7.6397,-7.6397,-7.6397,-7.6397,-7.6397,-7.6397,-7.6397,-7.6397,-7.6397,-7.6397,-7.6397,-7.6397,-7.6409,-7.6421,-7.6421,-7.6432,-7.6444,-7.6444,-7.6444,-7.6488,-7.6612,-7.6612,-7.6591,-7.6499,-7.6444,-7.6338,-7.6159,-7.5864,-7.5595,-7.5318,-7.5152,-7.4977,-7.4895,-7.4895,-7.4895,-7.4895,-7.4895,-7.4895,-7.4895,-7.0419,-7.0419,-7.0419,-7.0419,-7.0419,-7.0419,-7.0419,-7.0419,-7.0419,-7.0419,-7.0419,-7.0724,-7.1603,-7.2482,-7.3458,-7.4628,-7.5034,-7.5227,-7.5209,-7.5209,-7.5209,-7.5209,-7.5209,-7.5171,-7.5095,-7.5152,-7.5171,-7.5209,-7.5152,-7.5095,-7.5095,-7.5074,-7.5055,-7.5055,-7.4957,-7.4937,-7.4937,-7.4915,-7.4915,-7.4937,-7.5035,-7.5227,-7.5527,-7.5654,-7.5938,-7.6225,-7.6326,-7.6374,-7.6397,-7.6397,-7.6088,-7.574,-7.574,-7.543,-7.5198,-7.5585,-7.574,-7.5817,-7.6281,-7.6397,-7.6397,-7.6397,-7.6397,-7.6397,-7.6397,-7.6397,-7.6397,-7.6397,-7.6397,-7.6397,-7.6397,-7.6397,-7.6397,-7.6397,-7.6397,-7.6397,-7.6397,-7.6397,-7.6397,-7.6397,-7.6397,-7.6397,-7.6397,-7.6397,-7.6397,-7.6397,-7.6397,-7.6397,-7.6397,-7.6397,-7.6397,-7.6397,-7.6397,-7.6397,-7.6397,-7.6397,-7.6432,-7.6499,-7.6499,-7.6466,-7.6397,-7.6338,-7.6198,-7.5923,-7.5692,-7.5442,-7.5227,-7.5036,-7.4935,-7.4895,-7.4895,-7.4895,-7.4895,-7.4895,-7.4895,-7.4895,-7.0419,-7.0419,-7.0419,-7.0419,-7.0419,-7.0419,-7.0419,-7.0419,-7.0419,-7.0419,-7.0419,-7.0686,-7.1412,-7.2351,-7.3598,-7.513,-7.519,-7.5171,-7.5152,-7.5152,-7.5152,-7.5152,-7.5152,-7.5113,-7.4997,-7.4997,-7.5036,-7.5152,-7.5036,-7.4997,-7.4997,-7.4935,-7.4895,-7.4895,-7.4895,-7.4895,-7.4895,-7.4895,-7.4895,-7.4895,-7.4895,-7.5036,-7.53,-7.5455,-7.5733,-7.6118,-7.625,-7.635,-7.6397,-7.6397,-7.6397,-7.6397,-7.6397,-7.6397,-7.6397,-7.6397,-7.6397,-7.6397,-7.6397,-7.6397,-7.6397,-7.6397,-7.6397,-7.6397,-7.6397,-7.6397,-7.6397,-7.6397,-7.6397,-7.6397,-7.6397,-7.6397,-7.6397,-7.6397,-7.6397,-7.6397,-7.6397,-7.6397,-7.6397,-7.6397,-7.6397,-7.6397,-7.6397,-7.6397,-7.6397,-7.6397,-7.6397,-7.6397,-7.6397,-7.6397,-7.6397,-7.6397,-7.6397,-7.6397,-7.6397,-7.6397,-7.6397,-7.6397,-7.6386,-7.6362,-7.6301,-7.6198,-7.601,-7.5772,-7.551,-7.5281,-7.5171,-7.4975,-7.4895,-7.4895,-7.4895,-7.4895,-7.4895,-7.4895,-7.4895,-7.4895,-7.0419,-7.0419,-7.0419,-7.0419,-7.0419,-7.0419,-7.0419,-7.0419,-7.0419,-7.0419,-7.0419,-7.0457,-7.0572,-7.1901,-7.3435,-7.4923,-7.5056,-7.4997,-7.4935,-7.4935,-7.4935,-7.4935,-7.4935,-7.4935,-7.4915,-7.4915,-7.4915,-7.4935,-7.4915,-7.4915,-7.4915,-7.4895,-7.4895,-7.4895,-7.4895,-7.4895,-7.4895,-7.4895,-7.4895,-7.4895,-7.4895,-7.5036,-7.53,-7.5455,-7.5733,-7.6118,-7.625,-7.635,-7.6397,-7.6397,-7.6397,-7.6397,-7.6397,-7.6397,-7.6397,-7.6397,-7.6397,-7.6397,-7.6397,-7.6397,-7.6397,-7.6397,-7.6397,-7.6397,-7.6397,-7.6397,-7.6397,-7.6397,-7.6397,-7.6397,-7.6397,-7.6397,-7.6397,-7.6397,-7.6397,-7.6397,-7.6397,-7.6397,-7.6397,-7.6397,-7.6397,-7.6397,-7.6397,-7.6397,-7.6397,-7.6397,-7.6397,-7.6397,-7.6397,-7.6397,-7.6397,-7.6397,-7.6397,-7.6397,-7.6397,-7.6397,-7.6397,-7.6397,-7.635,-7.6313,-7.6301,-7.6066,-7.5879,-7.5692,-7.5374,-7.5133,-7.5036,-7.4935,-7.4895,-7.4895,-7.4895,-7.4895,-7.4895,-7.4895,-7.4895,-7.4895,-7.0419,-7.0419,-7.0419,-7.0419,-7.0419,-7.0419,-7.0419,-7.0419,-7.0402,-7.0353,-7.0336,-7.0319,-7.0268,-7.1705,-7.3288,-7.4865,-7.4957,-7.4935,-7.4895,-7.4895,-7.4895,-7.4895,-7.4895,-7.4895,-7.4895,-7.4895,-7.4895,-7.4895,-7.4895,-7.4895,-7.4895,-7.4895,-7.4895,-7.4895,-7.4895,-7.4895,-7.4895,-7.4895,-7.4895,-7.4895,-7.4895,-7.5055,-7.5246,-7.5368,-7.567,-7.6024,-7.6288,-7.6374,-7.6397,-7.6397,-7.6397,-7.6397,-7.6397,-7.6397,-7.6397,-7.6397,-7.6397,-7.6397,-7.6397,-7.6397,-7.6397,-7.6397,-7.6397,-7.6397,-7.6397,-7.6397,-7.6397,-7.6397,-7.6397,-7.6397,-7.6397,-7.6397,-7.6397,-7.6397,-7.6397,-7.6397,-7.6397,-7.6397,-7.6397,-7.6397,-7.6397,-7.6397,-7.6397,-7.6397,-7.6397,-7.6397,-7.6397,-7.6397,-7.6397,-7.6397,-7.6397,-7.6397,-7.6397,-7.6397,-7.6397,-7.6397,-7.6397,-7.6397,-7.6338,-7.6263,-7.6185,-7.5923,-7.5692,-7.5459,-7.5209,-7.5017,-7.4955,-7.4915,-7.4895,-7.4895,-7.4895,-7.4895,-7.4895,-7.4895,-7.4895,-7.4895]},{"header":{"parameterUnit":"m.s-1","parameterCategory":1,"la1":30.6,"la2":28.766,"lo1":-90.7593,"lo2":-88.6598,"dy":0.0162,"dx":0.0183,"nx":116,"ny":114,"refTime":"2024-05-09T12:00:00:Z","depth":0,"parameterNumber":3,"parameterNumberName":"V-component_of_WINDS"},"data":[0.0,0.0,0.0,0.0,0.0,0.0,0.0,0.0,0.0,0.0,0.0,0.0,0.0,0.0,0.0,0.0,0.0,0.0,0.0,0.0,0.0,0.0,0.0,0.0,0.0,0.0,0.0,0.0,0.0,0.0,0.0,0.0,0.0,0.0,0.0,0.0,0.0,0.0,0.0,0.0,0.0,0.0,0.0,0.0,0.0,0.0,0.0,0.0,0.0,0.0,0.0,0.0,0.0,0.0,0.0,0.0,0.0,0.0,0.0,0.0,0.0,0.0,0.0,0.0,0.0,0.0,0.0,0.0,0.0,0.0,0.0,0.0,0.0,0.0,0.0,0.0,0.0,0.0,0.0,0.0,0.0,0.0,0.0,0.0,0.0,0.0,0.0,0.0,0.0,0.0,0.0,0.0,0.0,0.0,0.0,0.0,0.0,0.0,0.0,0.0,0.0,0.0,0.0,0.0,0.0,0.0,0.0,0.0,0.0,0.0,0.0,0.0,0.0,0.0,0.0,0.0,0.0,0.0,0.0,0.0,0.0,0.0,0.0,0.0,0.0,0.0,0.0,0.0,0.0,0.0,0.0,0.0,0.0,0.0,0.0,0.0,0.0,0.0,0.0,0.0,0.0,0.0,0.0,0.0,0.0,0.0,0.0,0.0,0.0,0.0,0.0,0.0,0.0,0.0,0.0,0.0,0.0,0.0,0.0,0.0,0.0,0.0,0.0,0.0,0.0,0.0,0.0,0.0,0.0,0.0,0.0,0.0,0.0,0.0,0.0,0.0,0.0,0.0,0.0,0.0,0.0,0.0,0.0,0.0,0.0,0.0,0.0,0.0,0.0,0.0,0.0,0.0,0.0,0.0,0.0,0.0,0.0,0.0,0.0,0.0,0.0,0.0,0.0,0.0,0.0,0.0,0.0,0.0,0.0,0.0,0.0,0.0,0.0,0.0,0.0,0.0,0.0,0.0,0.0,0.0,0.0,0.0,0.0,0.0,0.0,0.0,0.0,0.0,0.0,0.0,0.0,0.0,0.0,0.0,0.0,0.0,0.0,0.0,0.0,0.0,0.0,0.0,0.0,0.0,0.0,0.0,0.0,0.0,0.0,0.0,0.0,0.0,0.0,0.0,0.0,0.0,0.0,0.0,0.0,0.0,0.0,0.0,0.0,0.0,0.0,0.0,0.0,0.0,0.0,0.0,0.0,0.0,0.0,0.0,0.0,0.0,0.0,0.0,0.0,0.0,0.0,0.0,0.0,0.0,0.0,0.0,0.0,0.0,0.0,0.0,0.0,0.0,0.0,0.0,0.0,0.0,0.0,0.0,0.0,0.0,0.0,0.0,0.0,0.0,0.0,0.0,0.0,0.0,0.0,0.0,0.0,0.0,0.0,0.0,0.0,0.0,0.0,0.0,0.0,0.0,0.0,0.0,0.0,0.0,0.0,0.0,0.0,0.0,0.0,0.0,0.0,0.0,0.0,0.0,0.0,0.0,0.0,0.0,0.0,0.0,0.0,0.0,0.0,0.0,0.0,0.0,0.0,0.0,0.0,0.0,0.0,0.0,0.0,0.0,0.0,0.0,0.0,0.0,0.0,0.0,0.0,0.0,0.0,0.0,0.0,0.0,0.0,0.0,0.0,0.0,0.0,0.0,0.0,0.0,0.0,0.0,0.0,0.0,0.0,0.0,0.0,0.0,0.0,0.0,0.0,0.0,0.0,0.0,0.0,0.0,0.0,0.0,0.0,0.0,0.0,0.0,0.0,0.0,0.0,0.0,0.0,0.0,0.0,0.0,0.0,0.0,0.0,0.0,0.0,0.0,0.0,0.0,0.0,0.0,0.0,0.0,0.0,0.0,0.0,0.0,0.0,0.0,0.0,0.0,0.0,0.0,0.0,0.0,0.0,0.0,0.0,0.0,0.0,0.0,0.0,0.0,0.0,0.0,0.0,0.0,0.0,0.0,0.0,0.0,0.0,0.0,0.0,0.0,0.0,0.0,0.0,0.0,0.0,0.0,0.0,0.0,0.0,0.0,0.0,0.0,0.0,0.0,0.0,0.0,0.0,0.0,0.0,0.0,0.0,0.0,0.0,0.0,0.0,0.0,0.0,0.0,0.0,0.0,0.0,0.0,0.0,0.0,0.0,0.0,0.0,0.0,0.0,0.0,0.0,0.0,0.0,0.0,0.0,0.0,0.0,0.0,0.0,0.0,0.0,0.0,0.0,0.0,0.0,0.0,0.0,0.0,0.0,0.0,0.0,0.0,0.0,0.0,0.0,0.0,0.0,0.0,0.0,0.0,0.0,0.0,0.0,0.0,0.0,0.0,0.0,0.0,0.0,0.0,0.0,0.0,0.0,0.0,0.0,0.0,0.0,0.0,0.0,0.0,0.0,0.0,0.0,0.0,0.0,0.0,0.0,0.0,0.0,0.0,0.0,0.0,0.0,0.0,0.0,0.0,0.0,0.0,0.0,0.0,0.0,0.0,0.0,0.0,0.0,0.0,0.0,0.0,0.0,0.0,0.0,0.0,0.0,0.0,0.0,0.0,0.0,0.0,0.0,0.0,0.0,0.0,0.0,0.0,0.0,0.0,0.0,0.0,0.0,0.0,0.0,0.0,0.0,0.0,0.0,0.0,0.0,0.0,0.0,0.0,0.0,0.0,0.0,0.0,0.0,0.0,0.0,0.0,0.0,0.0,0.0,0.0,0.0,0.0,0.0,0.0,0.0,0.0,0.0,0.0,0.0,0.0,0.0,0.0,0.0,0.0,0.0,0.0,0.0,0.0,0.0,0.0,0.0,0.0,0.0,0.0,0.0,0.0,0.0,0.0,0.0,0.0,0.0,0.0,0.0,0.0,0.0,0.0,0.0,0.0,0.0,0.0,0.0,0.0,0.0,0.0,0.0,0.0,0.0,0.0,0.0,0.0,0.0,0.0,0.0,0.0,0.0,0.0,0.0,0.0,0.0,0.0,0.0,0.0,0.0,0.0,0.0,0.0,0.0,0.0,0.0,0.0,0.0,0.0,0.0,0.0,0.0,0.0,0.0,0.0,0.0,0.0,0.0,0.0,0.0,0.0,0.0,0.0,0.0,0.0,0.0,0.0,0.0,0.0,0.0,0.0,0.0,0.0,0.0,0.0,0.0,0.0,0.0,0.0,0.0,0.0,0.0,0.0,0.0,0.0,0.0,0.0,0.0,0.0,0.0,0.0,0.0,0.0,0.0,0.0,0.0,0.0,0.0,0.0,0.0,0.0,0.0,0.0,0.0,0.0,0.0,0.0,0.0,0.0,0.0,0.0,0.0,0.0,0.0,0.0,0.0,0.0,0.0,0.0,0.0,0.0,0.0,0.0,0.0,0.0,0.0,0.0,0.0,0.0,0.0,0.0,0.0,0.0,0.0,0.0,0.0,0.0,0.0,0.0,0.0,0.0,0.0,0.0,0.0,0.0,0.0,0.0,0.0,0.0,0.0,0.0,0.0,0.0,0.0,0.0,0.0,0.0,0.0,0.0,0.0,0.0,0.0,0.0,0.0,0.0,0.0,0.0,0.0,0.0,0.0,0.0,0.0,0.0,0.0,0.0,0.0,0.0,0.0,0.0,0.0,0.0,0.0,0.0,0.0,0.0,0.0,0.0,0.0,0.0,0.0,0.0,0.0,0.0,0.0,0.0,0.0,0.0,0.0,0.0,0.0,0.0,0.0,0.0,0.0,0.0,0.0,0.0,0.0,0.0,0.0,0.0,0.0,0.0,0.0,0.0,0.0,0.0,0.0,0.0,0.0,0.0,0.0,0.0,0.0,0.0,0.0,0.0,0.0,0.0,0.0,0.0,0.0,0.0,0.0,0.0,0.0,0.0,0.0,0.0,0.0,0.0,0.0,0.0,0.0,0.0,0.0,0.0,0.0,0.0,0.0,0.0,0.0,0.0,0.0,0.0,0.0,0.0,0.0,0.0,0.0,0.0,0.0,0.0,0.0,0.0,0.0,0.0,0.0,0.0,0.0,0.0,0.0,0.0,0.0,0.0,0.0,0.0,0.0,0.0,0.0,0.0,0.0,0.0,0.0,0.0,0.0,0.0,0.0,0.0,0.0,0.0,0.0,0.0,0.0,0.0,0.0,0.0,0.0,0.0,0.0,0.0,0.0,0.0,0.0,0.0,0.0,0.0,0.0,0.0,0.0,0.0,0.0,0.0,0.0,0.0,0.0,0.0,0.0,0.0,0.0,0.0,0.0,0.0,0.0,0.0,0.0,0.0,0.0,0.0,0.0,0.0,0.0,0.0,0.0,0.0,0.0,0.0,0.0,0.0,0.0,0.0,0.0,0.0,0.0,0.0,0.0,0.0,0.0,0.0,0.0,0.0,0.0,0.0,0.0,0.0,0.0,0.0,0.0,0.0,0.0,0.0,0.0,0.0,0.0,0.0,0.0,0.0,0.0,0.0,0.0,0.0,0.0,0.0,0.0,0.0,0.0,0.0,0.0,0.0,0.0,0.0,0.0,0.0,0.0,0.0,0.0,0.0,0.0,0.0,0.0,0.0,0.0,0.0,0.0,0.0,0.0,0.0,0.0,0.0,0.0,0.0,0.0,0.0,0.0,0.0,0.0,0.0,0.0,0.0,0.0,0.0,0.0,0.0,0.0,0.0,0.0,0.0,0.0,0.0,0.0,0.0,0.0,0.0,0.0,0.0,0.0,0.0,0.0,0.0,0.0,0.0,0.0,0.0,0.0,0.0,0.0,0.0,0.0,0.0,0.0,0.0,0.0,0.0,0.0,0.0,0.0,0.0,0.0,0.0,0.0,0.0,0.0,0.0,0.0,0.0,0.0,0.0,0.0,0.0,0.0,0.0,0.0,0.0,0.0,0.0,0.0,0.0,0.0,0.0,0.0,0.0,0.0,0.0,0.0,0.0,0.0,0.0,0.0,0.0,0.0,0.0,0.0,0.0,0.0,0.0,0.0,0.0,0.0,0.0,0.0,0.0,0.0,0.0,0.0,0.0,0.0,0.0,0.0,0.0,0.0,0.0,0.0,0.0,0.0,0.0,0.0,0.0,0.0,0.0,0.0,0.0,0.0,0.0,0.0,0.0,0.0,0.0,0.0,0.0,0.0,0.0,0.0,0.0,0.0,0.0,0.0,0.0,0.0,0.0,0.0,0.0,0.0,0.0,0.0,0.0,0.0,0.0,0.0,0.0,0.0,0.0,0.0,0.0,0.0,0.0,0.0,0.0,0.0,0.0,0.0,0.0,0.0,0.0,0.0,0.0,0.0,0.0,0.0,0.0,0.0,0.0,0.0,0.0,0.0,0.0,0.0,0.0,0.0,0.0,0.0,0.0,0.0,0.0,0.0,0.0,0.0,0.0,0.0,0.0,0.0,0.0,0.0,0.0,0.0,0.0,0.0,0.0,0.0,0.0,0.0,0.0,0.0,0.0,0.0,0.0,0.0,0.0,0.0,0.0,0.0,0.0,0.0,0.0,0.0,0.0,0.0,0.0,0.0,0.0,0.0,0.0,0.0,0.0,0.0,0.0,0.0,0.0,0.0,0.0,0.0,0.0,0.0,0.0,0.0,0.0,0.0,0.0,0.0,0.0,0.0,0.0,0.0,0.0,0.0,0.0,0.0,0.0,0.0,0.0,0.0,0.0,0.0,0.0,0.0,0.0,0.0,0.0,0.0,0.0,0.0,0.0,0.0,0.0,0.0,0.0,0.0,0.0,0.0,0.0,0.0,0.0,0.0,0.0,0.0,0.0,0.0,0.0,0.0,0.0,0.0,0.0,0.0,0.0,0.0,0.0,0.0,0.0,0.0,0.0,0.0,0.0,0.0,0.0,0.0,0.0,0.0,0.0,0.0,0.0,0.0,0.0,0.0,0.0,0.0,0.0,0.0,0.0,0.0,0.0,0.0,0.0,0.0,0.0,0.0,0.0,0.0,0.0,0.0,0.0,0.0,0.0,0.0,0.0,0.0,0.0,0.0,0.0,0.0,0.0,0.0,0.0,0.0,0.0,0.0,0.0,0.0,0.0,0.0,0.0,0.0,0.0,0.0,0.0,0.0,0.0,0.0,0.0,0.0,0.0,0.0,0.0,0.0,0.0,0.0,0.0,0.0,0.0,1.7917,0.0,0.0,0.0,0.0,0.0,0.0,0.0,0.0,0.0,0.0,0.0,0.0,0.0,0.0,0.0,0.0,0.0,0.0,0.0,0.0,0.0,0.0,0.0,0.0,1.1605,1.1386,1.1326,1.1186,1.1106,1.119,0.0,0.0,0.0,0.0,0.0,0.9147,0.8778,0.8476,0.8139,0.7996,0.7954,0.8076,0.7948,0.7861,0.7687,0.0,0.0,0.0,0.0,0.0,0.0,0.0,0.0,0.0,0.0,0.0,0.0,0.0,0.0,0.0,0.0,0.0,0.0,0.0,0.0,0.0,0.0,0.0,0.0,0.0,0.0,0.0,0.0,0.0,0.0,0.0,0.0,0.0,0.0,0.0,0.0,0.0,0.0,0.0,0.0,0.0,0.0,0.0,0.0,0.0,0.0,0.0,0.0,0.0,0.0,0.0,0.0,0.0,0.0,0.0,0.0,0.0,0.0,0.0,0.0,0.0,0.0,0.0,0.0,0.0,0.0,0.0,0.0,0.0,0.0,0.0,1.821,0.0,0.0,0.0,0.0,0.0,0.0,0.0,0.0,0.0,0.0,0.0,0.0,0.0,0.0,0.0,0.0,0.0,0.0,0.0,0.0,0.0,1.1841,1.1563,1.1311,1.1168,1.1264,1.1228,1.1136,1.0954,1.0751,1.0476,1.0147,0.9625,0.9189,0.885,0.8665,0.8349,0.7852,0.8016,0.8144,0.818,0.818,0.8062,0.7964,0.7943,0.0,0.0,0.0,0.0,0.0,0.0,0.0,0.0,0.0,0.0,0.0,0.0,0.0,0.0,0.0,0.0,0.0,0.0,0.0,0.0,0.0,0.0,0.0,0.0,0.0,0.0,0.0,0.0,0.0,0.0,0.0,0.0,0.0,0.0,0.0,0.0,0.0,0.0,0.0,0.0,0.0,0.0,0.0,0.0,0.0,0.0,0.0,0.0,0.0,0.0,0.0,0.0,0.0,0.0,0.0,0.0,0.0,0.0,0.0,0.0,0.0,0.0,0.0,1.8603,1.8607,1.8787,1.8787,1.8891,1.9061,1.8721,1.8749,1.9004,1.8654,0.0,0.0,0.0,0.0,0.0,0.0,0.0,0.0,0.0,0.0,0.0,0.0,0.0,0.0,0.0,0.0,0.0,0.0,0.0,1.1295,1.1538,1.0964,1.0683,1.1076,1.0929,1.0672,1.0421,1.0366,1.0091,0.9541,0.9279,0.901,0.8728,0.8296,0.8067,0.8064,0.8116,0.8236,0.8372,0.8372,0.8361,0.8339,0.8236,0.8378,0.8747,0.0,0.0,0.0,0.0,0.0,0.0,0.0,0.0,0.0,0.0,0.0,0.0,0.0,0.0,0.0,0.0,0.0,0.0,0.0,0.0,0.0,0.0,0.0,0.0,0.0,0.0,0.0,0.0,0.0,0.0,0.0,0.0,0.0,0.0,0.0,0.0,0.0,0.0,0.0,0.0,0.0,1.4042,1.4066,0.0,0.0,0.0,0.0,0.0,0.0,0.0,0.0,0.0,0.0,0.0,0.0,0.0,1.8456,1.8853,1.8853,1.8966,1.9174,1.9174,1.9193,1.9212,1.9212,1.9325,1.9514,1.9458,0.0,1.925,1.9193,0.0,0.0,0.0,0.0,0.0,0.0,0.0,0.0,0.0,0.0,0.0,0.0,0.0,0.0,0.0,0.0,0.0,0.0,0.0,0.0,0.0,1.0571,1.0506,1.0844,1.0675,1.0524,1.0319,0.9898,0.9559,0.9223,0.8834,0.8508,0.8302,0.8213,0.821,0.8289,0.8322,0.8399,0.8513,0.8513,0.8513,0.8513,0.8459,0.855,0.8736,0.9064,0.0,0.0,0.0,0.0,0.0,0.0,0.0,0.0,0.0,0.0,0.0,0.0,0.0,0.0,0.0,0.0,0.0,0.0,0.0,0.0,0.0,0.0,0.0,0.0,0.0,0.0,0.0,0.0,0.0,0.0,0.0,0.0,0.0,0.0,0.0,0.0,0.0,0.0,0.0,1.3682,1.3881,1.3881,1.4046,1.4172,0.0,0.0,0.0,0.0,0.0,0.0,0.0,0.0,0.0,1.8522,1.8645,1.8853,1.9155,1.9155,1.9259,1.9467,1.9467,1.9533,1.9647,1.9647,1.9694,1.9779,1.9779,1.9732,1.9637,1.9514,1.941,1.9316,0.0,0.0,0.0,0.0,1.9155,1.9184,0.0,0.0,0.0,0.0,0.0,0.0,0.0,0.0,0.0,0.0,0.0,0.0,1.017,1.0179,1.0257,1.0476,1.0468,1.0331,0.9989,0.9497,0.9077,0.8754,0.8368,0.8113,0.7914,0.8071,0.818,0.8285,0.8186,0.8244,0.8323,0.8456,0.8456,0.8456,0.859,0.8618,0.8711,0.9062,0.9309,0.9532,0.0,0.0,0.0,0.0,0.0,0.0,0.0,0.0,0.0,0.0,0.0,0.0,0.0,0.0,0.0,0.0,0.0,0.0,0.0,0.0,0.0,0.0,0.0,0.0,0.0,0.0,0.0,0.0,0.0,0.0,0.0,0.0,0.0,0.0,0.0,0.0,0.0,1.372,1.3734,1.3698,1.396,1.4099,0.0,0.0,0.0,0.0,0.0,0.0,1.7467,1.7969,1.8469,1.8825,1.8976,1.9155,1.9373,1.9373,1.9477,1.9675,1.9675,1.976,1.9921,1.9921,1.9921,1.9921,1.9921,1.9921,1.9911,1.9751,1.9647,1.9581,1.9429,1.9344,1.9306,1.9354,1.9373,1.9401,0.0,0.0,0.0,0.0,0.0,0.0,0.0,0.0,0.0,0.0,0.0,0.9514,0.9464,0.9651,0.9816,0.9871,1.0245,1.0044,0.9044,0.9205,0.8839,0.7789,0.7961,0.798,0.7633,0.7666,0.777,0.7953,0.7668,0.7522,0.7593,0.7922,0.8123,0.8123,0.8456,0.8579,0.8629,0.8847,0.9116,0.941,0.9469,0.0,0.0,0.0,0.0,0.0,0.0,0.0,0.0,0.0,0.0,0.0,0.0,0.0,0.0,0.0,0.0,0.0,0.0,0.0,0.0,0.0,0.0,0.0,0.0,0.0,0.0,0.0,0.0,0.0,0.0,0.0,0.0,0.0,0.0,0.0,0.0,0.0,0.0,1.4001,1.4094,0.0,0.0,0.0,0.0,1.5723,1.5985,1.661,1.7648,1.7928,1.8422,1.925,1.9278,1.9382,1.9581,1.9581,1.9694,1.9902,1.9902,1.9911,1.9921,1.9921,1.9921,1.9921,1.9921,1.9921,1.9921,1.9911,1.9779,1.9599,1.959,1.9467,1.9316,1.9514,1.9581,1.9609,0.0,0.0,0.0,0.0,0.0,1.155,1.1376,1.0756,1.0113,0.9635,0.933,0.9085,0.9085,0.9375,0.9541,0.9541,0.9667,0.946,0.8802,0.8479,0.8083,0.769,0.7352,0.7261,0.7348,0.7217,0.7164,0.7332,0.7236,0.7187,0.7187,0.7526,0.7727,0.7727,0.8123,0.8256,0.8323,0.8806,0.9073,0.9122,0.9607,0.9779,0.0,0.0,0.0,0.0,0.0,0.0,0.0,0.0,0.0,0.0,0.0,0.0,0.0,0.0,0.0,0.0,0.0,0.0,0.0,0.0,0.0,0.0,0.0,0.0,0.0,0.0,0.0,0.0,0.0,0.0,0.0,0.0,0.0,0.0,0.0,0.0,0.0,1.2712,1.2854,0.0,1.3502,1.4165,1.4703,1.5108,1.5827,1.6568,1.7298,1.8135,1.8827,1.9486,1.9628,1.9732,1.9807,1.9807,1.9845,1.9921,1.9921,1.9921,1.9921,1.9921,1.9921,1.9921,1.9921,1.9921,1.9921,1.9921,1.9873,1.9807,1.9807,1.976,1.9703,1.9779,1.9807,1.9817,0.0,0.0,0.0,1.1858,1.1578,1.1291,1.1052,1.0254,0.9519,0.9016,0.8761,0.854,0.8484,0.8816,0.9009,0.8834,0.8946,0.8756,0.8145,0.7794,0.7496,0.722,0.6747,0.6664,0.7057,0.6545,0.6357,0.6451,0.6313,0.6313,0.6451,0.692,0.7192,0.7326,0.7856,0.8123,0.8123,0.8717,0.8938,0.8996,0.9472,0.9671,0.9684,0.0,0.0,0.0,0.0,0.0,0.0,0.0,0.0,0.0,0.0,0.0,0.0,0.0,0.0,0.0,0.0,0.0,0.0,0.0,0.0,0.0,0.0,0.0,0.0,0.0,0.0,0.0,0.0,0.0,0.0,0.0,0.0,0.0,0.0,1.216,1.1682,1.1739,1.1876,1.22,1.3017,1.365,1.4196,1.4712,1.5455,1.6301,1.7247,1.8154,1.894,1.9703,1.9845,1.9921,1.9921,1.9921,1.9921,1.9921,1.9921,1.9921,1.9921,1.9921,1.9921,1.9921,1.9921,1.9921,1.9921,1.9921,1.9921,1.9921,1.9921,1.9921,1.9921,1.9921,1.9921,1.9921,0.0,1.1479,1.1291,1.169,1.1538,1.1078,1.0482,0.9806,0.903,0.8097,0.7986,0.7881,0.7604,0.8103,0.8264,0.7715,0.8077,0.7979,0.7046,0.72,0.6972,0.6206,0.6015,0.6197,0.6701,0.5661,0.5175,0.5312,0.4973,0.4977,0.5379,0.6116,0.6652,0.6987,0.7722,0.8056,0.8123,0.8456,0.8784,0.9105,0.8924,0.9329,0.9948,0.0,0.0,0.0,0.0,0.0,0.0,0.0,0.0,0.0,0.0,0.0,0.0,0.0,0.0,0.0,0.0,0.0,0.0,0.0,0.0,0.0,0.0,0.0,0.0,0.0,0.0,0.0,0.0,0.0,0.0,0.0,0.0,0.0,1.1871,1.166,1.1311,1.1119,1.1245,1.1825,1.3155,1.3043,1.3381,1.4729,1.5038,1.5879,1.7362,1.788,1.8745,1.9824,1.9921,1.9921,1.9921,1.9921,1.9921,1.9921,1.9921,1.9921,1.9921,1.9921,1.9921,1.9921,1.9921,1.9921,1.9921,1.9921,1.9921,1.9921,1.9921,1.9921,1.9921,1.9921,1.9921,1.9921,1.1564,1.1704,1.172,1.1459,1.1093,1.0615,0.9789,0.8954,0.8208,0.7771,0.7715,0.766,0.761,0.7797,0.7805,0.7448,0.7466,0.7223,0.6451,0.6337,0.5994,0.535,0.5184,0.5024,0.4929,0.4121,0.3751,0.3833,0.3967,0.4372,0.4977,0.5711,0.625,0.6652,0.7393,0.766,0.7727,0.8323,0.8656,0.8784,0.895,0.9276,0.9577,0.0,0.0,0.0,0.0,0.0,0.0,0.0,0.0,0.0,0.0,0.0,0.0,0.0,0.0,0.0,0.0,0.0,0.0,0.0,0.0,0.0,0.0,0.0,0.0,0.0,0.0,0.0,0.0,0.0,0.0,0.0,1.0398,0.9886,1.0368,0.9744,0.9313,0.9423,0.9529,1.0103,1.1458,1.1822,1.2368,1.3242,1.398,1.5111,1.6586,1.7468,1.854,1.9834,1.9921,1.9921,1.9921,1.9921,1.9921,1.9921,1.9921,1.9921,1.9921,1.9921,1.9921,1.9921,1.9921,1.9921,1.9921,1.9921,1.9921,1.9921,1.9921,1.9921,1.9921,1.9921,1.9921,1.9921,1.157,1.1627,1.1629,1.128,1.0732,1.0029,0.914,0.8318,0.7715,0.7493,0.7438,0.7382,0.7215,0.7263,0.7127,0.6657,0.67,0.6455,0.571,0.5552,0.5401,0.5067,0.4698,0.4289,0.3784,0.2946,0.2489,0.2287,0.269,0.3295,0.4168,0.4906,0.558,0.625,0.6857,0.7259,0.7526,0.8123,0.8456,0.859,0.8784,0.9143,0.9533,0.9673,0.9987,1.0365,1.0304,1.0317,1.0371,1.0179,0.0,0.0,0.0,0.0,0.0,0.0,0.0,0.0,0.0,0.0,0.0,0.0,0.0,0.0,0.0,0.0,0.0,0.0,0.0,0.0,0.0,0.0,0.0,0.0,0.9034,0.841,0.8277,0.8169,0.8098,0.8189,0.842,0.9063,1.0219,1.0751,1.128,1.2051,1.2985,1.4278,1.577,1.7096,1.8331,1.9563,1.9834,1.9921,1.9921,1.9921,1.9921,1.9921,1.9921,1.9921,1.9921,1.9921,1.9921,0.0,1.9921,1.9921,1.9921,1.9921,1.9921,0.0,0.0,0.0,0.0,0.0,1.9968,2.0044,1.1602,1.1478,1.1263,1.0937,1.0249,0.9368,0.8484,0.7881,0.7493,0.721,0.721,0.7049,0.673,0.6719,0.6426,0.5651,0.592,0.577,0.494,0.4896,0.4932,0.5063,0.4418,0.372,0.3025,0.1952,0.1279,0.0943,0.1279,0.2019,0.3026,0.3835,0.4708,0.5711,0.625,0.679,0.7393,0.7922,0.8256,0.8523,0.859,0.9056,0.9649,0.9527,0.9869,1.0507,1.0392,1.0439,1.0482,1.0104,0.0,0.0,0.0,0.0,0.0,0.0,0.0,0.0,0.0,0.0,0.0,0.0,0.0,0.0,0.0,0.0,0.0,0.0,0.0,0.0,0.0,0.0,0.0,0.0,0.7678,0.693,0.6145,0.6701,0.7197,0.7355,0.7711,0.8346,0.9289,0.9651,1.0063,1.0941,1.209,1.3476,1.4889,0.0,0.0,0.0,0.0,1.9921,1.9921,1.9921,1.9921,1.9921,1.9921,1.9921,1.9921,1.9921,1.9921,1.9921,1.9921,1.993,1.9959,1.9959,1.9968,1.9987,1.994,1.993,1.9959,1.9959,2.0081,2.0261,1.1611,1.1566,1.1139,0.9959,0.9361,0.8699,0.7598,0.7376,0.7265,0.721,0.721,0.7081,0.6786,0.6431,0.6012,0.5685,0.5593,0.5371,0.5015,0.457,0.4387,0.4413,0.3461,0.2682,0.195,0.0875,0.0135,-0.0202,0.0404,0.1144,0.195,0.2959,0.3833,0.4635,0.5577,0.625,0.679,0.7722,0.8123,0.8189,0.8523,0.9056,0.9728,0.963,1.0082,1.069,1.0718,1.0772,1.0813,1.0519,1.0322,1.0022,0.9192,0.8985,0.0,0.0,0.0,0.0,0.0,0.0,0.0,0.0,0.0,0.0,0.0,0.0,0.0,0.0,0.0,0.0,0.0,0.0,0.0,0.702,0.6556,0.6139,0.5642,0.5848,0.6046,0.6407,0.6634,0.7111,0.8085,0.8606,0.9104,0.9637,1.1344,1.2952,1.4353,1.6217,1.7805,1.9117,1.965,1.9921,1.9921,1.9921,1.9921,1.9921,0.0,0.0,1.9921,1.9921,1.9921,1.9921,1.9921,2.0015,2.0166,2.0166,2.0261,2.0384,2.0053,2.0015,2.0166,2.0166,2.0299,2.0478,1.1236,1.1126,1.0743,0.9361,0.892,0.8374,0.7376,0.7321,0.7271,0.6993,0.6932,0.673,0.6167,0.575,0.5377,0.499,0.496,0.5018,0.503,0.4686,0.443,0.4262,0.3419,0.242,0.1344,0.0471,-0.0337,-0.1077,-0.0539,0.0135,0.1076,0.1951,0.2959,0.4101,0.4973,0.5781,0.6589,0.7459,0.7927,0.8123,0.8456,0.8923,0.9389,0.9594,1.0127,1.0738,1.0826,1.0927,1.1008,1.0531,1.0345,1.0042,0.8703,0.8308,0.8253,0.0,0.0,0.0,0.0,0.0,0.0,0.0,0.0,0.0,0.0,0.0,0.0,0.0,0.0,0.871,0.8165,0.0,0.6715,0.6379,0.6027,0.575,0.564,0.5589,0.5692,0.5955,0.625,0.6637,0.7109,0.7595,0.7974,0.8242,1.0021,1.1621,1.2762,1.5066,1.7008,1.8418,1.9214,1.965,1.9921,1.9921,1.9921,1.9921,1.9921,1.9921,1.9921,1.9921,1.9977,2.0072,2.0072,2.0185,2.0384,2.0384,2.044,2.0526,2.0318,2.0289,2.0384,2.0384,2.0516,2.0696,1.0743,1.0468,0.9974,0.8865,0.8484,0.8042,0.7321,0.7382,0.7326,0.6771,0.6548,0.6163,0.5342,0.5021,0.4647,0.4207,0.4388,0.4709,0.5083,0.4913,0.4655,0.444,0.3564,0.2487,0.1209,0.0336,-0.0606,-0.1616,-0.1279,-0.0673,0.0202,0.1077,0.2154,0.3432,0.4235,0.5175,0.625,0.6991,0.7593,0.7989,0.8256,0.8651,0.9056,0.9285,0.9898,1.0652,1.0867,1.1015,1.1018,1.0395,1.0227,0.9951,0.8073,0.7657,0.7594,0.6452,0.6749,0.0,0.0,0.0,0.0,0.0,0.0,0.0,0.0,0.7636,0.7814,0.7928,0.7617,0.7293,0.7031,0.6301,0.5843,0.5966,0.5739,0.5529,0.5723,0.566,0.5668,0.5668,0.6024,0.6311,0.6359,0.6815,0.7084,0.7084,0.8773,1.0283,1.1172,1.3918,1.6042,1.7455,1.8506,1.9301,1.9746,1.9834,1.9921,1.9921,1.9921,1.9921,1.9921,1.9959,2.0072,2.0223,2.0308,2.044,2.0601,2.0648,2.0667,2.0667,2.0667,2.0667,2.0658,2.062,2.0733,2.0904,1.0414,0.9644,0.8809,0.7925,0.7709,0.7604,0.7265,0.721,0.7099,0.6771,0.6042,0.5346,0.4743,0.418,0.3858,0.3913,0.4104,0.4503,0.5154,0.4958,0.4766,0.4772,0.3497,0.2353,0.1545,0.0269,-0.0808,-0.1616,-0.1279,-0.101,-0.0875,0.0471,0.1414,0.1885,0.3297,0.4305,0.5041,0.6116,0.6991,0.7593,0.7593,0.8056,0.8667,0.8439,0.9222,1.0522,1.1015,1.1024,1.0754,1.0174,0.9723,0.9157,0.7566,0.7055,0.6974,0.6105,0.6009,0.6226,0.6679,0.6607,0.6211,0.5376,0.5413,0.5784,0.0,0.6555,0.6734,0.7211,0.6728,0.6282,0.6205,0.5792,0.5479,0.5549,0.5604,0.5572,0.5728,0.5698,0.573,0.573,0.573,0.5823,0.5828,0.6276,0.6544,0.6544,0.8327,0.9754,1.0728,1.3129,1.5073,1.6481,1.7893,1.8777,1.9292,1.965,1.9921,1.9921,1.9921,1.9921,1.9921,2.01,2.0195,2.0242,2.0611,2.079,2.0828,2.1017,2.1102,2.1102,2.1102,2.1102,2.1074,2.0875,2.0941,2.113,0.9644,0.8871,0.8208,0.7709,0.7881,0.8048,0.7709,0.7654,0.7376,0.6599,0.5819,0.5106,0.4355,0.394,0.3788,0.3837,0.4392,0.4897,0.5154,0.536,0.5242,0.4839,0.3833,0.2825,0.1614,0.0606,-0.0404,-0.1279,-0.1144,-0.101,-0.0741,0.0269,0.1077,0.1683,0.2892,0.3835,0.4574,0.5714,0.6451,0.6924,0.7121,0.7388,0.7665,0.7573,0.8128,0.901,0.9613,0.995,0.0,0.9084,0.8693,0.8203,0.6532,0.6116,0.6126,0.5146,0.5277,0.5653,0.5688,0.5739,0.5683,0.4828,0.4914,0.5335,0.5584,0.5739,0.5815,0.6075,0.5867,0.572,0.572,0.5583,0.5455,0.5515,0.5575,0.5632,0.5695,0.5725,0.5741,0.5741,0.5741,0.5741,0.5741,0.5918,0.6007,0.6007,0.7527,0.8773,0.9487,1.1793,1.3748,1.5161,1.6577,1.7805,1.8777,1.9301,1.965,1.9921,1.9921,1.9921,1.993,2.0129,2.0355,2.0601,2.0904,2.1036,2.1036,2.113,2.1168,2.1168,2.1168,2.1168,2.1159,2.1064,2.1093,2.1168,0.9196,0.854,0.8097,0.7992,0.8429,0.8706,0.8208,0.7986,0.7543,0.6654,0.5819,0.4935,0.4005,0.3821,0.3836,0.3909,0.4726,0.5195,0.5344,0.5668,0.5622,0.5108,0.4235,0.3228,0.195,0.1009,0.0,-0.0943,-0.0875,-0.0673,-0.0337,0.0337,0.0943,0.1481,0.249,0.3297,0.4037,0.5044,0.5781,0.6317,0.6518,0.6585,0.6598,0.6646,0.6992,0.7516,0.8441,0.8895,0.8933,0.7997,0.7517,0.711,0.5408,0.5144,0.531,0.4453,0.468,0.5137,0.4745,0.493,0.5025,0.4397,0.4594,0.4968,0.5188,0.5248,0.5311,0.5371,0.5384,0.539,0.5406,0.5444,0.5499,0.5572,0.5709,0.567,0.5733,0.5741,0.5741,0.5741,0.5741,0.5741,0.5741,0.5741,0.5741,0.5741,0.6902,0.7885,0.8421,1.0555,1.242,1.366,1.5249,1.6665,1.7893,1.8681,1.9214,1.9746,1.9834,1.9921,1.993,2.0185,2.0535,2.0941,2.1102,2.1168,2.1168,2.1168,2.1168,2.1168,2.1168,2.1168,2.1168,2.1168,2.1168,2.1168,0.9416,0.892,0.854,0.8809,0.9368,0.9485,0.8595,0.7992,0.7493,0.721,0.5875,0.4567,0.3725,0.373,0.3909,0.4268,0.4768,0.5266,0.5665,0.5751,0.5833,0.5841,0.4571,0.343,0.2689,0.1211,0.0135,-0.0539,-0.0202,0.0,0.0,0.0741,0.1077,0.1144,0.1885,0.2625,0.3295,0.4037,0.4977,0.5912,0.558,0.5446,0.5463,0.5615,0.5837,0.6324,0.7862,0.8313,0.8035,0.71,0.6372,0.5544,0.4411,0.429,0.461,0.4339,0.4386,0.4305,0.3867,0.3813,0.3846,0.3846,0.4198,0.4651,0.511,0.5248,0.5311,0.5371,0.5384,0.5403,0.5461,0.5474,0.5512,0.5717,0.5737,0.567,0.5733,0.5741,0.5741,0.5741,0.5741,0.5741,0.5741,0.5741,0.5741,0.5741,0.6637,0.7442,0.7885,0.9758,1.1182,1.2243,1.4102,1.5521,1.6489,1.7805,1.8777,1.9204,1.965,1.9921,1.993,2.0346,2.0762,2.1159,2.1168,2.1168,2.1168,2.1168,2.1168,2.1168,2.1168,2.1168,2.1168,2.1168,2.1168,2.1168,0.914,0.892,0.8871,0.9147,0.9375,0.943,0.9154,0.8761,0.8208,0.7537,0.632,0.0,0.0,0.0,0.0,0.0,0.5233,0.5493,0.5649,0.5976,0.607,0.5833,0.5218,0.4303,0.3026,0.2084,0.1144,0.0135,0.0269,0.0471,0.0741,0.1481,0.1952,0.2153,0.2623,0.323,0.3969,0.444,0.4977,0.558,0.5446,0.5245,0.4986,0.5081,0.5512,0.6176,0.0,0.7341,0.7018,0.6229,0.546,0.4716,0.3833,0.3718,0.3891,0.3818,0.3905,0.3882,0.343,0.3758,0.4169,0.3886,0.4408,0.5026,0.5248,0.5311,0.536,0.5382,0.5384,0.539,0.5412,0.548,0.5545,0.5583,0.5657,0.5717,0.5739,0.5741,0.5741,0.5741,0.5741,0.5741,0.5741,0.5741,0.0,0.5741,0.6637,0.7263,0.7442,0.9228,1.0565,1.1182,1.2781,1.4204,1.5433,1.6833,1.7981,1.8777,1.9563,2.0062,2.0337,2.0478,2.0771,2.1168,2.1168,2.1168,2.1168,2.1168,2.1168,2.1168,2.1168,2.1168,2.1168,2.1168,2.1168,2.1168,0.0,0.9092,0.9203,0.9651,0.9706,0.0,0.0,0.0,0.0,0.0,0.0,0.0,0.0,0.0,0.0,0.0,0.0,0.5854,0.5918,0.6093,0.6106,0.5946,0.5537,0.4769,0.3708,0.2914,0.2054,0.1193,0.1332,0.1536,0.1804,0.2484,0.2894,0.3094,0.343,0.4034,0.4708,0.5041,0.5496,0.5871,0.5538,0.5139,0.4745,0.4812,0.5311,0.0,0.6847,0.6974,0.6609,0.5858,0.499,0.4065,0.3383,0.3237,0.3372,0.3513,0.3511,0.3417,0.3196,0.3599,0.4173,0.3984,0.4595,0.5218,0.5281,0.5341,0.5384,0.5384,0.5384,0.5392,0.5414,0.5496,0.5567,0.5676,0.5676,0.5741,0.5741,0.5741,0.5741,0.5741,0.5741,0.5741,0.5741,0.5741,0.5741,0.5741,0.6637,0.7173,0.7173,0.896,1.0119,1.0476,1.1899,1.323,1.4462,1.5866,1.7359,1.8777,1.9563,2.01,2.0431,2.0431,2.0658,2.1055,2.1055,2.1093,2.1168,2.1168,2.1168,2.1168,2.1168,2.1168,2.1168,2.1168,2.1168,2.1168,0.0,0.0,0.9651,0.0,0.0,0.0,0.0,0.0,0.0,0.0,0.0,0.0,0.0,0.0,0.0,0.0,0.0,0.0,0.646,0.6173,0.6088,0.617,0.5536,0.4958,0.4634,0.3606,0.2898,0.2576,0.2938,0.3157,0.3159,0.3668,0.3895,0.3895,0.4225,0.4827,0.5496,0.583,0.632,0.6762,0.5784,0.5129,0.481,0.4875,0.5372,0.6124,0.6885,0.713,0.692,0.618,0.4956,0.3654,0.3006,0.2909,0.3096,0.3362,0.3282,0.3052,0.3098,0.3428,0.3861,0.3909,0.46,0.5224,0.5283,0.5343,0.5384,0.5384,0.5384,0.5401,0.5461,0.5518,0.5575,0.572,0.5695,0.5736,0.5736,0.5739,0.5741,0.5741,0.5741,0.5741,0.5741,0.5741,0.5741,0.5741,0.0,0.7173,0.7173,0.896,1.003,1.003,1.1366,1.2603,1.3483,1.4985,1.6833,1.9204,1.965,2.0025,2.0223,2.0223,2.044,2.0828,2.0837,2.096,2.1159,2.1168,2.1168,2.1168,2.1168,2.1168,2.1168,2.1168,2.1168,2.1168,0.0,0.0,0.0,0.0,0.0,0.0,0.0,0.0,0.0,0.0,0.0,0.0,0.0,0.0,0.0,0.0,0.0,0.0,0.6267,0.6345,0.6248,0.6084,0.5954,0.56,0.4958,0.4444,0.3863,0.3222,0.3362,0.35,0.3759,0.4488,0.4887,0.5147,0.5469,0.6053,0.6701,0.6766,0.7011,0.7369,0.6859,0.6511,0.6247,0.6271,0.6788,0.7655,0.8354,0.8277,0.7655,0.6644,0.4984,0.3291,0.2651,0.2493,0.2621,0.2739,0.2693,0.2715,0.3044,0.3469,0.3988,0.4358,0.4816,0.5286,0.5346,0.5373,0.5384,0.5384,0.5384,0.539,0.5403,0.5455,0.5501,0.5518,0.5605,0.5673,0.5673,0.5711,0.5741,0.5741,0.5741,0.5741,0.5741,0.5741,0.5741,0.0,0.6637,0.7173,0.7173,0.896,1.003,1.003,1.1099,1.1988,1.2514,1.4632,1.6657,1.8689,1.9126,1.9665,2.0223,2.0223,2.0365,2.0539,2.069,2.0875,2.0941,2.1102,2.1168,2.1168,2.1168,2.1168,2.1168,2.1168,2.1168,2.1168,0.0,0.0,0.0,0.0,0.0,0.0,0.0,0.0,0.0,0.0,0.0,0.0,0.0,0.0,0.0,0.0,0.0,0.0,0.0,0.6521,0.6363,0.6176,0.6102,0.5938,0.5686,0.5367,0.5052,0.48,0.4833,0.4912,0.5103,0.5714,0.6182,0.6567,0.6887,0.7399,0.8034,0.8034,0.8198,0.0,0.0,0.7454,0.7418,0.7224,0.7777,0.859,0.9183,0.8717,0.7665,0.6401,0.477,0.3172,0.2548,0.2373,0.2408,0.2455,0.2633,0.2802,0.3055,0.3642,0.4248,0.4538,0.4921,0.5303,0.5338,0.5365,0.5376,0.5349,0.5365,0.5384,0.5384,0.5433,0.5485,0.5507,0.5591,0.566,0.5687,0.5719,0.5741,0.5741,0.5741,0.5741,0.5741,0.5741,0.5741,0.5741,0.6637,0.7173,0.7173,0.896,1.003,1.003,1.101,1.1899,1.2781,1.472,1.6481,1.7902,1.8768,1.9443,1.973,2.0003,2.0204,2.0403,0.0,2.062,2.0724,2.0941,2.1026,2.1036,2.113,2.1168,2.1168,2.1168,2.1168,2.1168,0.0,0.0,0.0,0.0,0.0,0.0,0.0,0.0,0.0,0.0,0.8712,0.8429,0.8097,0.7826,0.0,0.0,0.0,0.0,0.0,0.0,0.6512,0.6464,0.6162,0.6162,0.6464,0.6162,0.6162,0.6464,0.6554,0.6531,0.6531,0.7058,0.7419,0.7732,0.8124,0.8626,0.9197,0.9197,0.9381,0.9529,0.859,0.8294,0.8347,0.0,0.8443,0.9316,0.9582,0.8845,0.7411,0.603,0.4628,0.3256,0.265,0.2555,0.2587,0.2543,0.2881,0.3217,0.3297,0.3884,0.4578,0.4621,0.5008,0.5303,0.5294,0.5341,0.5368,0.5305,0.5341,0.5384,0.5384,0.5433,0.5488,0.5529,0.5594,0.5657,0.5709,0.5722,0.573,0.5741,0.5741,0.5741,0.5741,0.5741,0.5741,0.5741,0.6637,0.7173,0.7173,0.896,1.003,1.0209,1.101,1.216,1.3394,1.472,1.5954,1.6928,1.8331,1.9117,1.9204,1.965,2.0015,2.0185,0.0,0.0,2.0516,2.0715,2.08,2.0828,2.1045,2.113,2.113,2.1159,2.1168,2.1168,0.0,0.0,0.0,0.0,0.0,0.0,0.0,0.0,0.0,0.0,0.8885,0.8712,0.0,0.0,0.0,0.0,0.0,0.0,0.0,0.0,0.0,0.6837,0.6775,0.6775,0.6837,0.6775,0.6775,0.6837,0.6794,0.6803,0.6865,0.7495,0.7809,0.787,0.8491,0.8983,0.9284,0.9284,0.9455,0.9741,0.9252,0.9212,0.9436,0.9118,0.0,0.0,0.9782,0.9117,0.8153,0.6509,0.5008,0.3732,0.3134,0.3197,0.3388,0.312,0.3292,0.3768,0.4084,0.4387,0.4702,0.5037,0.5204,0.5357,0.5305,0.5341,0.5368,0.5305,0.5341,0.5384,0.5384,0.5433,0.5463,0.5422,0.5504,0.5578,0.5589,0.5635,0.5684,0.5736,0.5741,0.5741,0.5741,0.5741,0.5741,0.0,0.6637,0.7173,0.7173,0.896,1.0387,1.1188,1.1366,1.181,1.2432,1.3489,1.4632,1.5954,1.7359,1.8418,1.9204,1.965,1.994,1.9987,2.0148,0.0,2.0289,2.0507,2.0592,2.0611,2.0818,2.0904,2.0922,2.1102,2.1168,2.1168,0.0,0.0,0.0,0.0,0.0,0.0,0.0,0.9106,0.8885,0.8885,0.8885,0.8823,0.854,0.8374,0.8103,0.0,0.0,0.0,0.0,0.0,0.0,0.7138,0.7021,0.6959,0.7143,0.7143,0.7266,0.7449,0.0,0.7699,0.7694,0.8183,0.8482,0.8665,0.897,0.9275,0.9579,0.9579,0.964,0.9761,0.964,0.9704,0.9847,0.9799,0.0,0.0,1.0518,0.9782,0.8689,0.7548,0.6141,0.4671,0.3565,0.3495,0.3627,0.3492,0.3749,0.4167,0.4352,0.4655,0.4966,0.5161,0.5319,0.536,0.5267,0.5319,0.5357,0.5264,0.5319,0.5384,0.5384,0.5433,0.5466,0.5436,0.5504,0.557,0.569,0.572,0.5673,0.5733,0.5741,0.5741,0.5741,0.5741,0.5741,0.5741,0.6637,0.7173,0.7173,0.896,1.0476,1.1455,1.1543,1.1721,1.2165,1.3135,1.4102,1.4985,1.692,1.8068,1.8506,1.9475,1.9921,1.9921,2.0025,0.0,2.0081,2.0289,2.0374,2.0393,2.0601,2.0596,2.0696,2.08,2.0904,2.0998,0.0,0.0,0.0,0.0,0.0,0.0,0.9541,0.9161,0.8885,0.8885,0.8885,0.8823,0.8595,0.854,0.8318,0.0,0.0,0.0,0.0,0.0,0.0,0.0,0.0,0.0,0.7694,0.0,0.0,0.8116,0.8366,0.0,0.0,0.0,0.0,0.0,0.9396,0.9579,0.9822,0.9822,0.9822,0.0,0.0,0.9849,0.0,0.0,0.0,0.0,0.0,1.0532,0.9393,0.8729,0.742,0.576,0.4425,0.4,0.392,0.3863,0.4201,0.4552,0.4618,0.4917,0.5218,0.5278,0.5341,0.5352,0.5232,0.5286,0.5335,0.5226,0.5289,0.5368,0.5382,0.5433,0.5472,0.5458,0.5504,0.5561,0.5709,0.5717,0.5657,0.573,0.5741,0.5741,0.5741,0.5741,0.5741,0.5741,0.6637,0.0,0.7799,0.9228,1.0476,1.1455,1.1543,1.1721,1.2077,1.2869,1.3578,1.4197,1.6305,1.7534,1.7805,1.9126,1.9834,1.9921,1.9921,0.0,0.0,2.0091,2.0157,2.0176,2.0393,2.0469,2.0478,2.0526,2.0639,2.0781,0.0,0.0,0.0,0.0,0.0,0.0,0.9761,0.9265,0.8885,0.8885,0.8885,0.8885,0.8885,0.8657,0.8484,0.0,0.0,0.0,0.0,0.0,0.0,0.0,0.0,0.0,0.0,0.0,0.0,0.8793,0.8854,0.0,0.0,0.0,0.0,0.0,0.0,0.9761,0.9822,0.9822,0.0,0.0,0.0,0.0,0.0,0.0,0.0,0.0,0.0,1.1333,1.0596,0.9647,0.8454,0.7135,0.6061,0.525,0.4647,0.4439,0.4595,0.4893,0.5003,0.5155,0.5218,0.5278,0.5341,0.5352,0.5232,0.5254,0.5283,0.5215,0.5256,0.5319,0.5373,0.5433,0.5458,0.5401,0.5444,0.5501,0.5559,0.5567,0.561,0.5728,0.5741,0.5741,0.5741,0.5741,0.5741,0.5741,0.6637,0.0,0.9674,0.9941,1.0476,1.1455,1.1543,1.1543,1.1543,1.2077,1.2781,1.366,1.5161,1.6569,1.7797,1.8855,1.9475,1.9921,1.9921,0.0,0.0,1.994,1.9949,1.9968,2.0166,2.0251,2.027,2.0469,2.0554,2.0573,0.0,0.0,0.0,0.0,0.0,0.0,0.9816,0.9265,0.8885,0.8885,0.8885,0.8885,0.8885,0.8823,0.8657,0.854,0.8374,0.0,0.0,0.0,0.0,0.0,0.0,0.0,0.0,0.0,0.8915,0.8915,0.9037,0.0,0.0,0.0,0.0,0.0,0.0,0.9822,0.9822,0.9822,0.0,0.0,0.0,0.0,0.0,0.0,0.0,0.0,0.0,0.0,1.1158,1.0348,0.8911,0.7289,0.6488,0.5586,0.4815,0.4706,0.4799,0.497,0.5125,0.5185,0.5226,0.5324,0.5365,0.5352,0.5232,0.5248,0.5275,0.5215,0.5251,0.5313,0.5373,0.5433,0.5455,0.5395,0.5436,0.5496,0.5551,0.5559,0.5605,0.5725,0.5741,0.5741,0.5741,0.0,0.5831,0.6186,0.0,0.0,0.9045,0.9674,1.0298,1.101,1.1366,1.1543,1.1543,1.1988,1.2432,1.2781,1.4462,1.5866,1.7016,1.8243,1.9214,1.9921,1.9921,0.0,0.0,1.9921,1.9921,1.993,2.0006,2.0044,2.0053,2.0138,2.0242,2.0346,0.0,0.0,0.0,0.0,0.0,0.9816,0.9816,0.9265,0.8885,0.8885,0.8885,0.8885,0.8885,0.8885,0.8823,0.8657,0.8602,0.0,0.0,0.0,0.0,0.0,0.0,0.0,0.0,0.0,0.9159,0.9159,0.9335,0.9457,0.0,0.0,0.9822,0.9822,0.0,0.0,0.0,0.0,0.0,0.0,0.0,0.0,0.0,0.0,0.0,0.0,0.0,0.0,0.0,0.0,0.0,0.7491,0.6852,0.5789,0.4779,0.4902,0.4937,0.4976,0.5155,0.5202,0.5232,0.5354,0.5371,0.533,0.5226,0.5221,0.5229,0.5185,0.5224,0.5286,0.5346,0.5409,0.5433,0.5392,0.5436,0.5496,0.5551,0.5575,0.5619,0.5703,0.573,0.5733,0.5717,0.573,0.5918,0.0,0.0,0.0,0.8331,0.9406,1.0209,1.0654,1.1188,1.1543,1.1543,1.181,1.2077,1.2254,1.3843,1.5168,1.6217,1.763,1.8777,1.9737,0.0,0.0,0.0,1.9921,1.9921,1.9921,1.9921,1.9921,1.9921,1.9921,2.0006,2.0129,0.0,0.0,0.0,0.0,0.0,0.9816,0.9816,0.9265,0.8885,0.8885,0.8885,0.8885,0.8885,0.8885,0.8885,0.8885,0.8885,0.0,0.0,0.0,0.0,0.0,0.0,0.0,0.9815,0.9822,0.9822,0.9822,0.9822,0.9822,0.9822,0.9822,0.9822,0.9822,0.0,0.0,0.0,0.0,0.0,0.0,0.0,0.0,0.0,0.0,0.0,0.0,0.0,0.0,0.0,0.0,0.0,0.0,0.0,0.6015,0.4779,0.4902,0.4937,0.4976,0.5155,0.5202,0.5232,0.5354,0.5338,0.5278,0.5215,0.5155,0.5112,0.5112,0.5161,0.5221,0.5283,0.5343,0.5384,0.5384,0.5436,0.5496,0.5551,0.5698,0.5737,0.574,0.5703,0.5717,0.5657,0.5706,0.5918,0.0,0.0,0.0,0.0,0.9228,1.0209,1.0654,1.1188,1.1543,1.1543,1.1543,1.1721,1.2165,1.3135,1.4367,1.5778,1.7184,1.8331,0.0,0.0,0.0,0.0,1.9921,1.9921,1.9921,1.9921,1.9921,1.9921,1.9921,1.9921,1.9921,0.0,0.0,0.0,0.0,0.0,0.0,0.9801,0.9265,0.8885,0.8885,0.8885,0.8885,0.8885,0.8885,0.8885,0.8885,0.8885,0.0,0.0,0.0,0.0,0.0,0.0,0.0,0.9815,0.9822,0.9822,0.9822,0.9822,0.9822,0.9822,0.9822,0.9822,0.9822,0.9822,0.9822,0.0,0.0,0.0,0.0,0.0,0.0,0.0,0.0,0.0,0.0,0.0,0.0,0.0,0.0,0.0,0.0,0.0,0.0,0.0,0.4788,0.4828,0.4967,0.5104,0.5139,0.5169,0.5292,0.5278,0.5226,0.5207,0.5155,0.5112,0.5112,0.5161,0.5221,0.5283,0.5343,0.5398,0.5439,0.5463,0.551,0.5695,0.5726,0.574,0.574,0.5668,0.5687,0.0,0.0,0.0,0.0,0.0,0.0,0.0,0.8782,0.9763,1.0209,1.101,1.1543,1.1543,1.1543,1.1543,1.1721,1.2698,1.3843,1.5242,1.6665,0.0,0.0,0.0,0.0,0.0,1.9921,1.9921,1.9921,1.9921,1.9921,1.9921,1.9921,1.9921,1.9921,0.0,0.0,0.0,0.0,0.0,0.0,0.965,0.923,0.8885,0.8885,0.8885,0.8885,0.8885,0.8885,0.8885,0.8885,0.8885,0.0,0.0,0.0,0.0,0.0,0.0,0.0,0.9741,0.9795,0.9822,0.9822,0.9822,0.9822,0.9822,0.9822,0.9822,0.9822,0.9822,0.9822,0.0,0.0,0.0,0.0,0.0,0.0,1.1385,0.0,0.0,0.0,0.0,0.0,0.0,0.0,0.0,0.0,0.0,0.0,0.0,0.0,0.4828,0.4989,0.5085,0.5112,0.5136,0.5234,0.5213,0.5169,0.5169,0.5123,0.5076,0.5076,0.5145,0.5215,0.5254,0.5327,0.5398,0.5436,0.5477,0.5531,0.5692,0.5657,0.5684,0.5684,0.5643,0.0,0.0,0.0,0.0,0.0,0.0,0.0,0.0,0.8335,0.9317,0.9941,1.0743,1.1277,1.1543,1.1543,1.1543,1.1543,1.2432,1.3578,1.4808,1.6401,0.0,0.0,0.0,0.0,0.0,1.9921,1.9921,1.9921,1.9921,1.9921,1.9921,1.9921,1.9921,1.9921,0.0,0.0,0.0,0.0,0.0,0.0,0.0,0.9166,0.8885,0.8885,0.8885,0.8885,0.8885,0.8885,0.8885,0.8885,0.8885,0.0,0.0,0.0,0.0,0.0,0.0,0.9456,0.9605,0.9747,0.9822,0.9822,0.9822,0.9822,0.9822,0.9822,0.9822,0.9822,0.9822,0.9822,0.9822,0.9822,0.9829,0.9924,1.0601,1.1046,0.0,0.0,0.0,0.0,0.0,0.0,0.0,0.0,0.0,0.0,0.0,0.0,0.0,0.0,0.0,0.0,0.0,0.5106,0.512,0.518,0.515,0.5106,0.5112,0.5066,0.0,0.5022,0.5117,0.5202,0.5202,0.5303,0.5387,0.539,0.5485,0.5561,0.5564,0.5662,0.5736,0.0,0.5638,0.0,0.573,0.0,0.0,0.0,0.0,0.0,0.0,0.8063,0.8956,0.9941,1.0387,1.0921,1.1455,1.1543,1.1543,1.1543,1.2432,1.3407,1.4374,1.6225,0.0,0.0,0.0,0.0,0.0,1.9921,1.9921,1.9921,1.9921,1.9921,1.9921,1.9921,1.9921,1.9921,0.0,0.0,0.0,0.0,0.0,0.0,0.0,0.0,0.0,0.0,0.8885,0.8885,0.8885,0.8885,0.8885,0.0,0.0,0.0,0.0,0.0,0.0,0.0,0.9357,0.9456,0.9605,0.9747,0.9822,0.9822,0.9822,0.9822,0.9822,0.9822,0.9822,0.9822,0.9822,0.9822,0.9822,0.9822,1.0012,1.0445,1.0958,1.1494,0.0,0.0,0.0,0.0,1.2851,1.2368,0.0,0.0,0.0,0.0,0.0,0.0,0.0,0.0,0.4929,0.5025,0.5038,0.0,0.5057,0.5117,0.5087,0.5055,0.0,0.5066,0.5022,0.5022,0.5117,0.5202,0.5202,0.5303,0.5401,0.5447,0.5512,0.5575,0.5709,0.5654,0.5689,0.5736,0.5676,0.566,0.0,0.0,0.0,0.0,0.0,0.0,0.0,0.771,0.8688,0.9941,1.0119,1.0565,1.1455,1.1543,1.1543,1.1543,1.2432,1.3407,1.4374,1.6225,0.0,0.0,0.0,0.0,1.9921,1.9921,1.9921,1.9921,1.9921,1.9921,1.9921,1.9921,1.9921,1.9921,0.0,0.0,0.0,0.0,0.0,0.0,0.0,0.0,0.0,0.0,0.8885,0.8885,0.8885,0.8885,0.8885,0.0,0.0,0.0,0.0,0.0,0.0,0.9049,0.9266,0.9422,0.9503,0.9713,0.9822,0.9822,0.9822,0.9822,0.9822,0.9822,0.9822,0.9822,0.9822,0.9822,0.9822,0.9822,1.0094,1.0626,1.1099,0.0,0.0,0.0,0.0,0.0,1.2581,1.1967,0.0,1.046,0.8941,0.7204,0.0,0.0,0.0,0.0,0.4929,0.5022,0.5022,0.5022,0.5027,0.5063,0.5046,0.503,0.5063,0.5044,0.5022,0.5022,0.5095,0.5161,0.5161,0.5262,0.5354,0.5387,0.5463,0.5551,0.5726,0.5715,0.5632,0.5692,0.5646,0.0,0.0,0.0,0.0,0.0,0.0,0.0,0.0,0.7442,0.8335,0.9941,1.003,1.0476,1.1455,1.1543,1.1543,1.1543,1.2432,1.3407,1.4374,1.6225,1.7639,0.0,0.0,0.0,1.9921,1.9921,1.9921,1.9921,1.9921,1.9921,1.9921,1.9921,1.9921,1.9921,0.0,0.0,0.0,0.0,0.0,0.0,0.0,0.0,0.0,0.0,0.0,0.0,0.0,0.0,0.0,0.0,0.0,0.0,0.0,0.0,0.8885,0.8885,0.9225,0.9381,0.9381,0.9673,0.9822,0.9822,0.9822,0.9822,0.9822,0.9822,0.9822,0.9822,0.9822,0.9822,0.9822,0.9903,1.0251,1.0724,1.1199,0.0,0.0,0.0,0.0,0.0,0.0,0.0,0.0,0.9767,0.8362,0.6773,0.6333,0.0,0.0,0.0,0.0,0.0,0.5022,0.5022,0.5022,0.5022,0.5022,0.5022,0.5022,0.5022,0.5022,0.5022,0.5068,0.5112,0.5112,0.521,0.5294,0.5294,0.5403,0.5529,0.5649,0.5619,0.5605,0.5657,0.5619,0.0,0.0,0.0,0.0,0.0,0.0,0.0,0.0,0.7442,0.8335,1.003,1.0209,1.0654,1.1632,1.1543,1.1543,1.1632,1.252,1.3578,1.4543,1.6401,1.7726,0.0,0.0,0.0,1.9921,1.9921,1.9921,1.9921,1.9921,1.9921,1.9921,1.9921,1.9921,1.9921,0.0,0.0,0.0,0.0,0.0,0.0,0.0,0.0,0.0,0.0,0.0,0.0,0.0,0.0,0.0,0.0,0.0,0.0,0.0,0.8885,0.8885,0.8885,0.9225,0.9381,0.9381,0.9673,0.9822,0.9822,0.9822,0.9822,0.9822,0.9822,0.9822,0.9822,0.9822,0.9822,0.9829,1.0265,1.0724,1.127,1.1747,0.0,0.0,0.0,0.0,0.0,0.0,0.0,0.0,0.8251,0.7059,0.5898,0.5538,0.0,0.0,0.0,0.0,0.0,0.5022,0.5022,0.5022,0.5022,0.5022,0.5022,0.5022,0.5022,0.5022,0.5022,0.5068,0.5112,0.5112,0.521,0.5294,0.5294,0.5436,0.5589,0.0,0.0,0.5717,0.5725,0.0,0.0,0.0,0.0,0.0,0.0,0.0,0.0,0.0,0.8778,0.9491,1.0565,1.101,1.1543,1.2077,1.1721,1.1721,1.2077,1.3046,1.419,1.5513,1.7008,1.8243,0.0,0.0,1.9921,1.9921,1.9921,1.9921,1.9921,1.9921,1.9921,1.9921,1.9921,1.9921,1.9921,0.0,0.0,0.0,0.0,0.0,0.0,0.0,0.0,0.0,0.0,0.0,0.0,0.0,0.0,0.0,0.0,0.0,0.0,0.8885,0.8885,0.8885,0.8885,0.9225,0.9381,0.9381,0.9673,0.9822,0.9822,0.9822,0.9822,0.9822,0.9822,0.9822,0.9822,0.9822,0.9992,1.0258,1.0514,1.1062,1.1747,0.0,0.0,0.0,0.0,0.0,0.0,0.0,0.0,0.0,0.0,0.6261,0.5471,0.529,0.0,0.0,0.0,0.0,0.0,0.5022,0.5022,0.5022,0.5022,0.5022,0.5022,0.5022,0.5022,0.5022,0.5022,0.5044,0.5063,0.5063,0.5161,0.5267,0.5333,0.5439,0.5545,0.563,0.567,0.5692,0.0,0.0,0.0,0.0,0.0,0.0,0.0,0.0,0.0,0.0,0.0,1.0466,1.1455,1.1982,1.2514,1.2958,1.3217,1.3217,1.2958,1.3932,1.4985,1.613,1.7543,1.8506,1.9204,0.0,1.9921,1.9921,1.9921,1.9921,1.9921,1.9921,1.9921,1.9921,1.9921,1.9921,1.9921,0.0,0.0,0.0,0.0,0.0,0.0,0.0,0.0,0.0,0.0,0.0,0.0,0.0,0.0,0.0,0.0,0.0,0.8885,0.8885,0.8885,0.8898,0.8988,0.9239,0.9381,0.9381,0.9673,0.9822,0.9822,0.9822,0.9822,0.9822,0.9822,0.9822,0.9822,0.9917,1.0244,1.0612,1.0878,1.1426,1.2112,0.0,0.0,0.0,0.0,0.0,0.0,0.0,0.0,0.0,0.0,0.0,0.0,0.0,0.0,0.0,0.4842,0.4976,0.5022,0.5022,0.5022,0.5022,0.5022,0.5022,0.5022,0.5022,0.5022,0.5022,0.5022,0.5022,0.5022,0.5022,0.512,0.5243,0.5365,0.5436,0.5499,0.557,0.5709,0.0,0.0,0.0,0.0,0.0,0.0,0.0,0.0,0.0,0.0,0.0,0.0,1.2059,1.2869,1.3394,1.3925,1.4278,1.5066,1.4977,1.4102,1.5073,1.5961,1.6928,1.8156,1.8952,1.9379,1.9737,1.9921,1.9921,1.9921,1.9921,1.9921,1.9921,1.9921,1.9921,1.9921,1.9921,1.9921,0.0,0.0,0.0,0.0,0.0,0.0,0.0,0.0,0.0,0.0,0.0,0.0,0.0,0.0,0.0,0.0,0.8885,0.8885,0.8885,0.8885,0.8994,0.9187,0.9293,0.9381,0.9381,0.9673,0.9822,0.9822,0.9822,0.9822,0.9822,0.9822,0.9822,0.9829,1.0341,1.0535,1.0688,1.1622,1.2024,1.2128,1.2227,0.0,0.0,0.0,0.0,0.0,0.0,0.0,0.0,0.0,0.0,0.0,0.0,0.0,0.4783,0.4842,0.4976,0.5022,0.5022,0.5022,0.5022,0.5022,0.5022,0.5022,0.5022,0.5022,0.5022,0.5022,0.5022,0.5022,0.5022,0.512,0.5243,0.5365,0.5436,0.5515,0.5715,0.0,0.0,0.0,0.0,0.0,0.0,0.0,0.0,0.0,0.0,0.0,0.0,0.0,0.0,1.4801,1.569,1.613,1.6225,1.6665,1.6489,1.5601,1.6473,1.7447,1.8339,1.8855,1.9388,1.9834,1.9921,1.9921,1.9921,1.9921,1.9921,1.9921,1.9921,1.9921,1.9921,1.9921,1.9921,1.9921,0.0,0.0,0.0,0.0,0.0,0.0,0.0,0.0,0.0,0.0,0.0,0.0,0.0,0.0,0.0,0.0,0.8885,0.8885,0.8885,0.8885,0.9001,0.92,0.9357,0.9422,0.9523,0.972,0.9822,0.9822,0.9822,0.9822,0.9822,0.9822,0.9822,0.9829,1.0355,1.0787,1.1092,1.1562,1.198,1.2211,1.1754,1.1512,0.0,0.0,0.0,0.0,0.0,0.0,0.0,0.0,0.481,0.4681,0.4779,0.4826,0.4788,0.4959,0.5003,0.5022,0.5022,0.5022,0.5022,0.5022,0.5022,0.503,0.5068,0.5076,0.5087,0.5125,0.5104,0.5076,0.5076,0.5145,0.5229,0.5313,0.5412,0.5491,0.0,0.0,0.0,0.0,0.0,0.0,0.0,0.0,0.0,0.0,0.0,0.0,0.0,0.0,0.0,1.5866,1.6489,1.7016,1.7271,1.8068,1.8243,1.7885,1.7981,1.8331,1.8943,1.9388,1.9737,1.9921,1.9921,1.9921,1.9921,1.9921,1.9921,1.9921,1.9921,1.9921,1.9921,1.9921,1.9921,1.9921,0.0,0.0,0.0,0.0,0.0,0.0,0.0,0.0,0.0,0.0,0.0,0.0,0.0,0.0,0.0,0.0,0.894,0.8885,0.8885,0.8981,0.9069,0.9275,0.9374,0.9523,0.9673,0.9774,0.9822,0.9822,0.9822,0.9822,0.9822,0.9822,0.991,1.008,1.0612,1.1029,1.1381,1.1603,1.1738,1.1703,1.0975,1.0472,0.0,0.0,0.0,0.0,0.0,0.0,0.0,0.0,0.4665,0.4684,0.4807,0.4769,0.4793,0.4986,0.5022,0.5022,0.5022,0.5022,0.5022,0.5022,0.5022,0.5041,0.5123,0.5125,0.5128,0.5191,0.5169,0.5134,0.5115,0.5161,0.5224,0.0,0.5363,0.0,0.0,0.0,0.0,0.0,0.0,0.0,0.0,0.0,0.0,0.0,0.0,0.0,0.0,0.0,0.0,0.0,1.7543,1.7981,1.8418,1.9126,1.9388,1.9388,1.9126,1.9126,1.9475,1.9737,1.9921,1.9921,1.9921,1.9921,1.9921,1.9921,1.9921,1.9921,1.9921,1.9921,1.9921,1.9921,1.9921,1.9921,0.0,0.0,0.0,0.0,0.0,0.0,0.0,0.0,1.0202,0.9871,0.9816,0.0,0.0,0.0,0.0,0.0,0.9106,0.8885,0.8885,0.9076,0.9275,0.9374,0.953,0.968,0.9815,0.9822,0.9822,0.9822,0.9822,0.9822,0.9822,0.9822,1.0087,1.0619,1.1092,1.1381,1.1603,1.1709,1.1372,1.0638,0.9908,0.9186,0.8633,0.0,0.0,0.0,0.0,0.0,0.0,0.0,0.4665,0.4687,0.4807,0.4772,0.4793,0.4986,0.5022,0.5022,0.5022,0.5022,0.5022,0.5022,0.5022,0.5052,0.5175,0.5155,0.5131,0.5191,0.5204,0.5185,0.5123,0.5161,0.5224,0.5283,0.5294,0.0,0.0,0.0,0.0,0.0,0.0,0.0,0.0,0.0,0.0,0.0,0.0,0.0,0.0,0.0,0.0,0.0,1.8943,1.9388,1.9921,1.9921,1.9921,1.9921,1.9921,1.9921,1.9921,1.9921,1.9921,1.9921,1.9921,1.9921,1.9921,1.9921,1.9921,1.9921,1.9921,1.9921,1.9921,1.9921,1.9921,1.9921,0.0,0.0,0.0,0.0,0.0,0.0,0.0,0.0,1.0257,1.0147,0.9926,0.0,0.0,0.0,0.0,0.0,0.0,0.0,0.9363,0.9299,0.9323,0.953,0.9585,0.968,0.9815,0.9822,0.9822,0.9822,0.9822,0.97,0.9457,0.9562,0.9695,0.9942,1.0253,1.0582,1.0825,1.0452,0.9981,0.9522,0.8536,0.7776,0.7142,0.0,0.0,0.0,0.0,0.0,0.0,0.0,0.0,0.0,0.482,0.4799,0.4924,0.5,0.5022,0.5022,0.5022,0.5022,0.5022,0.5022,0.5022,0.5052,0.5175,0.5188,0.5194,0.5254,0.5267,0.5248,0.5188,0.5226,0.5273,0.5292,0.0,0.0,0.0,0.0,0.0,0.0,0.0,0.0,0.0,0.0,0.0,0.0,0.0,0.0,0.0,0.0,0.0,0.0,1.8602,1.9126,1.9921,1.9921,1.9921,1.9921,1.9921,1.9921,1.9921,1.9921,1.9921,1.9921,1.9921,1.9921,1.9921,1.9921,1.9921,1.9921,1.9921,1.9921,1.9921,1.9921,1.9921,1.9921,0.0,0.0,0.0,0.0,0.0,0.0,0.0,0.0,1.0476,1.0476,1.0257,1.0147,0.0,0.0,0.0,0.0,0.0,0.0,0.9426,0.9259,0.9234,0.942,0.942,0.9553,0.9822,0.9822,0.9761,0.9579,0.9579,0.9457,0.9098,0.9113,0.9268,0.9456,0.9549,0.9804,1.0058,0.9281,0.8739,0.8257,0.7306,0.6554,0.5935,0.0,0.0,0.0,0.0,0.0,0.0,0.0,0.0,0.0,0.4826,0.4812,0.4948,0.5003,0.5022,0.5022,0.5022,0.5022,0.5022,0.5022,0.5022,0.5052,0.5175,0.524,0.5278,0.5292,0.5313,0.5311,0.5251,0.527,0.0,0.0,0.0,0.0,0.0,0.0,0.0,0.0,0.0,0.0,0.0,0.0,0.0,0.0,0.0,0.0,0.0,0.0,0.0,0.0,1.8427,1.8864,1.965,1.9834,1.9921,1.9921,1.9921,1.9921,1.9921,1.9921,1.9921,1.9921,1.9921,1.9921,1.9921,1.9921,1.9921,1.9921,1.9921,1.9921,1.9921,1.9921,1.9921,1.9921,0.0,0.0,1.0241,1.0404,0.0,0.0,0.0,0.0,1.0688,1.0688,1.0688,1.0688,0.0,0.0,0.0,0.0,0.0,0.0,0.9134,0.9091,0.9063,0.9016,0.9204,0.9457,0.9761,0.9761,0.9579,0.9275,0.9275,0.9037,0.8689,0.8443,0.8632,0.9078,0.8821,0.8941,0.931,0.8246,0.7507,0.6859,0.6183,0.5587,0.5074,0.5084,0.0,0.0,0.0,0.0,0.0,0.0,0.0,0.0,0.4834,0.482,0.4954,0.5006,0.5022,0.5022,0.5022,0.5022,0.5022,0.5022,0.503,0.5066,0.5177,0.5297,0.5368,0.5313,0.5346,0.5368,0.5311,0.5303,0.5319,0.0,0.0,0.0,0.0,0.0,0.0,0.0,0.0,0.0,0.0,0.0,0.0,0.0,0.0,0.0,0.0,0.0,0.0,0.0,1.8243,1.8689,1.9204,1.965,1.9921,0.0,1.9921,1.9921,1.9921,1.9921,1.9921,1.9921,1.9921,1.9921,1.9921,1.9921,1.9921,1.9921,1.9921,1.9921,1.9921,1.9921,1.9921,1.9921,0.0,0.0,1.0387,1.0375,0.0,0.0,0.0,0.0,0.0,1.0688,1.0688,0.0,0.0,0.0,0.0,0.0,0.0,0.0,0.0,0.8847,0.863,0.8551,0.9012,0.9335,0.9396,0.9396,0.9214,0.8915,0.8915,0.8535,0.7759,0.7564,0.7419,0.7331,0.7039,0.7165,0.7517,0.6715,0.6163,0.5841,0.5418,0.5002,0.4721,0.4771,0.4727,0.0,0.0,0.0,0.0,0.0,0.0,0.0,0.4899,0.4957,0.5006,0.5016,0.5022,0.5022,0.5022,0.5022,0.5022,0.5022,0.5093,0.5169,0.5196,0.5297,0.5382,0.5368,0.5376,0.5382,0.5368,0.5365,0.0,0.0,0.0,0.0,0.0,0.0,0.0,0.0,0.0,0.0,0.0,0.0,0.0,0.0,0.0,0.0,0.0,0.0,0.0,1.7508,1.8174,1.8689,1.9204,1.965,1.9921,0.0,1.9921,1.9921,1.9921,1.9921,1.9921,1.9921,1.9921,1.9921,1.9921,1.9921,1.9921,1.9921,1.9921,1.9921,1.9921,1.9921,1.9921,1.9921,0.0,0.0,0.0,0.0,0.0,0.0,0.0,0.0,0.0,0.0,0.0,0.0,0.0,0.0,0.0,0.0,0.9681,0.0,0.0,0.8168,0.7988,0.7928,0.8543,0.8848,0.8848,0.8848,0.8726,0.836,0.7932,0.7495,0.6988,0.6823,0.6593,0.6317,0.6011,0.6116,0.6451,0.5751,0.5338,0.5207,0.4926,0.4778,0.4621,0.4651,0.4665,0.4665,0.4665,0.0,0.0,0.0,0.0,0.0,0.0,0.0,0.5022,0.5022,0.5022,0.5022,0.5022,0.5022,0.5022,0.5022,0.509,0.5166,0.5196,0.5275,0.5349,0.5379,0.5384,0.5384,0.5384,0.5384,0.0,0.0,0.0,0.0,0.0,0.0,0.0,0.0,0.0,0.0,0.0,0.0,0.0,0.0,0.0,0.0,0.0,1.6535,1.671,1.7057,1.7672,1.8287,1.8712,1.9246,1.965,1.9921,1.9921,1.9921,1.9921,1.9921,1.9921,1.9921,1.9921,1.9921,1.9921,1.9921,1.9921,1.9921,1.9921,1.9921,1.9921,1.9921,1.9921,1.9921,0.0,0.0,0.0,0.0,0.0,0.0,0.0,0.0,0.0,0.0,0.0,0.0,0.0,0.0,1.0285,0.0,0.0,0.0,0.0,0.0,0.0,0.7138,0.7805,0.8172,0.8172,0.8172,0.8061,0.7659,0.6839,0.6332,0.6159,0.6053,0.5865,0.5547,0.5285,0.5386,0.5601,0.5055,0.4851,0.4926,0.4695,0.461,0.4665,0.4665,0.4665,0.4665,0.4665,0.467,0.4689,0.4749,0.0,0.0,0.0,0.0,0.5022,0.5022,0.5022,0.5022,0.5022,0.5022,0.5022,0.5022,0.5066,0.5128,0.5188,0.5248,0.5311,0.5371,0.5384,0.5384,0.5384,0.0,0.0,0.0,0.0,0.0,0.0,0.0,0.0,0.0,0.0,0.0,0.0,0.0,0.0,0.0,0.0,0.0,1.6251,1.6284,1.6373,1.6527,1.7134,1.7673,1.8044,1.8817,1.9351,1.9746,1.9834,1.9921,1.9921,1.9921,1.9921,1.9921,1.9921,1.9921,1.9921,1.9921,1.9921,1.9921,1.9921,1.9921,1.9921,1.9921,1.9921,1.9921,0.0,0.0,0.0,0.0,0.0,0.0,0.0,0.0,0.0,0.0,1.0834,1.0875,0.0,0.0,0.0,0.9288,0.8319,0.743,0.6621,0.0,0.0,0.6092,0.6766,0.7072,0.7072,0.7383,0.7249,0.6719,0.6307,0.5752,0.4913,0.4932,0.4775,0.4495,0.4437,0.447,0.4592,0.4532,0.453,0.4633,0.4641,0.461,0.4665,0.4665,0.4665,0.4665,0.4665,0.4771,0.4752,0.4812,0.4875,0.0,0.0,0.0,0.5022,0.5022,0.5022,0.5022,0.5022,0.5022,0.5022,0.5022,0.5066,0.5128,0.5188,0.5248,0.5311,0.5371,0.5384,0.5384,0.0,0.0,0.0,0.0,0.0,0.0,0.0,0.0,0.0,0.0,0.0,0.0,0.0,0.0,0.0,0.0,0.0,0.0,1.6081,1.6219,1.6316,1.6341,1.7019,1.7366,1.7621,1.8509,1.904,1.9301,1.9746,1.9921,1.9921,1.9921,1.9921,1.9921,1.9921,1.9921,1.9921,1.9921,1.9921,1.9921,1.9921,1.9921,1.9921,1.9921,1.9921,1.9921,0.0,0.0,0.0,0.0,0.0,0.0,0.0,0.0,0.0,0.0,0.0,1.0552,0.0,0.0,0.0,0.8337,0.7446,0.6537,0.5605,0.5114,0.4991,0.5298,0.579,0.6031,0.6031,0.6219,0.6143,0.5922,0.55,0.5066,0.4682,0.4519,0.4417,0.4308,0.4308,0.4341,0.4401,0.4433,0.4496,0.4575,0.461,0.464,0.4665,0.4665,0.4665,0.4665,0.4665,0.4776,0.4763,0.4826,0.4809,0.4946,0.5003,0.0,0.0,0.0,0.5022,0.5022,0.5022,0.5022,0.5022,0.5022,0.5041,0.5085,0.518,0.5224,0.527,0.5365,0.5384,0.0,0.0,0.0,0.0,0.0,0.0,0.0,0.0,0.0,0.0,0.0,0.0,0.0,0.0,0.0,0.0,0.0,0.0,1.5966,1.5966,1.6121,1.6162,1.6162,1.65,1.6885,1.7222,1.811,1.884,1.9563,1.9834,1.9921,1.9921,1.9921,1.9921,1.9921,1.965,1.9475,1.9475,1.9214,1.9301,1.9475,1.9475,1.965,1.9921,1.9921,1.9921,1.9921,0.0,0.0,0.0,0.0,0.0,0.0,0.0,0.0,0.0,0.0,0.0,0.0,0.0,0.0,0.0,0.0,0.6541,0.5605,0.4687,0.4441,0.4379,0.4626,0.4991,0.5125,0.5142,0.5266,0.5317,0.5291,0.4836,0.4639,0.4573,0.442,0.4308,0.4308,0.4324,0.4365,0.4422,0.448,0.454,0.46,0.4646,0.4665,0.4665,0.4665,0.4746,0.476,0.476,0.4736,0.4809,0.4853,0.4831,0.4965,0.5008,0.5022,0.0,0.0,0.0,0.5022,0.5022,0.5022,0.5022,0.5022,0.5022,0.5052,0.5175,0.5202,0.5237,0.0,0.0,0.0,0.0,0.0,0.0,0.0,0.0,0.0,0.0,0.0,0.0,0.0,0.0,0.0,0.0,0.0,0.0,0.0,0.0,1.5966,1.5966,1.5966,1.5966,1.5966,1.617,1.6426,1.681,1.7767,1.8727,1.9836,1.9892,1.9921,1.9921,1.9921,1.9834,1.9737,1.9388,1.9117,1.903,1.8602,1.8689,1.903,1.903,1.9214,1.9572,1.9659,1.9746,1.9737,0.0,0.0,0.0,0.0,0.0,0.0,0.0,0.0,0.0,0.0,0.0,0.9512,0.9169,0.8142,0.7184,0.6517,0.5536,0.4684,0.4013,0.3951,0.3951,0.3951,0.4256,0.0,0.4533,0.4847,0.4916,0.4735,0.4738,0.4576,0.4303,0.4305,0.4308,0.4311,0.4368,0.4425,0.4482,0.4542,0.4605,0.466,0.4662,0.4665,0.4665,0.4665,0.4774,0.4824,0.4824,0.4826,0.4927,0.4932,0.497,0.5016,0.5019,0.5022,0.5022,0.0,0.0,0.0,0.5022,0.5022,0.5022,0.5022,0.5022,0.5052,0.5175,0.5202,0.5237,0.536,0.0,0.0,0.0,0.0,0.0,0.0,0.0,0.0,0.0,0.0,0.0,0.0,0.0,0.0,0.0,0.0,0.0,0.0,0.0,1.5966,1.5966,1.5966,1.5966,1.5966,1.5974,1.6137,1.63,1.7596,1.8655,1.9618,1.9826,1.9921,1.9921,1.9921,1.965,1.9204,1.9204,1.8943,1.8514,1.8514,1.8514,1.8514,1.8514,1.8514,1.8602,1.903,1.9204,1.9301,0.0,0.0,0.0,0.0,0.0,0.0,0.0,0.0,0.0,0.0,0.0,0.0,0.0,0.7235,0.6399,0.554,0.4684,0.4133,0.3889,0.3889,0.3905,0.394,0.4065,0.4156,0.422,0.4348,0.4391,0.435,0.435,0.4381,0.4308,0.4308,0.4327,0.4368,0.439,0.4431,0.4488,0.4548,0.4608,0.4665,0.4665,0.4665,0.474,0.4782,0.481,0.4835,0.4798,0.4867,0.4937,0.4937,0.4973,0.5022,0.5022,0.5022,0.5022,0.5022,0.5022,0.5022,0.5022,0.5022,0.5022,0.5022,0.5022,0.5041,0.5125,0.5145,0.525,0.5581,0.0,0.0,0.0,0.0,0.0,0.0,0.0,0.0,0.0,0.0,0.0,0.0,0.0,0.0,0.0,0.0,0.0,0.0,0.0,0.0,1.5966,1.5966,1.5966,1.5966,1.5966,1.6378,1.7219,1.7953,1.8742,1.9599,1.9675,1.9788,1.9921,1.9563,1.9214,1.8777,1.8427,1.8164,1.7998,1.7726,1.7814,1.8085,1.8085,1.8252,1.8514,1.8689,1.8943,1.9204,0.0,0.0,0.0,0.0,0.0,1.0826,1.1004,1.0729,1.0366,1.0051,0.0,0.0,0.0,0.0,0.5544,0.4622,0.4133,0.3897,0.3916,0.3916,0.3943,0.4063,0.4065,0.4093,0.4155,0.4155,0.4185,0.4248,0.4248,0.4267,0.4308,0.4308,0.4341,0.4398,0.4417,0.4458,0.4518,0.4578,0.4627,0.4665,0.4665,0.4665,0.474,0.4782,0.4749,0.479,0.4831,0.482,0.4965,0.4965,0.4989,0.5022,0.5022,0.5022,0.5022,0.5022,0.5022,0.5022,0.5022,0.5022,0.5022,0.5022,0.5022,0.5036,0.5098,0.5192,0.5371,0.0,0.0,0.0,0.0,0.0,0.0,0.0,0.0,0.0,0.0,0.0,0.0,0.0,0.0,0.0,0.0,0.0,0.0,0.0,0.0,0.0,1.5966,1.5966,1.6048,1.6205,1.6205,1.6757,1.7788,1.8117,1.8699,1.9392,1.9533,1.9675,1.9817,1.9351,1.8943,1.8427,1.7998,1.7735,1.7559,1.72,1.7288,1.7559,1.7559,1.7726,1.8077,1.8164,1.8602,1.903,0.0,0.0,1.0696,1.0696,1.085,1.0972,1.098,1.0694,1.0376,1.0028,0.0,0.0,0.0,0.0,0.0,0.3951,0.3889,0.3914,0.3967,0.3973,0.4002,0.4125,0.4128,0.4158,0.4218,0.4218,0.4248,0.4308,0.4308,0.4308,0.4308,0.4311,0.4343,0.4403,0.4461,0.4518,0.458,0.464,0.4665,0.4665,0.4665,0.4665,0.4665,0.4668,0.4744,0.4772,0.4775,0.4924,0.5022,0.5022,0.5022,0.5022,0.5022,0.5022,0.5022,0.5022,0.5022,0.5022,0.0,0.0,0.0,0.5022,0.5022,0.5036,0.5095,0.5431,0.5771,0.0,0.0,0.0,0.0,0.0,0.0,0.0,0.0,0.0,0.0,0.0,0.0,0.0,0.0,0.0,0.0,0.0,0.0,0.0,0.0,1.5966,1.5966,1.6048,1.6205,1.6689,1.6689,1.71,1.8001,1.8211,1.856,1.8976,1.9382,1.9581,1.9599,1.9287,1.8943,1.8427,1.7998,1.7559,1.7112,1.7112,1.7112,1.7112,1.7112,1.7112,1.72,1.7647,1.8085,1.8514,0.0,1.0688,1.0737,1.0867,1.0932,1.0997,1.1023,1.0494,0.9877,0.0,0.0,0.0,0.5912,0.481,0.4074,0.3889,0.3924,0.3956,0.397,0.4076,0.4128,0.4188,0.4191,0.4221,0.4281,0.4283,0.4292,0.4308,0.4308,0.4308,0.4308,0.4352,0.4403,0.4463,0.4521,0.458,0.464,0.4657,0.4665,0.4665,0.4665,0.4665,0.4673,0.4763,0.4818,0.478,0.4943,0.4995,0.5022,0.5022,0.5022,0.5022,0.5022,0.5022,0.5022,0.5022,0.5022,0.5022,0.5022,0.0,0.0,0.0,0.0,0.0,0.5516,0.5874,0.6314,0.0,0.0,0.0,0.0,0.0,0.0,0.0,0.0,0.0,0.0,0.0,0.0,0.0,0.0,0.0,0.0,0.0,0.0,0.0,1.5801,1.5966,1.5966,1.6287,1.6534,1.6698,1.7346,1.7764,1.801,1.8402,1.8752,1.8976,1.9089,1.9306,1.9599,1.8786,1.8461,1.8427,1.7639,1.72,1.7112,1.7112,1.7112,1.7112,1.7112,1.7112,1.7112,1.7288,1.7551,1.8085,1.0688,1.0753,1.0842,1.1004,1.1094,1.1141,1.0996,1.0368,0.96,0.0,0.0,0.0,0.5114,0.4342,0.3924,0.3924,0.3975,0.4085,0.4109,0.4145,0.4191,0.4251,0.4253,0.427,0.4308,0.4308,0.4308,0.4308,0.4308,0.4322,0.4346,0.4382,0.4442,0.4521,0.4556,0.4608,0.4665,0.4665,0.4665,0.4665,0.4665,0.4752,0.4709,0.4782,0.4839,0.4817,0.4962,0.5,0.5022,0.5022,0.5022,0.5022,0.5022,0.5022,0.5022,0.5022,0.5022,0.5022,0.5022,0.5022,0.5022,0.5022,0.0,0.0,0.5651,0.6178,0.6709,0.0,0.0,0.0,0.0,0.0,0.0,0.0,0.0,0.0,0.0,0.0,0.0,0.0,0.0,0.0,0.0,0.0,0.0,1.5546,1.5883,1.613,1.6287,1.6534,1.6854,1.7273,1.7755,1.8092,1.8255,1.8592,1.8739,1.8853,1.8938,1.9099,1.9344,1.8484,1.8207,1.8305,1.7347,1.7047,1.7112,1.7112,1.7112,1.7112,1.7112,1.7112,1.7112,1.7112,1.7375,1.791,0.0,1.0858,1.098,1.1021,1.1289,1.1331,1.0992,1.0215,0.9329,0.0,0.7011,0.5732,0.4512,0.419,0.3975,0.3981,0.4101,0.4158,0.4213,0.4224,0.4251,0.4305,0.4308,0.4308,0.4308,0.4308,0.4308,0.4308,0.4313,0.4346,0.4398,0.4412,0.4474,0.4572,0.458,0.4613,0.4665,0.4665,0.4668,0.4746,0.4746,0.4711,0.4766,0.4774,0.4842,0.4937,0.4943,0.4978,0.5022,0.5022,0.5022,0.5022,0.5022,0.5022,0.5022,0.5022,0.5022,0.5022,0.503,0.5025,0.5022,0.503,0.5419,0.0,0.573,0.6415,0.7107,0.7107,0.0,0.0,0.0,0.0,0.0,0.0,0.0,0.0,0.0,0.0,0.0,0.0,0.0,0.0,0.0,1.4135,1.5043,1.5966,1.613,1.6369,1.678,1.6854,1.7182,1.801,1.8092,1.8255,1.8673,1.8673,1.8673,1.8683,1.8853,1.8957,1.8985,1.8241,1.8005,1.8103,1.7181,1.6942,1.708,1.7104,1.7112,1.7112,1.7112,1.7112,1.7112,1.7112,1.7375,1.7822,1.0883,1.094,1.1118,1.1346,1.1216,1.0955,1.0485,0.9613,0.8532,0.7378,0.5786,0.4706,0.4514,0.4216,0.3991,0.4104,0.4164,0.4204,0.4215,0.4262,0.4294,0.4308,0.4308,0.4308,0.4308,0.4308,0.4308,0.4308,0.4357,0.4387,0.4401,0.4496,0.4551,0.4575,0.4624,0.4654,0.4665,0.4665,0.4765,0.4812,0.4812,0.4774,0.4834,0.4883,0.4916,0.4943,0.4986,0.5011,0.5022,0.5022,0.5022,0.5022,0.5022,0.5022,0.5022,0.5022,0.5022,0.503,0.5082,0.5057,0.5033,0.5082,0.5609,0.0,0.6196,0.6885,0.7584,0.0,0.0,0.0,0.0,0.0,0.0,0.0,0.0,0.0,0.0,0.0,0.0,0.0,0.0,0.0,0.0,1.3638,1.4713,1.5875,1.6706,1.7199,1.7281,1.76,1.7837,1.8001,1.8346,1.8592,1.8673,1.8673,1.8673,1.8673,1.8721,1.8815,1.8976,1.8097,1.7803,1.792,1.7132,1.6782,1.6917,1.7055,1.7112,1.7112,1.7112,1.7112,1.7112,1.7112,1.72,1.7375,1.1004,1.111,1.1289,1.1468,1.1454,1.1183,1.0657,0.9566,0.8349,0.7072,0.5331,0.419,0.4221,0.4154,0.4136,0.4169,0.4226,0.4262,0.4262,0.4292,0.4308,0.4308,0.4308,0.4308,0.4308,0.4338,0.4352,0.4352,0.4412,0.4455,0.4488,0.4545,0.4589,0.4621,0.4651,0.4665,0.4665,0.4665,0.4717,0.4798,0.4766,0.4809,0.4817,0.4924,0.4954,0.4981,0.5011,0.5022,0.5022,0.5022,0.5022,0.5022,0.5022,0.5022,0.5022,0.5022,0.5022,0.5027,0.5057,0.5044,0.5027,0.5057,0.5516,0.0,0.0,0.6569,0.7024,0.7024,0.0,0.0,0.0,0.0,0.0,0.0,0.0,0.0,0.0,0.0,0.0,0.0,0.0,0.0,0.0,1.3314,1.439,1.5883,1.6616,1.7273,1.7682,1.7928,1.8092,1.8337,1.8592,1.8673,1.8673,1.8673,1.8673,1.8673,1.8673,1.873,1.8825,1.7917,1.7609,1.771,1.6875,1.6633,1.6722,1.6812,1.6844,1.6868,1.7039,1.7112,1.7112,1.7112,1.7112,1.72,1.1126,1.1305,1.1508,1.1549,1.1611,1.1405,1.0732,0.9511,0.8116,0.6733,0.5077,0.3994,0.4068,0.4158,0.4221,0.4234,0.4278,0.4308,0.4308,0.4308,0.4313,0.4324,0.4313,0.4319,0.4341,0.4379,0.4403,0.4414,0.4471,0.4526,0.4572,0.4586,0.4619,0.4665,0.4665,0.4665,0.4665,0.4749,0.4744,0.4767,0.4807,0.4856,0.4954,0.4954,0.4981,0.5022,0.5022,0.5022,0.5022,0.5022,0.5022,0.5022,0.5022,0.5022,0.5022,0.5022,0.5022,0.5025,0.5036,0.503,0.0,0.0,0.0,0.573,0.0,0.0,0.0,0.0,0.0,0.0,0.0,0.0,0.0,0.0,0.0,0.0,0.0,0.0,0.0,0.0,0.0,0.0,0.0,1.3039,1.4099,1.5745,1.6393,1.713,1.7865,1.8064,1.8337,1.8673,1.8673,1.8673,1.8673,1.8673,1.8673,1.8673,1.8673,1.8673,1.8673,1.7773,1.7442,1.75,1.671,1.6389,1.6527,1.6568,1.6584,1.6609,1.6893,1.7006,1.7006,1.7006,1.7006,1.7181,1.1443,1.1468,1.1549,1.1719,1.1269,1.0671,1.0004,0.8848,0.7352,0.5456,0.4585,0.4136,0.4191,0.4207,0.4237,0.4292,0.4303,0.4308,0.4308,0.4308,0.4333,0.4387,0.4335,0.4357,0.4461,0.442,0.4422,0.4471,0.4534,0.4567,0.4575,0.463,0.4657,0.4665,0.4665,0.4665,0.4668,0.4796,0.4785,0.4775,0.4897,0.4954,0.5011,0.5011,0.5014,0.5022,0.5022,0.5022,0.5022,0.5022,0.5022,0.5022,0.5022,0.5022,0.5022,0.5022,0.0,0.0,0.0,0.0,0.0,0.0,0.5379,0.0,0.0,0.0,0.6285,0.6285,0.0,0.0,0.0,0.0,0.0,0.0,0.0,0.0,0.0,0.0,0.0,0.0,0.0,0.0,0.0,0.0,1.4179,1.5147,1.6363,1.7261,1.7745,1.8326,1.8673,1.8673,1.8673,1.8673,1.8673,1.8673,1.8673,1.8673,1.8673,1.8673,1.8673,1.7773,1.7372,1.7407,1.6651,1.6316,1.6349,1.6511,1.6584,1.6584,1.6625,1.6641,1.6641,1.6641,1.6641,1.6812,1.1524,1.1589,1.1687,1.176,1.1405,1.0846,1.0186,0.8351,0.6643,0.5287,0.4526,0.4188,0.4213,0.4248,0.4281,0.4305,0.4341,0.436,0.436,0.439,0.442,0.4447,0.4422,0.4433,0.448,0.4493,0.4512,0.4534,0.4597,0.4627,0.4627,0.4651,0.4665,0.4665,0.4665,0.4757,0.4793,0.4818,0.4812,0.4826,0.4927,0.497,0.5022,0.5022,0.5022,0.5022,0.5022,0.5022,0.5022,0.0,0.5022,0.0,0.0,0.0,0.0,0.5022,0.0,0.0,0.0,0.0,0.0,0.0,0.0,0.0,0.5257,0.0,0.557,0.0,0.0,0.0,0.0,0.0,0.0,0.0,0.6264,0.0,0.0,0.0,0.0,0.0,0.0,0.0,0.0,0.0,0.0,0.0,0.0,1.6419,1.7306,1.7982,1.8428,1.8673,1.8673,1.8673,1.8673,1.8673,1.8673,1.8673,1.8673,1.8673,1.8673,1.7773,1.7363,1.7363,1.6535,1.6154,1.6162,1.6235,1.6267,1.6267,1.6267,1.6397,1.6584,1.6584,1.6584,1.6661,1.1606,1.1687,1.1776,1.1776,1.1506,1.0867,0.9869,0.7874,0.6141,0.5307,0.466,0.4243,0.4243,0.4281,0.4313,0.4333,0.4373,0.4403,0.442,0.4461,0.4491,0.4507,0.4491,0.4499,0.4531,0.4559,0.458,0.46,0.4643,0.4665,0.4665,0.4665,0.4665,0.4665,0.4665,0.4763,0.4807,0.4766,0.4831,0.4913,0.4946,0.4984,0.5022,0.5022,0.5022,0.5022,0.5022,0.5022,0.5022,0.5022,0.5022,0.0,0.5022,0.0,0.5046,0.0,0.0,0.0,0.5071,0.0,0.0,0.0,0.0,0.0,0.0,0.0,0.0,0.0,0.0,0.0,0.0,0.0,0.5179,0.5651,0.0,0.5884,0.0,0.0,0.0,0.0,0.0,0.0,0.0,0.0,0.0,1.2323,1.3748,1.5111,1.6347,1.7188,1.7901,1.8426,1.8482,1.8592,1.8673,1.8673,1.8673,1.8673,1.8673,1.8592,1.851,1.7773,1.7363,1.7199,1.6377,1.5966,1.5966,1.5966,1.5966,1.5966,1.5966,1.6202,1.643,1.643,1.643,1.6514,1.1768,1.1776,1.1776,1.1776,1.1363,1.0398,0.8574,0.7154,0.6046,0.5329,0.4666,0.4305,0.4305,0.4305,0.4333,0.439,0.4398,0.4422,0.4477,0.4482,0.451,0.4567,0.4515,0.4537,0.4657,0.4602,0.4602,0.4662,0.4662,0.4665,0.4665,0.4665,0.4665,0.4665,0.4665,0.4665,0.4676,0.4793,0.4769,0.4783,0.4973,0.5019,0.5022,0.0,0.5022,0.5022,0.5022,0.0,0.0,0.5022,0.5022,0.0,0.0,0.0,0.0,0.0,0.0,0.0,0.0,0.0,0.0,0.5109,0.0,0.0,0.0,0.0,0.5022,0.0,0.0,0.0,0.0,0.5022,0.5179,0.5651,0.5651,0.0,0.0,0.0,0.0,0.0,0.0,0.0,0.0,0.0,0.0,1.0843,1.223,1.3605,1.4712,1.599,1.7022,1.7736,1.791,1.8255,1.8673,1.8673,1.8673,1.8673,1.8673,1.8428,1.801,1.7609,1.7117,1.6698,1.6205,1.5966,1.5966,1.5966,1.5966,1.5966,1.5966,1.5974,1.5982,1.5982,1.5982,1.6064,1.1922,1.1947,1.1947,1.1947,1.1618,1.0816,0.9221,0.7862,0.6666,0.5797,0.5095,0.4591,0.4362,0.4368,0.439,0.445,0.4491,0.4523,0.4542,0.458,0.461,0.4632,0.4613,0.4621,0.4662,0.4643,0.4643,0.4665,0.4665,0.4665,0.4665,0.4665,0.4665,0.4665,0.4665,0.4709,0.4788,0.4753,0.4815,0.4965,0.5006,0.5022,0.5022,0.0,0.5022,0.5022,0.5022,0.5022,0.0,0.5022,0.5022,0.5022,0.5022,0.5063,0.5112,0.5112,0.5155,0.0,0.0,0.0,0.5112,0.5112,0.0,0.0,0.0,0.0,0.0,0.0,0.0,0.0,0.0,0.5082,0.5068,0.5184,0.5257,0.5257,0.0,0.0,0.0,0.0,0.0,0.0,0.0,0.0,0.0,0.985,1.0978,1.2337,0.0,1.4804,1.5796,1.7005,1.7401,1.7846,1.8255,1.851,1.8673,1.8673,1.8673,1.8428,1.8001,1.7609,1.7108,1.6698,1.6205,1.5966,1.5966,1.5966,1.5966,1.5966,1.5966,1.5966,1.5966,1.5966,1.5966,1.613,1.2109,1.2125,1.2125,1.2125,1.1674,1.0919,0.9686,0.8273,0.7044,0.6038,0.5265,0.4691,0.4461,0.4417,0.4452,0.451,0.4551,0.4583,0.4605,0.4643,0.4665,0.4665,0.4665,0.4665,0.4665,0.4665,0.4665,0.4665,0.4665,0.4665,0.4665,0.4665,0.4665,0.4665,0.476,0.4741,0.4818,0.4858,0.4921,0.4992,0.5011,0.5022,0.0,0.0,0.5022,0.5022,0.0,0.5022,0.5022,0.5022,0.5022,0.5025,0.5046,0.5095,0.5147,0.5169,0.5218,0.5267,0.5267,0.5224,0.0,0.5177,0.5131,0.0,0.5085,0.0,0.0,0.0,0.0,0.0,0.0,0.5093,0.5066,0.5027,0.5022,0.5022,0.0,0.5022,0.0,0.0,0.0,0.0,0.0,0.0,0.0,0.8934,0.9892,1.1075,0.0,0.0,1.44,1.5667,1.6218,1.6854,1.7656,1.8154,1.8435,1.8673,1.8673,1.8346,1.7764,1.7527,1.7026,1.6451,1.6122,1.5966,1.5966,1.5966,1.5966,1.5966,1.5966,1.5966,1.5966,1.5966,1.613,1.6369,1.232,1.2328,1.2328,1.2328,1.1634,1.0743,0.9889,0.8512,0.7183,0.6116,0.5376,0.4809,0.4475,0.4455,0.4512,0.4572,0.4578,0.4602,0.466,0.4665,0.4665,0.4665,0.4665,0.4665,0.4665,0.4665,0.4665,0.4665,0.4665,0.4665,0.4665,0.4665,0.4665,0.4668,0.4801,0.4832,0.4768,0.4886,0.4937,0.4946,0.5,0.5022,0.5022,0.5022,0.5022,0.5022,0.5022,0.5022,0.5022,0.5022,0.5022,0.503,0.5093,0.5153,0.5215,0.5275,0.5338,0.5384,0.5384,0.5341,0.5294,0.5294,0.0,0.0,0.0,0.0,0.5204,0.0,0.0,0.0,0.0,0.0,0.5025,0.5022,0.5022,0.5022,0.5022,0.5022,0.0,0.0,0.0,0.0,0.0,0.0,0.7686,0.8159,0.9022,0.9824,0.0,0.0,1.2788,1.3833,1.4456,1.5497,1.6975,1.7396,1.798,1.8673,1.8673,1.8265,1.7363,1.7363,1.6871,1.5966,1.5966,1.5966,1.5966,1.5966,1.5966,1.5966,1.5966,1.5966,1.5966,1.5966,1.6287,1.678,1.2475,1.2605,1.2702,1.2702,1.2277,1.1732,1.0909,0.9848,0.8611,0.7418,0.6361,0.5532,0.5014,0.4755,0.4575,0.4635,0.464,0.4649,0.4662,0.4665,0.4665,0.4665,0.4665,0.4665,0.4665,0.4665,0.4665,0.4665,0.4665,0.4665,0.4665,0.4665,0.4665,0.4668,0.4801,0.4779,0.4828,0.4905,0.4962,0.5,0.5014,0.5022,0.5022,0.0,0.5022,0.5022,0.5022,0.5022,0.5022,0.5022,0.5022,0.503,0.5093,0.5153,0.5215,0.5275,0.5338,0.5384,0.5384,0.5341,0.5294,0.5294,0.5248,0.5202,0.0,0.0,0.0,0.0,0.0,0.0,0.0,0.0,0.0,0.5027,0.5257,0.5495,0.5495,0.0,0.0,0.6118,0.0,0.0,0.0,0.7291,0.7686,0.8159,0.8416,0.8919,0.0,0.0,0.0,1.2243,1.3082,1.4223,1.5683,1.641,1.7242,1.8174,1.851,1.8265,1.7363,1.7363,1.6871,1.5966,1.5966,1.5966,1.5966,1.5966,1.5966,1.5966,1.5966,1.5966,1.5966,1.5966,1.6542,1.7281,1.2661,1.2767,1.2774,1.2774,1.2698,1.2324,1.1328,1.0232,0.9092,0.8073,0.7134,0.6473,0.6041,0.5647,0.5478,0.5548,0.5259,0.5037,0.5037,0.4892,0.4733,0.4779,0.4776,0.4765,0.4665,0.4665,0.4665,0.4665,0.4665,0.4665,0.4665,0.4665,0.4752,0.4779,0.4768,0.4828,0.4812,0.4948,0.4992,0.5022,0.5022,0.5022,0.0,0.5022,0.5022,0.5022,0.5022,0.5022,0.5022,0.5022,0.5022,0.5036,0.5123,0.5175,0.5221,0.5308,0.5357,0.5384,0.5384,0.536,0.5333,0.5333,0.5308,0.5283,0.5283,0.5283,0.5292,0.0,0.0,0.0,0.0,0.0,0.0,0.5625,0.5824,0.5962,0.5962,0.0,0.0,0.0,0.6777,0.0,0.0,0.7369,0.7603,0.7842,0.808,0.0,0.0,0.0,0.0,1.1015,1.1892,1.3002,1.4524,1.5168,1.6102,1.7181,1.7593,1.7476,1.6996,1.7074,1.6698,1.5966,1.5966,1.5966,1.5966,1.5966,1.5966,1.5966,1.5966,1.5966,1.5966,1.5966,1.6624,1.7363,1.2774,1.2774,1.2774,1.2774,1.2912,1.2641,1.1497,1.0335,0.9342,0.8534,0.7953,0.7545,0.7289,0.6864,0.6649,0.6721,0.5974,0.5522,0.5522,0.5071,0.4823,0.4768,0.4766,0.4741,0.4689,0.4681,0.4749,0.4749,0.4668,0.4665,0.4665,0.4665,0.4771,0.4832,0.4818,0.4807,0.4951,0.5,0.5022,0.5022,0.5022,0.5022,0.5022,0.5022,0.5022,0.5022,0.5022,0.5022,0.5022,0.5022,0.5022,0.5041,0.5164,0.5202,0.5226,0.5349,0.5384,0.5384,0.5384,0.5384,0.5384,0.5384,0.5384,0.5384,0.5384,0.5384,0.5384,0.5384,0.5335,0.5294,0.0,0.0,0.0,0.6334,0.0,0.0,0.0,0.0,0.0,0.0,0.0,0.0,0.0,0.0,0.7525,0.7525,0.7842,0.0,0.0,0.0,0.0,1.004,1.0753,0.0,1.3342,0.0,1.4548,1.5981,1.6246,1.6338,1.6266,1.6532,1.6369,1.5883,1.5966,1.5966,1.5966,1.5966,1.5966,1.5966,1.5966,1.5966,1.5966,1.5966,1.6624,1.7363,1.2774,1.2774,1.2774,1.2774,1.2712,1.2479,1.1925,1.1507,1.0958,0.9964,0.9325,0.8734,0.8186,0.7546,0.701,0.6728,0.5974,0.5522,0.5522,0.5071,0.4767,0.4831,0.4828,0.4826,0.4815,0.4766,0.4812,0.4812,0.4763,0.4665,0.4665,0.4665,0.4771,0.4832,0.4818,0.4905,0.5006,0.5016,0.0,0.5022,0.5022,0.5022,0.5022,0.5022,0.5022,0.5022,0.5022,0.5022,0.5022,0.5022,0.5022,0.5041,0.5164,0.5202,0.5226,0.5349,0.5384,0.5384,0.5384,0.5384,0.5384,0.5384,0.5384,0.5384,0.5384,0.5384,0.5384,0.5384,0.5335,0.5457,0.5787,0.0,0.0,0.0,0.0,0.0,0.0,0.0,0.0,0.0,0.0,0.8003,0.0,0.0,0.0,0.0,0.0,0.0,0.0,0.0,0.0,0.0,0.9644,0.0,0.0,0.0,1.2942,1.4635,1.5199,1.544,1.5448,1.5877,1.5875,1.5546,1.5875,1.5966,1.5966,1.5966,1.5966,1.5966,1.5966,1.5966,1.5966,1.5966,1.6624,1.7363,1.2774,1.2774,1.2798,1.2954,1.2982,1.293,0.0,1.2632,1.2293,1.1148,1.0624,1.0272,1.0093,0.9559,0.9015,0.8463,0.7471,0.6704,0.6246,0.563,0.5154,0.4894,0.4817,0.4801,0.4772,0.4818,0.4801,0.4801,0.4771,0.4741,0.4785,0.4744,0.4774,0.4807,0.4897,0.4967,0.0,0.0,0.0,0.5022,0.5022,0.5022,0.5022,0.5022,0.5022,0.5022,0.5022,0.5022,0.5022,0.5022,0.5022,0.5041,0.5164,0.5202,0.5226,0.5349,0.5384,0.5384,0.5384,0.5384,0.5384,0.5384,0.5384,0.5384,0.5384,0.5384,0.5384,0.5384,0.5527,0.5921,0.6586,0.702,0.0,0.0,0.0,0.0,0.0,0.0,0.8581,0.0,0.0,0.0,0.0,0.0,0.0,0.0,0.0,0.0,0.0,0.0,0.0,0.0,0.0,0.0,0.0,0.0,0.0,1.2542,1.2929,1.3329,1.3824,1.4392,1.4796,1.5051,1.5463,1.5793,1.5966,1.5966,1.5966,1.5966,1.5966,1.5966,1.5966,1.5966,1.6624,1.7363,1.2881,1.2889,1.2946,1.3124,1.3303,1.3351,1.3177,1.3395,1.318,1.21,1.1889,1.179,1.1795,1.146,1.0992,1.0169,0.9003,0.7989,0.7369,0.6509,0.5861,0.5343,0.534,0.524,0.5111,0.51,0.5091,0.494,0.4926,0.4895,0.4777,0.4823,0.4777,0.4793,0.0,0.0,0.0,0.0,0.5022,0.5022,0.5022,0.5022,0.5022,0.5022,0.5022,0.5022,0.5022,0.5022,0.5022,0.5022,0.5022,0.5041,0.5164,0.5202,0.5226,0.5349,0.5384,0.5384,0.5384,0.5384,0.5384,0.5384,0.5384,0.5384,0.5384,0.5384,0.5468,0.5552,0.5969,0.664,0.7394,0.7837,0.0,0.0,0.0,0.0,0.0,0.0,0.0,0.0,0.0,0.0,0.8335,0.0,0.0,0.0,0.0,0.7525,0.7525,0.792,0.0,0.0,0.0,0.9058,0.9567,0.0,0.9809,0.0,1.0737,1.1207,1.2112,1.2738,1.3466,1.43,1.4968,1.5546,1.5966,1.5966,1.5966,1.5966,1.5966,1.5966,1.6048,1.613,1.6706,1.7445,1.3035,1.3068,1.3124,0.0,0.0,1.3536,1.3278,1.3465,1.3436,1.2911,1.3103,1.3,1.2347,1.2009,1.1476,1.0641,0.947,0.8691,0.8613,0.7838,0.7131,0.6736,0.6736,0.6577,0.6176,0.6112,0.5925,0.0,0.5477,0.522,0.0,0.4767,0.4799,0.0,0.0,0.0,0.0,0.5022,0.5022,0.5022,0.5022,0.5022,0.5022,0.5022,0.5022,0.5022,0.5022,0.5022,0.5022,0.5022,0.5022,0.5041,0.5164,0.5202,0.5226,0.5349,0.5384,0.5384,0.5384,0.5384,0.5384,0.5384,0.5384,0.5384,0.5384,0.5384,0.5552,0.5969,0.6724,0.7394,0.798,0.8395,0.8804,0.0,0.0,0.0,0.0,0.0,0.9754,0.9774,0.0,0.0,0.0,0.8428,0.0,0.0,0.0,0.7525,0.7525,0.792,0.8198,0.8291,0.0,0.8579,0.9164,0.8765,0.0,0.9809,0.9519,0.982,1.0721,1.1334,1.2056,1.2982,1.4217,1.5216,1.5966,1.5966,1.5966,1.5966,1.5966,1.5966,1.6048,1.6451,1.6944,1.7445,0.0,0.0,0.0,0.0,0.0,0.0,0.0,1.409,1.4199,1.405,1.3943,1.3756,1.3556,1.3469,1.3042,1.2192,1.1256,1.048,0.9931,0.9075,0.8457,0.8067,0.8067,0.7833,0.7365,0.7333,0.7162,0.0,0.0,0.0,0.0,0.0,0.0,0.0,0.0,0.5022,0.5022,0.5022,0.5022,0.5022,0.5022,0.5022,0.5022,0.5022,0.5022,0.5022,0.5022,0.5022,0.5022,0.5022,0.5022,0.5041,0.5164,0.5202,0.5226,0.5349,0.5384,0.5384,0.5384,0.5384,0.5384,0.5384,0.5384,0.5468,0.5717,0.5801,0.5969,0.6392,0.7227,0.798,0.8399,0.9068,0.955,0.0,0.0,0.0,0.0,0.0,0.0,0.9876,0.0,0.9107,0.0,0.0,0.0,0.0,0.0,0.0,0.7525,0.7681,0.0,0.7814,0.0,0.7965,0.828,0.8122,0.8096,0.8284,0.8157,0.8344,0.8676,0.9457,1.0976,1.3224,1.4548,1.5463,1.5966,1.5966,1.5966,1.5966,1.5966,1.5966,1.6048,1.6534,1.7026,1.7445,1.3417,0.0,1.3522,0.0,1.3904,1.4066,1.4302,1.4546,1.4724,1.4773,1.4554,1.4373,1.443,1.4368,1.413,1.3351,1.2656,1.1953,1.1405,1.0707,1.0164,0.9703,0.9703,0.0,0.8847,0.8847,0.8613,0.8067,0.7681,0.0,0.0,0.0,0.0,0.0,0.5022,0.5022,0.5022,0.5022,0.5022,0.5022,0.5022,0.5022,0.5022,0.5022,0.5022,0.5022,0.5022,0.5022,0.5022,0.5022,0.5022,0.5041,0.5164,0.5202,0.5226,0.5349,0.5384,0.5384,0.5384,0.5384,0.5468,0.5552,0.5636,0.572,0.6137,0.6305,0.6472,0.6975,0.7729,0.8483,0.8989,0.9653,1.0128,1.0128,0.0,0.0,0.0,0.0,0.0,0.0,0.9516,0.9069,0.8348,0.0,0.0,0.0,0.0,0.0,0.0,0.0,0.0,0.0,0.0,0.0,0.0,0.7787,0.7631,0.7357,0.7216,0.7227,0.7227,0.8395,1.0393,1.3058,1.4465,1.5298,1.5801,1.5966,1.5966,1.5966,1.5966,1.6048,1.6287,1.6698,1.7191,1.76,1.3604,1.3566,1.375,1.4107,1.4172,1.4294,1.4651,1.4708,1.4773,1.4944,1.496,1.4814,1.4438,1.4368,1.4207,1.3744,1.3351,1.3042,1.3042,1.2656,1.2269,0.0,0.0,1.1495,1.0563,1.0563,1.0169,0.9387,0.0,0.0,0.7447,0.0,0.5414,0.5022,0.5022,0.5022,0.5022,0.5022,0.5022,0.5022,0.5022,0.5022,0.5022,0.5022,0.5022,0.5022,0.5022,0.5022,0.5022,0.5022,0.5022,0.5041,0.5164,0.5202,0.5226,0.5349,0.5384,0.5384,0.5384,0.5384,0.5552,0.5969,0.6053,0.6221,0.656,0.6727,0.6979,0.7897,0.8399,0.8989,0.9908,1.007,1.0237,1.0654,0.0,0.0,0.0,0.0,0.0,0.0,0.983,0.9445,0.8346,0.0,0.0,0.0,0.0,0.0,0.0,0.0,0.0,0.7525,0.7525,0.0,0.7664,0.7754,0.7599,0.7275,0.6857,0.6727,0.6727,0.8562,1.0398,1.2152,1.3556,1.4631,1.5463,1.5883,1.5966,1.5966,1.5966,1.6287,1.678,1.7199,1.7682,1.8092,1.3782,1.392,1.4042,1.4156,1.4383,1.4578,1.4692,1.4806,1.4903,1.496,1.4968,1.4968,1.4814,1.4814,1.4737,0.0,1.4207,1.3975,0.0,1.359,1.3274,1.312,1.312,1.2888,1.2347,1.2037,1.165,1.1101,0.0,0.0,0.0,0.6431,0.5727,0.5022,0.5022,0.5022,0.5022,0.5022,0.5022,0.5022,0.5022,0.5022,0.5022,0.5022,0.5022,0.5022,0.5022,0.5022,0.5022,0.5022,0.5022,0.5041,0.5164,0.5202,0.5226,0.5349,0.5384,0.5468,0.5801,0.5885,0.5969,0.6392,0.6476,0.6643,0.7059,0.7649,0.8236,0.8817,0.9318,0.9736,1.007,1.032,1.057,1.0654,1.0737,0.0,0.0,0.0,0.0,0.0,0.9359,0.9069,0.0,0.81,0.0,0.0,0.0,0.0,0.0,0.0,0.0,0.0,0.7525,0.0,0.766,0.7428,0.7188,0.678,0.644,0.6305,0.6305,0.7809,0.9314,1.0809,1.2478,1.3804,1.4961,1.5381,1.5711,1.5966,1.5966,1.6287,1.678,1.7199,1.7682,1.8092,1.3969,1.4099,1.4221,1.4351,1.4562,1.4732,1.4797,1.4895,1.4968,1.4968,1.4968,1.4968,1.4968,1.4968,0.0,1.4968,1.4737,1.4669,1.4669,1.4353,1.4199,1.4199,1.4199,1.3968,1.359,0.0,0.0,1.2347,1.0796,0.9007,0.7138,0.6587,0.5805,0.5022,0.5022,0.5022,0.5022,0.5022,0.5022,0.5022,0.5022,0.5022,0.5022,0.5022,0.5022,0.5022,0.5022,0.5022,0.5022,0.5022,0.51,0.5274,0.538,0.5509,0.5715,0.568,0.5804,0.5972,0.6221,0.6305,0.6389,0.6895,0.7059,0.7394,0.798,0.8566,0.9072,0.9574,0.9903,1.0153,1.032,1.057,1.0737,1.0737,1.0737,1.0737,1.0737,0.0,0.0,0.0,0.0,0.0,0.0,0.8224,0.0,0.0,0.0,0.0,0.0,0.0,0.0,0.7627,0.7627,0.0,0.7469,0.7313,0.6891,0.6364,0.6022,0.5969,0.6137,0.7139,0.8307,0.9643,1.1225,1.2727,1.3969,1.4803,1.5381,1.5793,1.6122,1.6534,1.7026,1.7437,1.7928,1.8337,1.414,1.4188,0.0,0.0,1.4716,0.0,1.4944,1.4968,1.4968,1.4968,1.4968,1.4968,1.4968,1.4968,1.4968,1.4968,0.0,0.0,0.0,1.4968,1.4968,1.4968,1.4968,1.4814,1.4438,1.3975,1.3513,1.3042,1.1029,0.9241,0.7603,0.6744,0.5883,0.5022,0.5022,0.5022,0.5022,0.5022,0.5022,0.5022,0.5022,0.5022,0.5022,0.5022,0.5022,0.5022,0.5022,0.5022,0.5022,0.5022,0.5257,0.5585,0.5652,0.612,0.6526,0.6257,0.6385,0.6727,0.6727,0.6811,0.6895,0.7394,0.7813,0.8399,0.9235,0.949,0.9569,1.007,1.0153,1.0237,1.0654,1.0737,1.0737,1.0737,1.0737,1.0737,1.0737,0.0,0.0,0.0,0.0,0.0,0.0,0.8728,0.8545,0.0,0.0,0.0,0.0,0.0,0.7717,0.7714,0.7718,0.7471,0.7063,0.7144,0.6776,0.5875,0.5524,0.5636,0.6053,0.6469,0.7391,0.8641,0.9976,1.1392,1.2733,1.4052,1.4961,1.5546,1.6369,1.7026,1.7527,1.7846,1.8337,1.8673,0.0,0.0,1.444,1.4667,1.4822,1.4919,1.496,1.4968,1.4968,1.4968,1.4968,1.4968,1.4968,1.4968,1.4968,1.4968,1.4968,1.4968,1.4968,1.4968,1.4968,1.4968,1.4968,1.4968,1.4891,1.4122,1.3197,1.2192,1.1029,0.9781,0.8457,0.7603,0.6587,0.5573,0.5573,0.5335,0.5022,0.5022,0.5022,0.5022,0.5022,0.5022,0.5022,0.5022,0.5022,0.5022,0.5022,0.5022,0.5022,0.5022,0.5335,0.5664,0.5731,0.6281,0.6922,0.6612,0.66,0.6811,0.7147,0.7478,0.7897,0.8319,0.8733,0.9235,0.982,0.9903,1.007,1.0487,1.057,1.057,1.0654,1.0737,1.0737,1.0737,1.0737,1.0737,1.0737,1.0634,0.0,0.0,0.9861,0.9851,0.9662,0.9022,0.8833,0.0,0.0,0.0,0.0,0.7585,0.7192,0.6827,0.6827,0.6742,0.6661,0.6407,0.5976,0.553,0.546,0.5468,0.5552,0.6053,0.6553,0.7303,0.8975,1.0476,1.1807,1.3549,1.4886,1.5875,1.6451,1.7191,1.7846,1.7928,1.8337,1.8673,1.4261,1.444,1.4611,1.4797,1.4903,1.4968,1.4968,1.4968,1.4968,1.4968,1.4968,1.4968,1.4968,1.4968,1.4968,1.4968,1.4968,1.4968,1.4968,1.4968,1.4968,1.4968,1.4968,1.4968,1.4968,1.4361,1.3513,1.2424,1.165,1.0635,0.962,0.8613,0.7525,0.6509,0.6118,0.5727,0.5257,0.51,0.5022,0.5022,0.5022,0.5022,0.5022,0.5022,0.5022,0.5022,0.5022,0.5022,0.5022,0.5179,0.557,0.5971,0.6168,0.697,0.7722,0.753,0.7549,0.7733,0.8148,0.8483,0.8817,0.924,0.9574,0.9824,1.0237,1.0404,1.0404,1.0654,1.0737,1.0737,1.0737,1.0737,1.0737,1.0737,1.0737,1.0737,1.0737,1.0634,0.0,1.023,1.023,1.023,1.023,0.9672,0.9323,0.9407,0.0,0.0,0.7809,0.71,0.6811,0.6934,0.6687,0.6522,0.6354,0.5897,0.5602,0.5384,0.5384,0.5384,0.5384,0.5636,0.6053,0.6553,0.8144,0.9559,1.0976,1.3135,1.4713,1.5793,1.6862,1.76,1.801,1.8255,1.851,1.8673,1.4432,1.4603,1.4765,1.4935,1.4968,1.4968,1.4968,1.4968,1.4968,1.4968,1.4968,1.4968,1.4968,1.4968,1.4968,1.4968,1.4968,1.4968,1.4968,1.4968,1.4968,1.4968,1.4968,1.4968,1.4968,1.4592,1.3975,1.3197,1.2424,1.1643,1.0862,0.9698,0.8691,0.7759,0.69,0.6275,0.5651,0.5257,0.51,0.5022,0.5022,0.5022,0.5022,0.5022,0.5022,0.5022,0.5022,0.5022,0.5179,0.5492,0.5962,0.6431,0.6904,0.7652,0.8522,0.8684,0.883,0.8989,0.9323,0.949,0.9657,1.007,1.0153,1.032,1.0654,1.0737,1.0737,1.0737,1.0737,1.0737,1.0737,1.0737,1.0737,1.0737,1.0721,1.0715,1.0732,0.0,1.0563,1.0579,1.0585,1.0585,1.0585,1.0263,0.9903,0.9574,0.865,0.798,0.0,0.6724,0.6556,0.7311,0.6811,0.6308,0.5969,0.5636,0.5384,0.5384,0.5384,0.5384,0.5384,0.5384,0.5636,0.6053,0.7474,0.8813,1.0226,1.2886,1.4631,1.5628,1.7346,1.801,1.8174,1.8592,1.8673,1.8673,1.4603,1.4692,1.4765,1.4935,1.4968,1.4968,1.4968,1.4968,1.4968,1.4968,1.4968,1.4968,1.4968,1.4968,1.4968,1.4968,1.4968,1.4968,1.4968,1.4968,1.4968,1.4968,1.4968,1.4968,1.4968,1.4592,1.413,1.359,1.312,1.2656,1.2185,1.134,1.0247,0.9075,0.8223,0.7209,0.6196,0.5727,0.5335,0.5022,0.5022,0.5022,0.5022,0.5022,0.5022,0.5022,0.5022,0.5257,0.5573,0.5573,0.6121,0.6904,0.7291,0.789,0.8603,0.9411,0.9727,0.982,0.949,0.9657,1.007,1.0487,1.057,1.0654,1.0654,1.0737,1.0737,1.0737,1.0737,1.0737,1.0737,1.0737,1.0737,1.0737,1.065,1.0617,1.0721,0.0,1.0596,1.0699,1.071,1.071,1.071,1.031,1.007,0.9986,0.9156,0.8571,0.8487,0.7314,0.6643,0.6811,0.6056,0.5552,0.5468,0.5468,0.5384,0.5384,0.5384,0.5384,0.5384,0.5384,0.5468,0.5636,0.7311,0.8645,0.9726,1.2803,1.4788,1.6024,1.7428,1.8255,1.8592,1.8673,1.8673,1.8673,1.4676,1.4781,1.4871,1.4952,1.4968,1.4968,1.4968,1.4968,1.4968,1.4968,1.4968,1.4968,1.4968,1.4968,1.4968,1.4968,1.4968,1.4968,1.4968,1.4968,1.4968,1.4968,1.4968,1.4968,1.4968,1.4814,1.4584,1.443,1.3975,1.3744,1.3513,1.2656,1.1721,1.0713,0.962,0.8453,0.7209,0.6587,0.5965,0.5414,0.5414,0.5257,0.5022,0.5022,0.5179,0.5414,0.5414,0.5648,0.604,0.6278,0.6747,0.7291,0.7764,0.8525,0.9249,0.9653,1.0137,1.0404,1.0153,1.0237,1.0487,1.0654,1.0737,1.0737,1.0737,1.0737,1.0737,1.0737,1.0737,1.0737,1.0737,1.0737,1.0737,1.0737,1.0688,0.0,0.0,1.0688,1.0672,1.0732,1.0737,1.0737,1.0737,1.057,1.032,1.0153,0.949,0.8989,0.8738,0.7398,0.6727,0.6727,0.5888,0.5384,0.5384,0.5384,0.5384,0.5384,0.5384,0.5384,0.5384,0.5384,0.5552,0.5885,0.7391,0.8729,1.006,1.3128,1.5036,1.6188,1.7764,1.851,1.8673,1.8673,1.8673,1.8673,1.4757,1.4879,1.4968,1.4968,1.4968,1.4968,1.4968,1.4968,1.4968,1.4968,1.4968,1.4968,1.4968,1.4968,1.4968,1.4968,1.5009,1.5025,1.5025,1.5065,1.5057,1.4968,1.4968,1.4968,1.4968,1.4968,1.4968,1.4968,1.4669,1.4515,1.4515,1.3744,1.3042,1.2269,1.1023,0.9775,0.8613,0.7759,0.69,0.6118,0.5886,0.5648,0.5257,0.5179,0.5414,0.5808,0.5808,0.6118,0.6509,0.6904,0.7295,0.7759,0.831,0.906,0.9778,0.9884,1.0301,1.0737,1.0737,1.0737,1.0737,1.0737,1.0737,1.0737,1.0737,1.0737,1.0737,1.0737,1.0737,1.0737,1.0737,1.0737,1.0737,1.0737,0.0,0.0,0.0,1.0715,1.0704,1.0732,1.0737,1.0737,1.0737,1.0737,1.057,1.0237,0.9736,0.924,0.8905,0.7566,0.6811,0.656,0.5804,0.5384,0.5384,0.5384,0.5384,0.5384,0.5384,0.5468,0.5552,0.5552,0.5804,0.6305,0.7642,0.8975,1.0476,1.3452,1.5275,1.6353,1.801,1.8673,1.8673,1.8673,1.8673,1.8673,1.4919,1.496,1.4968,1.4968,1.4968,1.4968,1.4968,1.4968,1.4968,1.4968,1.4968,1.4968,1.4968,1.4968,1.4968,1.4968,1.5122,1.522,1.522,1.5382,1.5325,1.4984,1.4968,1.4968,1.4968,1.4968,1.4968,1.4968,1.4968,1.4968,1.4968,1.4515,1.4053,1.3505,1.2269,1.1256,1.0314,0.9153,0.8145,0.7291,0.6587,0.6275,0.6196,0.5808,0.5883,0.6275,0.6275,0.6509,0.6904,0.7291,0.7764,0.8315,0.909,0.9484,0.968,1.019,1.0552,1.0737,1.0737,1.0737,1.0737,1.0737,1.0737,1.0737,1.0737,1.0737,1.0737,1.0737,1.0737,1.0737,1.0737,1.0737,1.0737,1.0737,0.0,0.0,1.0721,1.0639,1.0612,1.0721,1.0737,1.0737,1.0737,1.0737,1.0654,1.0654,0.9903,0.9407,0.9323,0.8064,0.6975,0.6137,0.5636,0.5384,0.5384,0.5384,0.5384,0.5384,0.5384,0.5636,0.6053,0.6053,0.6305,0.6727,0.806,0.9392,1.0887,1.3618,1.544,1.678,1.8183,1.8673,1.8673,1.8673,1.8673,1.8673,1.4952,1.4968,1.4968,1.4968,1.4968,1.4968,1.4968,1.4968,1.4968,1.4968,1.4968,1.4968,1.4968,1.4968,1.5009,1.5122,1.5195,1.5285,1.5407,1.548,1.5455,1.5309,1.5195,1.5139,1.5139,1.5025,1.4968,1.4968,1.4968,1.4968,1.4968,1.4814,1.4515,1.413,1.3351,1.2579,1.1721,1.0791,0.9547,0.8223,0.7677,0.6975,0.6275,0.6118,0.6353,0.6666,0.6978,0.7295,0.7764,0.8154,0.8622,0.9012,0.9324,0.9635,1.0004,1.0433,1.0606,1.0737,1.0737,1.0737,1.0737,1.0737,1.0737,1.0737,1.0737,1.0737,1.0737,1.0737,1.0737,1.0737,1.0737,1.0737,1.0737,1.0737,0.0,1.0683,1.0732,1.0699,1.0683,1.0732,1.0737,1.0737,1.0737,1.0737,1.0737,1.0737,1.0153,0.9741,0.9407,0.8148,0.7143,0.6476,0.6308,0.5972,0.5384,0.5384,0.5384,0.5384,0.572,0.5885,0.6137,0.6389,0.6727,0.7227,0.8227,0.9643,1.1303,1.37,1.553,1.6854,1.8183,1.8673,1.8673,1.8673,1.8673,1.8673,1.4968,1.4968,1.4968,1.4968,1.4968,1.4968,1.4968,1.4968,1.4968,1.4968,1.4968,1.4968,1.4968,1.5017,1.5106,1.5228,1.5342,1.5463,1.5585,1.565,1.5634,1.552,1.539,1.5325,1.5325,1.5204,1.5139,1.5139,1.5139,1.5139,1.5139,1.5139,1.4991,1.4758,1.4291,1.3737,1.3191,1.2409,1.1227,0.9887,0.9184,0.8238,0.737,0.7133,0.7216,0.7611,0.7927,0.8225,0.8517,0.8904,0.9198,0.9402,0.9558,0.9898,1.0291,1.0454,1.0612,1.0737,1.0737,1.0737,1.0737,1.0737,1.0737,1.0737,1.0737,1.0737,1.0737,1.0737,1.0737,1.0737,1.0737,1.0737,1.0737,1.0737,1.0737,1.0737,1.0737,1.0737,1.0737,1.0737,1.0737,1.0737,1.0737,1.0737,1.0737,1.0737,1.032,0.9903,0.9407,0.8399,0.7562,0.7147,0.6979,0.656,0.5804,0.5804,0.5804,0.5804,0.6137,0.6389,0.6556,0.6975,0.7394,0.7897,0.8896,1.0393,1.2216,1.412,1.5777,1.7191,1.8265,1.8673,1.8673,1.8673,1.8673,1.8673,1.4968,1.4968,1.4968,1.4968,1.4968,1.4968,1.4968,1.4968,1.4968,1.4968,1.4968,1.4968,1.4968,1.513,1.5166,1.5166,1.5569,1.5772,1.5772,1.5943,1.5886,1.5536,1.552,1.552,1.552,1.5512,1.5512,1.5512,1.5512,1.5512,1.5512,1.5512,1.5512,1.5512,1.5114,1.4875,1.4875,1.4069,1.3182,1.2301,1.1016,1.0212,0.9728,0.8846,0.8765,0.9088,0.9088,0.9097,0.9089,0.9491,0.9499,0.948,0.9864,1.0188,1.0384,1.0384,1.0552,1.0737,1.0737,1.0737,1.0737,1.0737,1.0737,1.0737,1.0737,1.0737,1.0737,1.0737,1.0737,1.0737,1.0737,1.0737,1.0737,1.0737,1.0737,1.0737,1.0737,1.0737,1.0737,1.0737,1.0737,1.0737,1.0737,1.0737,1.0737,1.0737,1.032,0.9903,0.9407,0.8989,0.8487,0.8148,0.7646,0.7227,0.6727,0.6727,0.6727,0.6727,0.6727,0.6979,0.7394,0.7897,0.8315,0.8822,1.0153,1.173,1.3549,1.4871,1.6435,1.8092,1.851,1.8673,1.8673,1.8673,1.8673,1.8673,1.4968,1.4968,1.4968,1.4968,1.4968,1.4968,1.4968,1.4968,1.4968,1.4968,1.4968,1.5017,1.5147,1.5204,1.5342,1.5593,1.5707,1.5829,1.5959,1.6016,1.5999,1.5894,1.5764,1.5699,1.5699,1.5577,1.5512,1.5512,1.5512,1.5512,1.5512,1.5512,1.5512,1.552,1.5751,1.5822,1.5822,1.5584,1.4779,1.3655,1.2622,1.1499,1.0212,0.9653,0.9249,0.9169,0.9491,0.9547,0.9602,1.0008,1.0147,1.0105,1.0098,1.0199,1.0275,1.0362,1.0492,1.0628,1.0715,1.0737,1.0737,1.0737,1.0737,1.0737,1.0737,1.0737,1.0737,1.0737,1.0737,1.0737,1.0737,1.0737,1.0737,1.0737,1.0737,1.0737,1.0737,1.0737,1.0737,1.0737,1.0737,1.0737,1.0737,1.0737,1.0737,1.0737,1.032,1.007,0.9903,0.9407,0.9156,0.8984,0.8901,0.8733,0.8571,0.7314,0.6727,0.6727,0.7063,0.7478,0.7897,0.8315,0.8989,0.9736,1.0737,1.2229,1.388,1.5283,1.6681,1.8092,1.851,1.8673,1.8673,1.8673,1.8673,1.8673,1.4968,1.4968,1.4968,1.4968,1.4968,1.4968,1.4968,1.4968,1.4968,1.4968,1.4968,1.5033,1.522,1.5301,1.5463,1.5748,1.5837,1.5926,1.5958,1.5966,1.5966,1.5966,1.5943,1.5878,1.5878,1.578,1.5723,1.5723,1.5885,1.5965,1.5965,1.6127,1.6288,1.6288,1.6529,1.669,1.669,1.669,1.6118,1.5215,1.4496,1.3274,1.1818,1.1167,1.0596,1.0029,1.0111,1.0161,1.0124,1.0368,1.0422,1.0373,1.0297,1.0307,1.0356,1.0433,1.0536,1.0645,1.0715,1.0737,1.0737,1.0737,1.0737,1.0737,1.0737,1.0737,1.0737,1.0737,1.0737,1.0737,1.0737,1.0737,1.0737,1.0737,1.0737,1.0737,1.0737,1.0737,1.0737,1.0737,1.0737,1.0737,1.0737,1.0737,1.0737,1.0737,1.0487,1.032,1.032,0.9903,0.9657,0.9657,0.949,0.9407,0.9407,0.8319,0.7733,0.7733,0.8064,0.8315,0.865,0.9068,0.9653,1.0404,1.1647,1.3052,1.4623,1.6032,1.7273,1.8337,1.8592,1.8673,1.8673,1.8673,1.8673,1.8673,1.4968,1.4968,1.4968,1.4968,1.4968,1.4968,1.4968,1.4968,1.4968,1.4968,1.4968,1.5033,1.522,1.5407,1.5585,1.5756,1.5943,1.6048,1.613,1.613,1.613,1.613,1.613,1.613,1.613,1.6048,1.6048,1.613,1.6534,1.678,1.678,1.7199,1.7363,1.7363,1.7445,1.7445,1.7445,1.7527,1.7273,1.6772,1.6279,1.5365,1.4052,1.3135,1.2229,1.132,1.0904,1.0666,1.0574,1.0574,1.0498,1.04,1.04,1.0465,1.0541,1.0634,1.0634,1.0721,1.0732,1.0737,1.0737,1.0737,1.0737,1.0737,1.0737,1.0737,1.0737,1.0737,1.0737,1.0737,1.0737,1.0737,1.0737,1.0737,1.0737,1.0737,1.0737,1.0737,1.0737,1.0737,1.0737,1.0737,1.0737,1.0737,1.0737,1.0737,1.0737,1.0737,1.0737,1.032,1.0153,1.0153,0.9736,0.949,0.949,0.949,0.949,0.9407,0.9407,0.9407,0.949,0.9903,1.0404,1.0987,1.2727,1.4293,1.5612,1.6944,1.7937,1.8673,1.8673,1.8673,1.8673,1.8673,1.8673,1.8673,1.4968,1.4968,1.4968,1.4968,1.4968,1.4968,1.4968,1.4968,1.4968,1.4968,1.4968,1.5033,1.522,1.5407,1.5585,1.5756,1.6261,1.6698,1.7035,1.7117,1.7117,1.7117,1.7117,1.7117,1.7117,1.6698,1.6698,1.7117,1.7199,1.7281,1.7281,1.7363,1.7363,1.7445,1.7764,1.7846,1.7928,1.8265,1.8174,1.7682,1.7273,1.6122,1.4465,1.3549,1.2478,1.132,1.0904,1.0721,1.0699,1.0699,1.0617,1.0601,1.0601,1.0476,1.0438,1.053,1.0574,1.0617,1.071,1.0737,1.0737,1.0737,1.0737,1.0737,1.0737,1.0737,1.0737,1.0737,1.0737,1.0737,1.0737,1.0737,1.0737,1.0737,1.0737,1.0737,1.0737,1.0737,1.0737,1.0737,1.0737,1.0737,1.0737,1.0737,1.0737,1.0737,1.0737,1.0737,1.0737,1.0654,1.057,1.057,1.0487,1.0404,1.0404,1.0404,1.007,0.9407,0.9407,0.9574,0.9986,1.0404,1.1153,1.2318,1.3804,1.5208,1.6525,1.7437,1.8174,1.8673,1.8673,1.8673,1.8673,1.8673,1.8673,1.8673,1.4968,1.4968,1.4968,1.4968,1.4968,1.4968,1.4968,1.4968,1.4968,1.4968,1.4968,1.5033,1.522,1.5407,1.5698,1.6203,1.6721,1.7108,1.7363,1.7363,1.7363,1.7363,1.7363,1.7527,1.7682,1.7437,1.7355,1.7363,1.7609,1.7682,1.7682,1.7937,1.8019,1.8019,1.8255,1.8337,1.8337,1.8592,1.8592,1.8337,1.8101,1.7108,1.5538,1.4706,1.339,1.1902,1.1237,1.0904,1.0737,1.0737,1.0693,1.0645,1.0645,1.0601,1.0568,1.0623,1.0645,1.0655,1.0721,1.0737,1.0737,1.0737,1.0737,1.0737,1.0737,1.0737,1.0737,1.0737,1.0737,1.0737,1.0737,1.0737,1.0737,1.0737,1.0737,1.0737,1.0737,1.0737,1.0737,1.0737,1.0737,1.0737,1.0737,1.0737,1.0737,1.0737,1.0737,1.0737,1.0737,1.0737,1.0737,1.0737,1.0737,1.0737,1.0737,1.0737,1.0487,0.9986,0.9986,1.0237,1.0737,1.1153,1.2069,1.3473,1.4713,1.595,1.7108,1.7928,1.851,1.8673,1.8673,1.8673,1.8673,1.8673,1.8673,1.8673,1.4968,1.4968,1.4968,1.4968,1.4968,1.4968,1.4968,1.4968,1.4968,1.4968,1.4968,1.5025,1.5179,1.5461,1.598,1.6828,1.7273,1.7527,1.7609,1.7609,1.7609,1.7609,1.7609,1.7773,1.8092,1.8092,1.7928,1.7609,1.7928,1.8092,1.8092,1.851,1.8673,1.8673,1.8673,1.8673,1.8673,1.8673,1.8673,1.8673,1.8673,1.7928,1.6607,1.5695,1.4293,1.2567,1.1736,1.107,1.0737,1.0737,1.0737,1.0737,1.0737,1.0737,1.0737,1.0737,1.0737,1.0737,1.0737,1.0737,1.0737,1.0737,1.0737,1.0737,1.0737,1.0737,1.0737,1.0737,1.0737,1.0737,1.0737,1.0737,1.0737,1.0737,1.0737,1.0737,1.0737,1.0737,1.0737,1.0737,1.0737,1.0737,1.0737,1.0737,1.0737,1.0737,1.0737,1.0737,1.0737,1.0737,1.0737,1.0737,1.0737,1.0737,1.0737,1.0737,1.0737,1.0737,1.082,1.0987,1.1403,1.2069,1.2975,1.43,1.562,1.6689,1.7527,1.8346,1.8673,1.8673,1.8673,1.8673,1.8673,1.8673,1.8673,1.8673,1.4968,1.4968,1.4968,1.4968,1.4968,1.4968,1.4968,1.4968,1.4968,1.4968,1.4968,1.4976,1.5,1.5693,1.6533,1.7728,1.7846,1.8092,1.851,1.851,1.851,1.851,1.851,1.851,1.8592,1.8592,1.8592,1.851,1.8592,1.8592,1.8592,1.8673,1.8673,1.8673,1.8673,1.8673,1.8673,1.8673,1.8673,1.8673,1.8673,1.7928,1.6607,1.5695,1.4293,1.2567,1.1736,1.107,1.0737,1.0737,1.0737,1.0737,1.0737,1.0737,1.0737,1.0737,1.0737,1.0737,1.0737,1.0737,1.0737,1.0737,1.0737,1.0737,1.0737,1.0737,1.0737,1.0737,1.0737,1.0737,1.0737,1.0737,1.0737,1.0737,1.0737,1.0737,1.0737,1.0737,1.0737,1.0737,1.0737,1.0737,1.0737,1.0737,1.0737,1.0737,1.0737,1.0737,1.0737,1.0737,1.0737,1.0737,1.0737,1.0737,1.0737,1.0737,1.0737,1.0737,1.107,1.132,1.1403,1.2644,1.3721,1.4713,1.6451,1.7519,1.7928,1.851,1.8673,1.8673,1.8673,1.8673,1.8673,1.8673,1.8673,1.8673,1.4968,1.4968,1.4968,1.4968,1.4968,1.4968,1.4968,1.4968,1.5045,1.5275,1.5352,1.5429,1.5659,1.639,1.7173,1.7973,1.8255,1.851,1.8673,1.8673,1.8673,1.8673,1.8673,1.8673,1.8673,1.8673,1.8673,1.8673,1.8673,1.8673,1.8673,1.8673,1.8673,1.8673,1.8673,1.8673,1.8673,1.8673,1.8673,1.8673,1.8673,1.8019,1.7026,1.6106,1.4623,1.2893,1.1486,1.0904,1.0737,1.0737,1.0737,1.0737,1.0737,1.0737,1.0737,1.0737,1.0737,1.0737,1.0737,1.0737,1.0737,1.0737,1.0737,1.0737,1.0737,1.0737,1.0737,1.0737,1.0737,1.0737,1.0737,1.0737,1.0737,1.0737,1.0737,1.0737,1.0737,1.0737,1.0737,1.0737,1.0737,1.0737,1.0737,1.0737,1.0737,1.0737,1.0737,1.0737,1.0737,1.0737,1.0737,1.0737,1.0737,1.0737,1.0737,1.0737,1.0737,1.0737,1.1153,1.1653,1.2152,1.3473,1.4713,1.5867,1.7191,1.801,1.8428,1.8592,1.8673,1.8673,1.8673,1.8673,1.8673,1.8673,1.8673,1.8673]}]]